<?xml version="1.0" encoding="UTF-8" standalone="no" ?>
<gpx xmlns="http://www.topografix.com/GPX/1/1" xmlns:xsi="http://www.w3.org/2001/XMLSchema-instance" xsi:schemaLocation="http://www.topografix.com/GPX/1/1 http://www.topografix.com/GPX/1/1/gpx.xsd" version="1.1" creator="VisuGPX - https://www.visugpx.com">
  <metadata>
    <name>Vallée du Lot à vélo de Capdenac à St-Martin-Labouval</name>
    <desc><![CDATA[http://mareemonti.canalblog.com/archives/2018/08/09/36619945.html]]></desc>
  </metadata>
  <trk>
    <name><![CDATA[Vallée du Lot à vélo de Capdenac à St-Martin-Labouval]]></name>
    <trkseg>
      <trkpt lat="44.57557" lon="2.08134">
        <ele>238</ele>
        <time>2018-08-04T11:56:59+02:00</time>
      </trkpt>
      <trkpt lat="44.57571" lon="2.08135">
        <ele>235</ele>
        <time>2018-08-04T11:57:11+02:00</time>
      </trkpt>
      <trkpt lat="44.57591" lon="2.0812">
        <ele>236</ele>
        <time>2018-08-04T11:57:30+02:00</time>
      </trkpt>
      <trkpt lat="44.57591" lon="2.08087">
        <ele>234</ele>
        <time>2018-08-04T11:57:54+02:00</time>
      </trkpt>
      <trkpt lat="44.57602" lon="2.08059">
        <ele>240</ele>
        <time>2018-08-04T11:58:15+02:00</time>
      </trkpt>
      <trkpt lat="44.5761" lon="2.08028">
        <ele>240</ele>
        <time>2018-08-04T11:58:45+02:00</time>
      </trkpt>
      <trkpt lat="44.5762" lon="2.07996">
        <ele>238</ele>
        <time>2018-08-04T11:59:03+02:00</time>
      </trkpt>
      <trkpt lat="44.57627" lon="2.07962">
        <ele>239</ele>
        <time>2018-08-04T11:59:11+02:00</time>
      </trkpt>
      <trkpt lat="44.57631" lon="2.0793">
        <ele>241</ele>
        <time>2018-08-04T11:59:18+02:00</time>
      </trkpt>
      <trkpt lat="44.57637" lon="2.07898">
        <ele>242</ele>
        <time>2018-08-04T11:59:26+02:00</time>
      </trkpt>
      <trkpt lat="44.57643" lon="2.07867">
        <ele>241</ele>
        <time>2018-08-04T11:59:37+02:00</time>
      </trkpt>
      <trkpt lat="44.57651" lon="2.07833">
        <ele>241</ele>
        <time>2018-08-04T12:00:08+02:00</time>
      </trkpt>
      <trkpt lat="44.57658" lon="2.07802">
        <ele>241</ele>
        <time>2018-08-04T12:00:14+02:00</time>
      </trkpt>
      <trkpt lat="44.57663" lon="2.07769">
        <ele>238</ele>
        <time>2018-08-04T12:00:21+02:00</time>
      </trkpt>
      <trkpt lat="44.57672" lon="2.0774">
        <ele>234</ele>
        <time>2018-08-04T12:00:27+02:00</time>
      </trkpt>
      <trkpt lat="44.57676" lon="2.07706">
        <ele>239</ele>
        <time>2018-08-04T12:00:34+02:00</time>
      </trkpt>
      <trkpt lat="44.57683" lon="2.07671">
        <ele>235</ele>
        <time>2018-08-04T12:00:40+02:00</time>
      </trkpt>
      <trkpt lat="44.57692" lon="2.07638">
        <ele>237</ele>
        <time>2018-08-04T12:00:47+02:00</time>
      </trkpt>
      <trkpt lat="44.577" lon="2.07608">
        <ele>236</ele>
        <time>2018-08-04T12:00:53+02:00</time>
      </trkpt>
      <trkpt lat="44.57705" lon="2.07576">
        <ele>242</ele>
        <time>2018-08-04T12:01:00+02:00</time>
      </trkpt>
      <trkpt lat="44.57707" lon="2.07545">
        <ele>240</ele>
        <time>2018-08-04T12:01:07+02:00</time>
      </trkpt>
      <trkpt lat="44.57718" lon="2.07511">
        <ele>238</ele>
        <time>2018-08-04T12:01:14+02:00</time>
      </trkpt>
      <trkpt lat="44.57724" lon="2.0748">
        <ele>241</ele>
        <time>2018-08-04T12:01:21+02:00</time>
      </trkpt>
      <trkpt lat="44.57733" lon="2.07449">
        <ele>242</ele>
        <time>2018-08-04T12:01:28+02:00</time>
      </trkpt>
      <trkpt lat="44.57741" lon="2.07418">
        <ele>240</ele>
        <time>2018-08-04T12:01:35+02:00</time>
      </trkpt>
      <trkpt lat="44.57751" lon="2.07388">
        <ele>241</ele>
        <time>2018-08-04T12:01:43+02:00</time>
      </trkpt>
      <trkpt lat="44.57758" lon="2.07357">
        <ele>239</ele>
        <time>2018-08-04T12:01:50+02:00</time>
      </trkpt>
      <trkpt lat="44.57765" lon="2.07325">
        <ele>238</ele>
        <time>2018-08-04T12:01:59+02:00</time>
      </trkpt>
      <trkpt lat="44.57771" lon="2.07293">
        <ele>237</ele>
        <time>2018-08-04T12:02:07+02:00</time>
      </trkpt>
      <trkpt lat="44.57778" lon="2.07262">
        <ele>234</ele>
        <time>2018-08-04T12:03:06+02:00</time>
      </trkpt>
      <trkpt lat="44.57786" lon="2.07228">
        <ele>236</ele>
        <time>2018-08-04T12:03:17+02:00</time>
      </trkpt>
      <trkpt lat="44.57792" lon="2.07197">
        <ele>236</ele>
        <time>2018-08-04T12:03:26+02:00</time>
      </trkpt>
      <trkpt lat="44.57776" lon="2.07172">
        <ele>236</ele>
        <time>2018-08-04T12:03:34+02:00</time>
      </trkpt>
      <trkpt lat="44.57754" lon="2.07163">
        <ele>236</ele>
        <time>2018-08-04T12:03:40+02:00</time>
      </trkpt>
      <trkpt lat="44.57732" lon="2.07154">
        <ele>235</ele>
        <time>2018-08-04T12:03:46+02:00</time>
      </trkpt>
      <trkpt lat="44.57707" lon="2.0714">
        <ele>237</ele>
        <time>2018-08-04T12:03:53+02:00</time>
      </trkpt>
      <trkpt lat="44.57684" lon="2.07127">
        <ele>236</ele>
        <time>2018-08-04T12:04:00+02:00</time>
      </trkpt>
      <trkpt lat="44.5766" lon="2.07114">
        <ele>239</ele>
        <time>2018-08-04T12:04:08+02:00</time>
      </trkpt>
      <trkpt lat="44.57641" lon="2.07097">
        <ele>240</ele>
        <time>2018-08-04T12:04:15+02:00</time>
      </trkpt>
      <trkpt lat="44.57619" lon="2.07079">
        <ele>239</ele>
        <time>2018-08-04T12:04:23+02:00</time>
      </trkpt>
      <trkpt lat="44.57599" lon="2.07059">
        <ele>240</ele>
        <time>2018-08-04T12:04:32+02:00</time>
      </trkpt>
      <trkpt lat="44.57577" lon="2.07046">
        <ele>241</ele>
        <time>2018-08-04T12:04:41+02:00</time>
      </trkpt>
      <trkpt lat="44.57556" lon="2.07032">
        <ele>241</ele>
        <time>2018-08-04T12:04:49+02:00</time>
      </trkpt>
      <trkpt lat="44.57536" lon="2.07015">
        <ele>242</ele>
        <time>2018-08-04T12:04:58+02:00</time>
      </trkpt>
      <trkpt lat="44.57519" lon="2.06991">
        <ele>245</ele>
        <time>2018-08-04T12:05:08+02:00</time>
      </trkpt>
      <trkpt lat="44.5751" lon="2.06962">
        <ele>247</ele>
        <time>2018-08-04T12:05:20+02:00</time>
      </trkpt>
      <trkpt lat="44.57571" lon="2.06885">
        <ele>251</ele>
        <time>2018-08-04T12:06:11+02:00</time>
      </trkpt>
      <trkpt lat="44.57595" lon="2.0689">
        <ele>247</ele>
        <time>2018-08-04T12:06:22+02:00</time>
      </trkpt>
      <trkpt lat="44.57617" lon="2.06887">
        <ele>251</ele>
        <time>2018-08-04T12:06:33+02:00</time>
      </trkpt>
      <trkpt lat="44.5764" lon="2.06882">
        <ele>251</ele>
        <time>2018-08-04T12:06:44+02:00</time>
      </trkpt>
      <trkpt lat="44.57663" lon="2.06882">
        <ele>246</ele>
        <time>2018-08-04T12:06:53+02:00</time>
      </trkpt>
      <trkpt lat="44.57686" lon="2.06875">
        <ele>242</ele>
        <time>2018-08-04T12:07:02+02:00</time>
      </trkpt>
      <trkpt lat="44.57707" lon="2.06856">
        <ele>250</ele>
        <time>2018-08-04T12:07:12+02:00</time>
      </trkpt>
      <trkpt lat="44.57728" lon="2.06841">
        <ele>259</ele>
        <time>2018-08-04T12:07:21+02:00</time>
      </trkpt>
      <trkpt lat="44.57749" lon="2.06828">
        <ele>261</ele>
        <time>2018-08-04T12:07:31+02:00</time>
      </trkpt>
      <trkpt lat="44.57772" lon="2.06818">
        <ele>261</ele>
        <time>2018-08-04T12:07:41+02:00</time>
      </trkpt>
      <trkpt lat="44.57792" lon="2.068">
        <ele>263</ele>
        <time>2018-08-04T12:07:50+02:00</time>
      </trkpt>
      <trkpt lat="44.57815" lon="2.06788">
        <ele>268</ele>
        <time>2018-08-04T12:08:01+02:00</time>
      </trkpt>
      <trkpt lat="44.57837" lon="2.06775">
        <ele>270</ele>
        <time>2018-08-04T12:08:11+02:00</time>
      </trkpt>
      <trkpt lat="44.5786" lon="2.06765">
        <ele>271</ele>
        <time>2018-08-04T12:08:21+02:00</time>
      </trkpt>
      <trkpt lat="44.57882" lon="2.06754">
        <ele>270</ele>
        <time>2018-08-04T12:08:32+02:00</time>
      </trkpt>
      <trkpt lat="44.57905" lon="2.06743">
        <ele>271</ele>
        <time>2018-08-04T12:10:07+02:00</time>
      </trkpt>
      <trkpt lat="44.57928" lon="2.06731">
        <ele>273</ele>
        <time>2018-08-04T12:10:17+02:00</time>
      </trkpt>
      <trkpt lat="44.57949" lon="2.06716">
        <ele>274</ele>
        <time>2018-08-04T12:10:26+02:00</time>
      </trkpt>
      <trkpt lat="44.57971" lon="2.06706">
        <ele>281</ele>
        <time>2018-08-04T12:10:37+02:00</time>
      </trkpt>
      <trkpt lat="44.57997" lon="2.067">
        <ele>280</ele>
        <time>2018-08-04T12:10:47+02:00</time>
      </trkpt>
      <trkpt lat="44.5802" lon="2.06688">
        <ele>280</ele>
        <time>2018-08-04T12:10:56+02:00</time>
      </trkpt>
      <trkpt lat="44.58042" lon="2.06677">
        <ele>286</ele>
        <time>2018-08-04T12:11:07+02:00</time>
      </trkpt>
      <trkpt lat="44.58065" lon="2.06666">
        <ele>284</ele>
        <time>2018-08-04T12:11:16+02:00</time>
      </trkpt>
      <trkpt lat="44.58084" lon="2.06649">
        <ele>283</ele>
        <time>2018-08-04T12:11:24+02:00</time>
      </trkpt>
      <trkpt lat="44.58108" lon="2.06643">
        <ele>290</ele>
        <time>2018-08-04T12:11:35+02:00</time>
      </trkpt>
      <trkpt lat="44.58129" lon="2.06628">
        <ele>283</ele>
        <time>2018-08-04T12:11:43+02:00</time>
      </trkpt>
      <trkpt lat="44.5815" lon="2.06616">
        <ele>288</ele>
        <time>2018-08-04T12:11:53+02:00</time>
      </trkpt>
      <trkpt lat="44.58174" lon="2.06605">
        <ele>287</ele>
        <time>2018-08-04T12:12:03+02:00</time>
      </trkpt>
      <trkpt lat="44.58197" lon="2.06596">
        <ele>286</ele>
        <time>2018-08-04T12:12:30+02:00</time>
      </trkpt>
      <trkpt lat="44.58219" lon="2.06582">
        <ele>281</ele>
        <time>2018-08-04T12:13:07+02:00</time>
      </trkpt>
      <trkpt lat="44.58243" lon="2.06577">
        <ele>283</ele>
        <time>2018-08-04T12:13:13+02:00</time>
      </trkpt>
      <trkpt lat="44.58268" lon="2.06583">
        <ele>280</ele>
        <time>2018-08-04T12:13:19+02:00</time>
      </trkpt>
      <trkpt lat="44.58292" lon="2.06606">
        <ele>280</ele>
        <time>2018-08-04T12:13:25+02:00</time>
      </trkpt>
      <trkpt lat="44.58314" lon="2.06627">
        <ele>277</ele>
        <time>2018-08-04T12:13:31+02:00</time>
      </trkpt>
      <trkpt lat="44.5833" lon="2.06654">
        <ele>277</ele>
        <time>2018-08-04T12:13:37+02:00</time>
      </trkpt>
      <trkpt lat="44.58348" lon="2.06688">
        <ele>281</ele>
        <time>2018-08-04T12:13:44+02:00</time>
      </trkpt>
      <trkpt lat="44.58364" lon="2.06719">
        <ele>275</ele>
        <time>2018-08-04T12:13:48+02:00</time>
      </trkpt>
      <trkpt lat="44.58385" lon="2.06738">
        <ele>269</ele>
        <time>2018-08-04T12:13:52+02:00</time>
      </trkpt>
      <trkpt lat="44.58393" lon="2.06704">
        <ele>264</ele>
        <time>2018-08-04T12:13:59+02:00</time>
      </trkpt>
      <trkpt lat="44.58377" lon="2.06674">
        <ele>261</ele>
        <time>2018-08-04T12:14:04+02:00</time>
      </trkpt>
      <trkpt lat="44.58364" lon="2.06646">
        <ele>260</ele>
        <time>2018-08-04T12:14:09+02:00</time>
      </trkpt>
      <trkpt lat="44.58363" lon="2.0661">
        <ele>258</ele>
        <time>2018-08-04T12:14:14+02:00</time>
      </trkpt>
      <trkpt lat="44.58351" lon="2.06579">
        <ele>252</ele>
        <time>2018-08-04T12:14:18+02:00</time>
      </trkpt>
      <trkpt lat="44.58342" lon="2.06549">
        <ele>250</ele>
        <time>2018-08-04T12:14:22+02:00</time>
      </trkpt>
      <trkpt lat="44.58363" lon="2.06568">
        <ele>244</ele>
        <time>2018-08-04T12:14:35+02:00</time>
      </trkpt>
      <trkpt lat="44.58379" lon="2.06538">
        <ele>244</ele>
        <time>2018-08-04T12:14:40+02:00</time>
      </trkpt>
      <trkpt lat="44.58384" lon="2.06501">
        <ele>241</ele>
        <time>2018-08-04T12:14:45+02:00</time>
      </trkpt>
      <trkpt lat="44.58386" lon="2.06464">
        <ele>239</ele>
        <time>2018-08-04T12:14:50+02:00</time>
      </trkpt>
      <trkpt lat="44.58385" lon="2.06426">
        <ele>237</ele>
        <time>2018-08-04T12:14:54+02:00</time>
      </trkpt>
      <trkpt lat="44.58386" lon="2.0639">
        <ele>233</ele>
        <time>2018-08-04T12:14:58+02:00</time>
      </trkpt>
      <trkpt lat="44.5839" lon="2.06359">
        <ele>234</ele>
        <time>2018-08-04T12:15:04+02:00</time>
      </trkpt>
      <trkpt lat="44.58394" lon="2.06327">
        <ele>236</ele>
        <time>2018-08-04T12:15:21+02:00</time>
      </trkpt>
      <trkpt lat="44.58405" lon="2.06299">
        <ele>237</ele>
        <time>2018-08-04T12:16:13+02:00</time>
      </trkpt>
      <trkpt lat="44.58412" lon="2.06266">
        <ele>236</ele>
        <time>2018-08-04T12:16:30+02:00</time>
      </trkpt>
      <trkpt lat="44.58411" lon="2.06233">
        <ele>239</ele>
        <time>2018-08-04T12:16:44+02:00</time>
      </trkpt>
      <trkpt lat="44.58409" lon="2.06201">
        <ele>248</ele>
        <time>2018-08-04T12:16:57+02:00</time>
      </trkpt>
      <trkpt lat="44.58412" lon="2.06169">
        <ele>250</ele>
        <time>2018-08-04T12:17:09+02:00</time>
      </trkpt>
      <trkpt lat="44.58416" lon="2.06135">
        <ele>248</ele>
        <time>2018-08-04T12:17:39+02:00</time>
      </trkpt>
      <trkpt lat="44.5842" lon="2.06103">
        <ele>246</ele>
        <time>2018-08-04T12:17:48+02:00</time>
      </trkpt>
      <trkpt lat="44.5842" lon="2.06067">
        <ele>238</ele>
        <time>2018-08-04T12:18:15+02:00</time>
      </trkpt>
      <trkpt lat="44.58425" lon="2.06028">
        <ele>233</ele>
        <time>2018-08-04T12:18:20+02:00</time>
      </trkpt>
      <trkpt lat="44.58426" lon="2.05992">
        <ele>232</ele>
        <time>2018-08-04T12:18:23+02:00</time>
      </trkpt>
      <trkpt lat="44.58424" lon="2.05957">
        <ele>234</ele>
        <time>2018-08-04T12:18:26+02:00</time>
      </trkpt>
      <trkpt lat="44.58424" lon="2.05923">
        <ele>234</ele>
        <time>2018-08-04T12:18:29+02:00</time>
      </trkpt>
      <trkpt lat="44.58423" lon="2.05886">
        <ele>237</ele>
        <time>2018-08-04T12:18:34+02:00</time>
      </trkpt>
      <trkpt lat="44.58418" lon="2.05854">
        <ele>237</ele>
        <time>2018-08-04T12:18:40+02:00</time>
      </trkpt>
      <trkpt lat="44.58409" lon="2.05822">
        <ele>238</ele>
        <time>2018-08-04T12:18:47+02:00</time>
      </trkpt>
      <trkpt lat="44.58398" lon="2.05793">
        <ele>235</ele>
        <time>2018-08-04T12:18:52+02:00</time>
      </trkpt>
      <trkpt lat="44.58388" lon="2.05755">
        <ele>228</ele>
        <time>2018-08-04T12:18:57+02:00</time>
      </trkpt>
      <trkpt lat="44.58377" lon="2.05726">
        <ele>227</ele>
        <time>2018-08-04T12:19:01+02:00</time>
      </trkpt>
      <trkpt lat="44.58362" lon="2.057">
        <ele>225</ele>
        <time>2018-08-04T12:19:05+02:00</time>
      </trkpt>
      <trkpt lat="44.58342" lon="2.05673">
        <ele>222</ele>
        <time>2018-08-04T12:19:09+02:00</time>
      </trkpt>
      <trkpt lat="44.58325" lon="2.05644">
        <ele>219</ele>
        <time>2018-08-04T12:19:13+02:00</time>
      </trkpt>
      <trkpt lat="44.58303" lon="2.05623">
        <ele>220</ele>
        <time>2018-08-04T12:19:16+02:00</time>
      </trkpt>
      <trkpt lat="44.58279" lon="2.05604">
        <ele>221</ele>
        <time>2018-08-04T12:19:19+02:00</time>
      </trkpt>
      <trkpt lat="44.58257" lon="2.05587">
        <ele>221</ele>
        <time>2018-08-04T12:19:22+02:00</time>
      </trkpt>
      <trkpt lat="44.5824" lon="2.05565">
        <ele>226</ele>
        <time>2018-08-04T12:19:26+02:00</time>
      </trkpt>
      <trkpt lat="44.58226" lon="2.05534">
        <ele>225</ele>
        <time>2018-08-04T12:19:29+02:00</time>
      </trkpt>
      <trkpt lat="44.58212" lon="2.05505">
        <ele>229</ele>
        <time>2018-08-04T12:19:33+02:00</time>
      </trkpt>
      <trkpt lat="44.58197" lon="2.05478">
        <ele>229</ele>
        <time>2018-08-04T12:19:37+02:00</time>
      </trkpt>
      <trkpt lat="44.58188" lon="2.05446">
        <ele>225</ele>
        <time>2018-08-04T12:19:41+02:00</time>
      </trkpt>
      <trkpt lat="44.5817" lon="2.05419">
        <ele>224</ele>
        <time>2018-08-04T12:19:46+02:00</time>
      </trkpt>
      <trkpt lat="44.58144" lon="2.05406">
        <ele>223</ele>
        <time>2018-08-04T12:19:49+02:00</time>
      </trkpt>
      <trkpt lat="44.58121" lon="2.05389">
        <ele>220</ele>
        <time>2018-08-04T12:19:52+02:00</time>
      </trkpt>
      <trkpt lat="44.58102" lon="2.05361">
        <ele>216</ele>
        <time>2018-08-04T12:19:56+02:00</time>
      </trkpt>
      <trkpt lat="44.58086" lon="2.05339">
        <ele>215</ele>
        <time>2018-08-04T12:20:00+02:00</time>
      </trkpt>
      <trkpt lat="44.5807" lon="2.05315">
        <ele>213</ele>
        <time>2018-08-04T12:20:05+02:00</time>
      </trkpt>
      <trkpt lat="44.58057" lon="2.05288">
        <ele>215</ele>
        <time>2018-08-04T12:20:12+02:00</time>
      </trkpt>
      <trkpt lat="44.58034" lon="2.05272">
        <ele>215</ele>
        <time>2018-08-04T12:20:18+02:00</time>
      </trkpt>
      <trkpt lat="44.58037" lon="2.05239">
        <ele>212</ele>
        <time>2018-08-04T12:20:26+02:00</time>
      </trkpt>
      <trkpt lat="44.58037" lon="2.05205">
        <ele>212</ele>
        <time>2018-08-04T12:20:34+02:00</time>
      </trkpt>
      <trkpt lat="44.5803" lon="2.0517">
        <ele>214</ele>
        <time>2018-08-04T12:20:42+02:00</time>
      </trkpt>
      <trkpt lat="44.58026" lon="2.05135">
        <ele>213</ele>
        <time>2018-08-04T12:20:49+02:00</time>
      </trkpt>
      <trkpt lat="44.58021" lon="2.05104">
        <ele>212</ele>
        <time>2018-08-04T12:20:55+02:00</time>
      </trkpt>
      <trkpt lat="44.58018" lon="2.05072">
        <ele>214</ele>
        <time>2018-08-04T12:21:01+02:00</time>
      </trkpt>
      <trkpt lat="44.58012" lon="2.05039">
        <ele>216</ele>
        <time>2018-08-04T12:21:07+02:00</time>
      </trkpt>
      <trkpt lat="44.58005" lon="2.05009">
        <ele>217</ele>
        <time>2018-08-04T12:21:13+02:00</time>
      </trkpt>
      <trkpt lat="44.58" lon="2.04974">
        <ele>218</ele>
        <time>2018-08-04T12:21:20+02:00</time>
      </trkpt>
      <trkpt lat="44.5799" lon="2.04941">
        <ele>218</ele>
        <time>2018-08-04T12:21:26+02:00</time>
      </trkpt>
      <trkpt lat="44.57987" lon="2.04907">
        <ele>216</ele>
        <time>2018-08-04T12:21:32+02:00</time>
      </trkpt>
      <trkpt lat="44.57971" lon="2.0488">
        <ele>216</ele>
        <time>2018-08-04T12:21:37+02:00</time>
      </trkpt>
      <trkpt lat="44.57963" lon="2.0485">
        <ele>212</ele>
        <time>2018-08-04T12:21:42+02:00</time>
      </trkpt>
      <trkpt lat="44.57955" lon="2.04821">
        <ele>212</ele>
        <time>2018-08-04T12:21:47+02:00</time>
      </trkpt>
      <trkpt lat="44.57946" lon="2.04787">
        <ele>215</ele>
        <time>2018-08-04T12:21:53+02:00</time>
      </trkpt>
      <trkpt lat="44.57934" lon="2.0476">
        <ele>216</ele>
        <time>2018-08-04T12:21:58+02:00</time>
      </trkpt>
      <trkpt lat="44.57923" lon="2.04729">
        <ele>216</ele>
        <time>2018-08-04T12:22:03+02:00</time>
      </trkpt>
      <trkpt lat="44.57911" lon="2.04698">
        <ele>213</ele>
        <time>2018-08-04T12:22:08+02:00</time>
      </trkpt>
      <trkpt lat="44.579" lon="2.04668">
        <ele>215</ele>
        <time>2018-08-04T12:22:14+02:00</time>
      </trkpt>
      <trkpt lat="44.5789" lon="2.04639">
        <ele>215</ele>
        <time>2018-08-04T12:22:20+02:00</time>
      </trkpt>
      <trkpt lat="44.57872" lon="2.04611">
        <ele>212</ele>
        <time>2018-08-04T12:22:26+02:00</time>
      </trkpt>
      <trkpt lat="44.57862" lon="2.04583">
        <ele>215</ele>
        <time>2018-08-04T12:22:32+02:00</time>
      </trkpt>
      <trkpt lat="44.57846" lon="2.04558">
        <ele>215</ele>
        <time>2018-08-04T12:22:37+02:00</time>
      </trkpt>
      <trkpt lat="44.5783" lon="2.0453">
        <ele>216</ele>
        <time>2018-08-04T12:22:43+02:00</time>
      </trkpt>
      <trkpt lat="44.57813" lon="2.04507">
        <ele>218</ele>
        <time>2018-08-04T12:22:48+02:00</time>
      </trkpt>
      <trkpt lat="44.57796" lon="2.04481">
        <ele>216</ele>
        <time>2018-08-04T12:22:54+02:00</time>
      </trkpt>
      <trkpt lat="44.57778" lon="2.04461">
        <ele>216</ele>
        <time>2018-08-04T12:22:59+02:00</time>
      </trkpt>
      <trkpt lat="44.57763" lon="2.04434">
        <ele>214</ele>
        <time>2018-08-04T12:23:05+02:00</time>
      </trkpt>
      <trkpt lat="44.57747" lon="2.04411">
        <ele>213</ele>
        <time>2018-08-04T12:23:10+02:00</time>
      </trkpt>
      <trkpt lat="44.57736" lon="2.0438">
        <ele>213</ele>
        <time>2018-08-04T12:23:17+02:00</time>
      </trkpt>
      <trkpt lat="44.57722" lon="2.04349">
        <ele>213</ele>
        <time>2018-08-04T12:23:23+02:00</time>
      </trkpt>
      <trkpt lat="44.57708" lon="2.04317">
        <ele>213</ele>
        <time>2018-08-04T12:23:29+02:00</time>
      </trkpt>
      <trkpt lat="44.57695" lon="2.04289">
        <ele>210</ele>
        <time>2018-08-04T12:23:34+02:00</time>
      </trkpt>
      <trkpt lat="44.57683" lon="2.04257">
        <ele>211</ele>
        <time>2018-08-04T12:23:40+02:00</time>
      </trkpt>
      <trkpt lat="44.57674" lon="2.04225">
        <ele>211</ele>
        <time>2018-08-04T12:23:46+02:00</time>
      </trkpt>
      <trkpt lat="44.57663" lon="2.04192">
        <ele>210</ele>
        <time>2018-08-04T12:23:52+02:00</time>
      </trkpt>
      <trkpt lat="44.57666" lon="2.04158">
        <ele>208</ele>
        <time>2018-08-04T12:23:58+02:00</time>
      </trkpt>
      <trkpt lat="44.57656" lon="2.04126">
        <ele>214</ele>
        <time>2018-08-04T12:24:06+02:00</time>
      </trkpt>
      <trkpt lat="44.57638" lon="2.04103">
        <ele>219</ele>
        <time>2018-08-04T12:24:14+02:00</time>
      </trkpt>
      <trkpt lat="44.57616" lon="2.04085">
        <ele>214</ele>
        <time>2018-08-04T12:24:20+02:00</time>
      </trkpt>
      <trkpt lat="44.57592" lon="2.04079">
        <ele>218</ele>
        <time>2018-08-04T12:24:25+02:00</time>
      </trkpt>
      <trkpt lat="44.57572" lon="2.04056">
        <ele>219</ele>
        <time>2018-08-04T12:24:32+02:00</time>
      </trkpt>
      <trkpt lat="44.57552" lon="2.04034">
        <ele>219</ele>
        <time>2018-08-04T12:24:38+02:00</time>
      </trkpt>
      <trkpt lat="44.57528" lon="2.04017">
        <ele>224</ele>
        <time>2018-08-04T12:24:43+02:00</time>
      </trkpt>
      <trkpt lat="44.5751" lon="2.03997">
        <ele>223</ele>
        <time>2018-08-04T12:24:48+02:00</time>
      </trkpt>
      <trkpt lat="44.57493" lon="2.03969">
        <ele>220</ele>
        <time>2018-08-04T12:24:54+02:00</time>
      </trkpt>
      <trkpt lat="44.57478" lon="2.03939">
        <ele>220</ele>
        <time>2018-08-04T12:25:00+02:00</time>
      </trkpt>
      <trkpt lat="44.57461" lon="2.03914">
        <ele>221</ele>
        <time>2018-08-04T12:25:05+02:00</time>
      </trkpt>
      <trkpt lat="44.57442" lon="2.0389">
        <ele>221</ele>
        <time>2018-08-04T12:25:11+02:00</time>
      </trkpt>
      <trkpt lat="44.57425" lon="2.03866">
        <ele>221</ele>
        <time>2018-08-04T12:25:17+02:00</time>
      </trkpt>
      <trkpt lat="44.5741" lon="2.03839">
        <ele>222</ele>
        <time>2018-08-04T12:25:24+02:00</time>
      </trkpt>
      <trkpt lat="44.57397" lon="2.03808">
        <ele>222</ele>
        <time>2018-08-04T12:25:32+02:00</time>
      </trkpt>
      <trkpt lat="44.57384" lon="2.03782">
        <ele>223</ele>
        <time>2018-08-04T12:25:40+02:00</time>
      </trkpt>
      <trkpt lat="44.57369" lon="2.03756">
        <ele>220</ele>
        <time>2018-08-04T12:25:48+02:00</time>
      </trkpt>
      <trkpt lat="44.57357" lon="2.03726">
        <ele>220</ele>
        <time>2018-08-04T12:25:57+02:00</time>
      </trkpt>
      <trkpt lat="44.57363" lon="2.03695">
        <ele>220</ele>
        <time>2018-08-04T12:26:06+02:00</time>
      </trkpt>
      <trkpt lat="44.57378" lon="2.03668">
        <ele>222</ele>
        <time>2018-08-04T12:26:15+02:00</time>
      </trkpt>
      <trkpt lat="44.57391" lon="2.0364">
        <ele>222</ele>
        <time>2018-08-04T12:26:27+02:00</time>
      </trkpt>
      <trkpt lat="44.57404" lon="2.03612">
        <ele>233</ele>
        <time>2018-08-04T12:26:42+02:00</time>
      </trkpt>
      <trkpt lat="44.5739" lon="2.03586">
        <ele>257</ele>
        <time>2018-08-04T12:27:04+02:00</time>
      </trkpt>
      <trkpt lat="44.57368" lon="2.03577">
        <ele>264</ele>
        <time>2018-08-04T12:27:19+02:00</time>
      </trkpt>
      <trkpt lat="44.5735" lon="2.03556">
        <ele>260</ele>
        <time>2018-08-04T12:27:32+02:00</time>
      </trkpt>
      <trkpt lat="44.57328" lon="2.03543">
        <ele>264</ele>
        <time>2018-08-04T12:27:44+02:00</time>
      </trkpt>
      <trkpt lat="44.57316" lon="2.03517">
        <ele>264</ele>
        <time>2018-08-04T12:28:01+02:00</time>
      </trkpt>
      <trkpt lat="44.57297" lon="2.03498">
        <ele>251</ele>
        <time>2018-08-04T12:28:16+02:00</time>
      </trkpt>
      <trkpt lat="44.57274" lon="2.03492">
        <ele>249</ele>
        <time>2018-08-04T12:29:07+02:00</time>
      </trkpt>
      <trkpt lat="44.57266" lon="2.03461">
        <ele>252</ele>
        <time>2018-08-04T12:29:35+02:00</time>
      </trkpt>
      <trkpt lat="44.57244" lon="2.03445">
        <ele>245</ele>
        <time>2018-08-04T12:29:42+02:00</time>
      </trkpt>
      <trkpt lat="44.57223" lon="2.03434">
        <ele>257</ele>
        <time>2018-08-04T12:29:50+02:00</time>
      </trkpt>
      <trkpt lat="44.572" lon="2.03422">
        <ele>260</ele>
        <time>2018-08-04T12:29:56+02:00</time>
      </trkpt>
      <trkpt lat="44.57178" lon="2.03408">
        <ele>259</ele>
        <time>2018-08-04T12:30:02+02:00</time>
      </trkpt>
      <trkpt lat="44.57155" lon="2.03392">
        <ele>261</ele>
        <time>2018-08-04T12:30:08+02:00</time>
      </trkpt>
      <trkpt lat="44.57135" lon="2.03376">
        <ele>259</ele>
        <time>2018-08-04T12:30:15+02:00</time>
      </trkpt>
      <trkpt lat="44.57114" lon="2.03351">
        <ele>262</ele>
        <time>2018-08-04T12:30:21+02:00</time>
      </trkpt>
      <trkpt lat="44.57094" lon="2.03333">
        <ele>260</ele>
        <time>2018-08-04T12:30:26+02:00</time>
      </trkpt>
      <trkpt lat="44.57076" lon="2.03299">
        <ele>259</ele>
        <time>2018-08-04T12:30:34+02:00</time>
      </trkpt>
      <trkpt lat="44.57062" lon="2.03273">
        <ele>261</ele>
        <time>2018-08-04T12:30:41+02:00</time>
      </trkpt>
      <trkpt lat="44.57061" lon="2.03239">
        <ele>266</ele>
        <time>2018-08-04T12:30:53+02:00</time>
      </trkpt>
      <trkpt lat="44.57058" lon="2.03207">
        <ele>263</ele>
        <time>2018-08-04T12:31:02+02:00</time>
      </trkpt>
      <trkpt lat="44.57035" lon="2.03206">
        <ele>270</ele>
        <time>2018-08-04T12:31:13+02:00</time>
      </trkpt>
      <trkpt lat="44.57011" lon="2.03207">
        <ele>266</ele>
        <time>2018-08-04T12:31:21+02:00</time>
      </trkpt>
      <trkpt lat="44.56988" lon="2.03217">
        <ele>272</ele>
        <time>2018-08-04T12:31:35+02:00</time>
      </trkpt>
      <trkpt lat="44.56963" lon="2.03213">
        <ele>260</ele>
        <time>2018-08-04T12:31:52+02:00</time>
      </trkpt>
      <trkpt lat="44.5695" lon="2.03187">
        <ele>255</ele>
        <time>2018-08-04T12:32:05+02:00</time>
      </trkpt>
      <trkpt lat="44.56948" lon="2.03154">
        <ele>254</ele>
        <time>2018-08-04T12:32:18+02:00</time>
      </trkpt>
      <trkpt lat="44.56931" lon="2.03128">
        <ele>258</ele>
        <time>2018-08-04T12:32:30+02:00</time>
      </trkpt>
      <trkpt lat="44.56918" lon="2.031">
        <ele>255</ele>
        <time>2018-08-04T12:32:39+02:00</time>
      </trkpt>
      <trkpt lat="44.56906" lon="2.03073">
        <ele>251</ele>
        <time>2018-08-04T12:32:48+02:00</time>
      </trkpt>
      <trkpt lat="44.5689" lon="2.03049">
        <ele>250</ele>
        <time>2018-08-04T12:32:58+02:00</time>
      </trkpt>
      <trkpt lat="44.56878" lon="2.03019">
        <ele>254</ele>
        <time>2018-08-04T12:33:09+02:00</time>
      </trkpt>
      <trkpt lat="44.56861" lon="2.02998">
        <ele>253</ele>
        <time>2018-08-04T12:33:18+02:00</time>
      </trkpt>
      <trkpt lat="44.56847" lon="2.02973">
        <ele>256</ele>
        <time>2018-08-04T12:33:26+02:00</time>
      </trkpt>
      <trkpt lat="44.56834" lon="2.02944">
        <ele>256</ele>
        <time>2018-08-04T12:33:35+02:00</time>
      </trkpt>
      <trkpt lat="44.56824" lon="2.02912">
        <ele>258</ele>
        <time>2018-08-04T12:33:45+02:00</time>
      </trkpt>
      <trkpt lat="44.56814" lon="2.0288">
        <ele>258</ele>
        <time>2018-08-04T12:33:53+02:00</time>
      </trkpt>
      <trkpt lat="44.56801" lon="2.02851">
        <ele>257</ele>
        <time>2018-08-04T12:34:02+02:00</time>
      </trkpt>
      <trkpt lat="44.56788" lon="2.02821">
        <ele>260</ele>
        <time>2018-08-04T12:34:11+02:00</time>
      </trkpt>
      <trkpt lat="44.56784" lon="2.02789">
        <ele>263</ele>
        <time>2018-08-04T12:34:20+02:00</time>
      </trkpt>
      <trkpt lat="44.56764" lon="2.02769">
        <ele>260</ele>
        <time>2018-08-04T12:34:26+02:00</time>
      </trkpt>
      <trkpt lat="44.56757" lon="2.02739">
        <ele>258</ele>
        <time>2018-08-04T12:34:34+02:00</time>
      </trkpt>
      <trkpt lat="44.56746" lon="2.0271">
        <ele>262</ele>
        <time>2018-08-04T12:34:47+02:00</time>
      </trkpt>
      <trkpt lat="44.56726" lon="2.02696">
        <ele>260</ele>
        <time>2018-08-04T12:35:45+02:00</time>
      </trkpt>
      <trkpt lat="44.56703" lon="2.02693">
        <ele>256</ele>
        <time>2018-08-04T12:35:50+02:00</time>
      </trkpt>
      <trkpt lat="44.56677" lon="2.0269">
        <ele>255</ele>
        <time>2018-08-04T12:35:55+02:00</time>
      </trkpt>
      <trkpt lat="44.56653" lon="2.02688">
        <ele>255</ele>
        <time>2018-08-04T12:35:59+02:00</time>
      </trkpt>
      <trkpt lat="44.56625" lon="2.02685">
        <ele>253</ele>
        <time>2018-08-04T12:36:03+02:00</time>
      </trkpt>
      <trkpt lat="44.56602" lon="2.02683">
        <ele>251</ele>
        <time>2018-08-04T12:36:06+02:00</time>
      </trkpt>
      <trkpt lat="44.56578" lon="2.02684">
        <ele>251</ele>
        <time>2018-08-04T12:36:09+02:00</time>
      </trkpt>
      <trkpt lat="44.5655" lon="2.02681">
        <ele>248</ele>
        <time>2018-08-04T12:36:12+02:00</time>
      </trkpt>
      <trkpt lat="44.56524" lon="2.02682">
        <ele>247</ele>
        <time>2018-08-04T12:36:15+02:00</time>
      </trkpt>
      <trkpt lat="44.56498" lon="2.02684">
        <ele>245</ele>
        <time>2018-08-04T12:36:18+02:00</time>
      </trkpt>
      <trkpt lat="44.56469" lon="2.02681">
        <ele>245</ele>
        <time>2018-08-04T12:36:22+02:00</time>
      </trkpt>
      <trkpt lat="44.56439" lon="2.0268">
        <ele>243</ele>
        <time>2018-08-04T12:36:26+02:00</time>
      </trkpt>
      <trkpt lat="44.56415" lon="2.02678">
        <ele>244</ele>
        <time>2018-08-04T12:36:29+02:00</time>
      </trkpt>
      <trkpt lat="44.56392" lon="2.02675">
        <ele>241</ele>
        <time>2018-08-04T12:36:32+02:00</time>
      </trkpt>
      <trkpt lat="44.56364" lon="2.02673">
        <ele>243</ele>
        <time>2018-08-04T12:36:36+02:00</time>
      </trkpt>
      <trkpt lat="44.56337" lon="2.02661">
        <ele>241</ele>
        <time>2018-08-04T12:36:40+02:00</time>
      </trkpt>
      <trkpt lat="44.56312" lon="2.02644">
        <ele>242</ele>
        <time>2018-08-04T12:36:44+02:00</time>
      </trkpt>
      <trkpt lat="44.56294" lon="2.02621">
        <ele>241</ele>
        <time>2018-08-04T12:36:48+02:00</time>
      </trkpt>
      <trkpt lat="44.56276" lon="2.02594">
        <ele>240</ele>
        <time>2018-08-04T12:36:52+02:00</time>
      </trkpt>
      <trkpt lat="44.56262" lon="2.02562">
        <ele>240</ele>
        <time>2018-08-04T12:36:56+02:00</time>
      </trkpt>
      <trkpt lat="44.56248" lon="2.02537">
        <ele>236</ele>
        <time>2018-08-04T12:36:59+02:00</time>
      </trkpt>
      <trkpt lat="44.56223" lon="2.02512">
        <ele>237</ele>
        <time>2018-08-04T12:37:03+02:00</time>
      </trkpt>
      <trkpt lat="44.56201" lon="2.02494">
        <ele>235</ele>
        <time>2018-08-04T12:37:06+02:00</time>
      </trkpt>
      <trkpt lat="44.56179" lon="2.02482">
        <ele>239</ele>
        <time>2018-08-04T12:37:09+02:00</time>
      </trkpt>
      <trkpt lat="44.56155" lon="2.02471">
        <ele>238</ele>
        <time>2018-08-04T12:37:12+02:00</time>
      </trkpt>
      <trkpt lat="44.56134" lon="2.02456">
        <ele>237</ele>
        <time>2018-08-04T12:37:15+02:00</time>
      </trkpt>
      <trkpt lat="44.56114" lon="2.0244">
        <ele>235</ele>
        <time>2018-08-04T12:37:18+02:00</time>
      </trkpt>
      <trkpt lat="44.56082" lon="2.02432">
        <ele>226</ele>
        <time>2018-08-04T12:37:21+02:00</time>
      </trkpt>
      <trkpt lat="44.56054" lon="2.02443">
        <ele>221</ele>
        <time>2018-08-04T12:37:24+02:00</time>
      </trkpt>
      <trkpt lat="44.56024" lon="2.02458">
        <ele>218</ele>
        <time>2018-08-04T12:37:27+02:00</time>
      </trkpt>
      <trkpt lat="44.55991" lon="2.02471">
        <ele>214</ele>
        <time>2018-08-04T12:37:30+02:00</time>
      </trkpt>
      <trkpt lat="44.55969" lon="2.02488">
        <ele>214</ele>
        <time>2018-08-04T12:37:33+02:00</time>
      </trkpt>
      <trkpt lat="44.55948" lon="2.025">
        <ele>215</ele>
        <time>2018-08-04T12:37:36+02:00</time>
      </trkpt>
      <trkpt lat="44.55926" lon="2.02516">
        <ele>214</ele>
        <time>2018-08-04T12:37:39+02:00</time>
      </trkpt>
      <trkpt lat="44.55901" lon="2.0253">
        <ele>214</ele>
        <time>2018-08-04T12:37:42+02:00</time>
      </trkpt>
      <trkpt lat="44.5588" lon="2.02547">
        <ele>213</ele>
        <time>2018-08-04T12:37:45+02:00</time>
      </trkpt>
      <trkpt lat="44.55853" lon="2.02562">
        <ele>211</ele>
        <time>2018-08-04T12:37:49+02:00</time>
      </trkpt>
      <trkpt lat="44.55825" lon="2.02578">
        <ele>208</ele>
        <time>2018-08-04T12:37:53+02:00</time>
      </trkpt>
      <trkpt lat="44.55801" lon="2.02593">
        <ele>209</ele>
        <time>2018-08-04T12:37:58+02:00</time>
      </trkpt>
      <trkpt lat="44.55781" lon="2.02611">
        <ele>213</ele>
        <time>2018-08-04T12:38:09+02:00</time>
      </trkpt>
      <trkpt lat="44.55756" lon="2.0262">
        <ele>217</ele>
        <time>2018-08-04T12:38:17+02:00</time>
      </trkpt>
      <trkpt lat="44.55734" lon="2.02635">
        <ele>219</ele>
        <time>2018-08-04T12:38:24+02:00</time>
      </trkpt>
      <trkpt lat="44.55712" lon="2.0265">
        <ele>217</ele>
        <time>2018-08-04T12:38:56+02:00</time>
      </trkpt>
      <trkpt lat="44.55689" lon="2.0266">
        <ele>220</ele>
        <time>2018-08-04T12:39:06+02:00</time>
      </trkpt>
      <trkpt lat="44.55663" lon="2.0266">
        <ele>224</ele>
        <time>2018-08-04T12:39:16+02:00</time>
      </trkpt>
      <trkpt lat="44.55639" lon="2.02647">
        <ele>227</ele>
        <time>2018-08-04T12:39:26+02:00</time>
      </trkpt>
      <trkpt lat="44.55628" lon="2.02618">
        <ele>225</ele>
        <time>2018-08-04T12:39:37+02:00</time>
      </trkpt>
      <trkpt lat="44.55617" lon="2.02588">
        <ele>227</ele>
        <time>2018-08-04T12:39:45+02:00</time>
      </trkpt>
      <trkpt lat="44.55605" lon="2.02558">
        <ele>223</ele>
        <time>2018-08-04T12:39:51+02:00</time>
      </trkpt>
      <trkpt lat="44.55598" lon="2.02521">
        <ele>222</ele>
        <time>2018-08-04T12:39:57+02:00</time>
      </trkpt>
      <trkpt lat="44.55596" lon="2.02483">
        <ele>218</ele>
        <time>2018-08-04T12:40:02+02:00</time>
      </trkpt>
      <trkpt lat="44.55592" lon="2.0245">
        <ele>217</ele>
        <time>2018-08-04T12:40:08+02:00</time>
      </trkpt>
      <trkpt lat="44.5557" lon="2.02426">
        <ele>219</ele>
        <time>2018-08-04T12:40:14+02:00</time>
      </trkpt>
      <trkpt lat="44.55552" lon="2.02401">
        <ele>220</ele>
        <time>2018-08-04T12:40:20+02:00</time>
      </trkpt>
      <trkpt lat="44.55537" lon="2.02373">
        <ele>219</ele>
        <time>2018-08-04T12:40:25+02:00</time>
      </trkpt>
      <trkpt lat="44.55524" lon="2.02341">
        <ele>223</ele>
        <time>2018-08-04T12:40:31+02:00</time>
      </trkpt>
      <trkpt lat="44.55518" lon="2.0231">
        <ele>223</ele>
        <time>2018-08-04T12:40:35+02:00</time>
      </trkpt>
      <trkpt lat="44.55512" lon="2.02275">
        <ele>215</ele>
        <time>2018-08-04T12:40:40+02:00</time>
      </trkpt>
      <trkpt lat="44.55513" lon="2.02236">
        <ele>217</ele>
        <time>2018-08-04T12:40:45+02:00</time>
      </trkpt>
      <trkpt lat="44.55506" lon="2.02201">
        <ele>217</ele>
        <time>2018-08-04T12:40:50+02:00</time>
      </trkpt>
      <trkpt lat="44.555" lon="2.02168">
        <ele>217</ele>
        <time>2018-08-04T12:40:55+02:00</time>
      </trkpt>
      <trkpt lat="44.55496" lon="2.02135">
        <ele>212</ele>
        <time>2018-08-04T12:41:01+02:00</time>
      </trkpt>
      <trkpt lat="44.5549" lon="2.02103">
        <ele>213</ele>
        <time>2018-08-04T12:41:07+02:00</time>
      </trkpt>
      <trkpt lat="44.55483" lon="2.02072">
        <ele>221</ele>
        <time>2018-08-04T12:41:15+02:00</time>
      </trkpt>
      <trkpt lat="44.55483" lon="2.02038">
        <ele>236</ele>
        <time>2018-08-04T12:41:22+02:00</time>
      </trkpt>
      <trkpt lat="44.55476" lon="2.02007">
        <ele>228</ele>
        <time>2018-08-04T12:41:30+02:00</time>
      </trkpt>
      <trkpt lat="44.55479" lon="2.01974">
        <ele>224</ele>
        <time>2018-08-04T12:41:35+02:00</time>
      </trkpt>
      <trkpt lat="44.55489" lon="2.0194">
        <ele>223</ele>
        <time>2018-08-04T12:41:41+02:00</time>
      </trkpt>
      <trkpt lat="44.55498" lon="2.0191">
        <ele>222</ele>
        <time>2018-08-04T12:41:47+02:00</time>
      </trkpt>
      <trkpt lat="44.55505" lon="2.01876">
        <ele>227</ele>
        <time>2018-08-04T12:41:56+02:00</time>
      </trkpt>
      <trkpt lat="44.55509" lon="2.01843">
        <ele>226</ele>
        <time>2018-08-04T12:42:04+02:00</time>
      </trkpt>
      <trkpt lat="44.5551" lon="2.01808">
        <ele>224</ele>
        <time>2018-08-04T12:42:12+02:00</time>
      </trkpt>
      <trkpt lat="44.55512" lon="2.01774">
        <ele>223</ele>
        <time>2018-08-04T12:42:20+02:00</time>
      </trkpt>
      <trkpt lat="44.55516" lon="2.01741">
        <ele>224</ele>
        <time>2018-08-04T12:42:28+02:00</time>
      </trkpt>
      <trkpt lat="44.55524" lon="2.01711">
        <ele>223</ele>
        <time>2018-08-04T12:42:34+02:00</time>
      </trkpt>
      <trkpt lat="44.55529" lon="2.0168">
        <ele>216</ele>
        <time>2018-08-04T12:42:39+02:00</time>
      </trkpt>
      <trkpt lat="44.55535" lon="2.01645">
        <ele>231</ele>
        <time>2018-08-04T12:42:57+02:00</time>
      </trkpt>
      <trkpt lat="44.55542" lon="2.01612">
        <ele>227</ele>
        <time>2018-08-04T12:43:03+02:00</time>
      </trkpt>
      <trkpt lat="44.55545" lon="2.01579">
        <ele>222</ele>
        <time>2018-08-04T12:43:06+02:00</time>
      </trkpt>
      <trkpt lat="44.55554" lon="2.01543">
        <ele>219</ele>
        <time>2018-08-04T12:43:09+02:00</time>
      </trkpt>
      <trkpt lat="44.5556" lon="2.01509">
        <ele>217</ele>
        <time>2018-08-04T12:43:12+02:00</time>
      </trkpt>
      <trkpt lat="44.55565" lon="2.0147">
        <ele>217</ele>
        <time>2018-08-04T12:43:16+02:00</time>
      </trkpt>
      <trkpt lat="44.55566" lon="2.01433">
        <ele>214</ele>
        <time>2018-08-04T12:43:20+02:00</time>
      </trkpt>
      <trkpt lat="44.55567" lon="2.01399">
        <ele>214</ele>
        <time>2018-08-04T12:43:24+02:00</time>
      </trkpt>
      <trkpt lat="44.55565" lon="2.01364">
        <ele>213</ele>
        <time>2018-08-04T12:43:29+02:00</time>
      </trkpt>
      <trkpt lat="44.55563" lon="2.0133">
        <ele>217</ele>
        <time>2018-08-04T12:43:35+02:00</time>
      </trkpt>
      <trkpt lat="44.55565" lon="2.01291">
        <ele>229</ele>
        <time>2018-08-04T12:43:46+02:00</time>
      </trkpt>
      <trkpt lat="44.55572" lon="2.01252">
        <ele>223</ele>
        <time>2018-08-04T12:43:53+02:00</time>
      </trkpt>
      <trkpt lat="44.55555" lon="2.01232">
        <ele>229</ele>
        <time>2018-08-04T12:44:00+02:00</time>
      </trkpt>
      <trkpt lat="44.55562" lon="2.01201">
        <ele>232</ele>
        <time>2018-08-04T12:44:04+02:00</time>
      </trkpt>
      <trkpt lat="44.55561" lon="2.0116">
        <ele>232</ele>
        <time>2018-08-04T12:44:11+02:00</time>
      </trkpt>
      <trkpt lat="44.55552" lon="2.01124">
        <ele>230</ele>
        <time>2018-08-04T12:44:17+02:00</time>
      </trkpt>
      <trkpt lat="44.55553" lon="2.01092">
        <ele>230</ele>
        <time>2018-08-04T12:44:24+02:00</time>
      </trkpt>
      <trkpt lat="44.55551" lon="2.01059">
        <ele>234</ele>
        <time>2018-08-04T12:44:31+02:00</time>
      </trkpt>
      <trkpt lat="44.55548" lon="2.01024">
        <ele>230</ele>
        <time>2018-08-04T12:44:36+02:00</time>
      </trkpt>
      <trkpt lat="44.55547" lon="2.00989">
        <ele>227</ele>
        <time>2018-08-04T12:44:42+02:00</time>
      </trkpt>
      <trkpt lat="44.55538" lon="2.00955">
        <ele>228</ele>
        <time>2018-08-04T12:44:48+02:00</time>
      </trkpt>
      <trkpt lat="44.55528" lon="2.00924">
        <ele>230</ele>
        <time>2018-08-04T12:44:53+02:00</time>
      </trkpt>
      <trkpt lat="44.55519" lon="2.00894">
        <ele>233</ele>
        <time>2018-08-04T12:45:00+02:00</time>
      </trkpt>
      <trkpt lat="44.55512" lon="2.00858">
        <ele>230</ele>
        <time>2018-08-04T12:45:05+02:00</time>
      </trkpt>
      <trkpt lat="44.55502" lon="2.00826">
        <ele>227</ele>
        <time>2018-08-04T12:45:11+02:00</time>
      </trkpt>
      <trkpt lat="44.5549" lon="2.00792">
        <ele>228</ele>
        <time>2018-08-04T12:45:18+02:00</time>
      </trkpt>
      <trkpt lat="44.55482" lon="2.00761">
        <ele>226</ele>
        <time>2018-08-04T12:45:24+02:00</time>
      </trkpt>
      <trkpt lat="44.55469" lon="2.00733">
        <ele>227</ele>
        <time>2018-08-04T12:45:30+02:00</time>
      </trkpt>
      <trkpt lat="44.55456" lon="2.00703">
        <ele>224</ele>
        <time>2018-08-04T12:45:37+02:00</time>
      </trkpt>
      <trkpt lat="44.55438" lon="2.00679">
        <ele>222</ele>
        <time>2018-08-04T12:45:43+02:00</time>
      </trkpt>
      <trkpt lat="44.55424" lon="2.00654">
        <ele>220</ele>
        <time>2018-08-04T12:45:48+02:00</time>
      </trkpt>
      <trkpt lat="44.55415" lon="2.00624">
        <ele>222</ele>
        <time>2018-08-04T12:45:56+02:00</time>
      </trkpt>
      <trkpt lat="44.55403" lon="2.00593">
        <ele>225</ele>
        <time>2018-08-04T12:46:02+02:00</time>
      </trkpt>
      <trkpt lat="44.55397" lon="2.00558">
        <ele>228</ele>
        <time>2018-08-04T12:46:07+02:00</time>
      </trkpt>
      <trkpt lat="44.5539" lon="2.00521">
        <ele>226</ele>
        <time>2018-08-04T12:46:13+02:00</time>
      </trkpt>
      <trkpt lat="44.55382" lon="2.0049">
        <ele>223</ele>
        <time>2018-08-04T12:46:18+02:00</time>
      </trkpt>
      <trkpt lat="44.55372" lon="2.00457">
        <ele>221</ele>
        <time>2018-08-04T12:46:23+02:00</time>
      </trkpt>
      <trkpt lat="44.55366" lon="2.00423">
        <ele>221</ele>
        <time>2018-08-04T12:46:28+02:00</time>
      </trkpt>
      <trkpt lat="44.55359" lon="2.0039">
        <ele>222</ele>
        <time>2018-08-04T12:46:34+02:00</time>
      </trkpt>
      <trkpt lat="44.55347" lon="2.00361">
        <ele>223</ele>
        <time>2018-08-04T12:46:41+02:00</time>
      </trkpt>
      <trkpt lat="44.55343" lon="2.00329">
        <ele>218</ele>
        <time>2018-08-04T12:46:45+02:00</time>
      </trkpt>
      <trkpt lat="44.55338" lon="2.00296">
        <ele>217</ele>
        <time>2018-08-04T12:46:50+02:00</time>
      </trkpt>
      <trkpt lat="44.55333" lon="2.00264">
        <ele>218</ele>
        <time>2018-08-04T12:46:56+02:00</time>
      </trkpt>
      <trkpt lat="44.55331" lon="2.00232">
        <ele>220</ele>
        <time>2018-08-04T12:47:02+02:00</time>
      </trkpt>
      <trkpt lat="44.55328" lon="2.00198">
        <ele>222</ele>
        <time>2018-08-04T12:47:08+02:00</time>
      </trkpt>
      <trkpt lat="44.55328" lon="2.00165">
        <ele>220</ele>
        <time>2018-08-04T12:47:13+02:00</time>
      </trkpt>
      <trkpt lat="44.55326" lon="2.00128">
        <ele>214</ele>
        <time>2018-08-04T12:47:19+02:00</time>
      </trkpt>
      <trkpt lat="44.55327" lon="2.00094">
        <ele>218</ele>
        <time>2018-08-04T12:47:25+02:00</time>
      </trkpt>
      <trkpt lat="44.55325" lon="2.00062">
        <ele>216</ele>
        <time>2018-08-04T12:47:30+02:00</time>
      </trkpt>
      <trkpt lat="44.55321" lon="2.0003">
        <ele>216</ele>
        <time>2018-08-04T12:47:35+02:00</time>
      </trkpt>
      <trkpt lat="44.55315" lon="1.99997">
        <ele>216</ele>
        <time>2018-08-04T12:47:41+02:00</time>
      </trkpt>
      <trkpt lat="44.55311" lon="1.99965">
        <ele>216</ele>
        <time>2018-08-04T12:47:46+02:00</time>
      </trkpt>
      <trkpt lat="44.55305" lon="1.99934">
        <ele>213</ele>
        <time>2018-08-04T12:47:51+02:00</time>
      </trkpt>
      <trkpt lat="44.55295" lon="1.99903">
        <ele>215</ele>
        <time>2018-08-04T12:47:57+02:00</time>
      </trkpt>
      <trkpt lat="44.55286" lon="1.99871">
        <ele>213</ele>
        <time>2018-08-04T12:48:03+02:00</time>
      </trkpt>
      <trkpt lat="44.55271" lon="1.99841">
        <ele>215</ele>
        <time>2018-08-04T12:48:10+02:00</time>
      </trkpt>
      <trkpt lat="44.55264" lon="1.99809">
        <ele>217</ele>
        <time>2018-08-04T12:48:17+02:00</time>
      </trkpt>
      <trkpt lat="44.55255" lon="1.99774">
        <ele>214</ele>
        <time>2018-08-04T12:48:23+02:00</time>
      </trkpt>
      <trkpt lat="44.55246" lon="1.99744">
        <ele>217</ele>
        <time>2018-08-04T12:48:29+02:00</time>
      </trkpt>
      <trkpt lat="44.55232" lon="1.99716">
        <ele>218</ele>
        <time>2018-08-04T12:48:35+02:00</time>
      </trkpt>
      <trkpt lat="44.5522" lon="1.99686">
        <ele>220</ele>
        <time>2018-08-04T12:48:42+02:00</time>
      </trkpt>
      <trkpt lat="44.55206" lon="1.99657">
        <ele>218</ele>
        <time>2018-08-04T12:48:48+02:00</time>
      </trkpt>
      <trkpt lat="44.5519" lon="1.9963">
        <ele>218</ele>
        <time>2018-08-04T12:48:54+02:00</time>
      </trkpt>
      <trkpt lat="44.55178" lon="1.99602">
        <ele>217</ele>
        <time>2018-08-04T12:49:01+02:00</time>
      </trkpt>
      <trkpt lat="44.55163" lon="1.99572">
        <ele>217</ele>
        <time>2018-08-04T12:49:08+02:00</time>
      </trkpt>
      <trkpt lat="44.55148" lon="1.99547">
        <ele>217</ele>
        <time>2018-08-04T12:49:15+02:00</time>
      </trkpt>
      <trkpt lat="44.55131" lon="1.99521">
        <ele>214</ele>
        <time>2018-08-04T12:49:21+02:00</time>
      </trkpt>
      <trkpt lat="44.55112" lon="1.99502">
        <ele>217</ele>
        <time>2018-08-04T12:49:29+02:00</time>
      </trkpt>
      <trkpt lat="44.55098" lon="1.99471">
        <ele>213</ele>
        <time>2018-08-04T12:49:34+02:00</time>
      </trkpt>
      <trkpt lat="44.5508" lon="1.99447">
        <ele>216</ele>
        <time>2018-08-04T12:49:39+02:00</time>
      </trkpt>
      <trkpt lat="44.55062" lon="1.99419">
        <ele>216</ele>
        <time>2018-08-04T12:49:44+02:00</time>
      </trkpt>
      <trkpt lat="44.55042" lon="1.99395">
        <ele>210</ele>
        <time>2018-08-04T12:49:49+02:00</time>
      </trkpt>
      <trkpt lat="44.55026" lon="1.9937">
        <ele>213</ele>
        <time>2018-08-04T12:49:55+02:00</time>
      </trkpt>
      <trkpt lat="44.55009" lon="1.99342">
        <ele>211</ele>
        <time>2018-08-04T12:50:00+02:00</time>
      </trkpt>
      <trkpt lat="44.54996" lon="1.99316">
        <ele>211</ele>
        <time>2018-08-04T12:50:05+02:00</time>
      </trkpt>
      <trkpt lat="44.5498" lon="1.99285">
        <ele>214</ele>
        <time>2018-08-04T12:50:11+02:00</time>
      </trkpt>
      <trkpt lat="44.54963" lon="1.99258">
        <ele>215</ele>
        <time>2018-08-04T12:50:17+02:00</time>
      </trkpt>
      <trkpt lat="44.54946" lon="1.99229">
        <ele>214</ele>
        <time>2018-08-04T12:50:24+02:00</time>
      </trkpt>
      <trkpt lat="44.54928" lon="1.99205">
        <ele>222</ele>
        <time>2018-08-04T12:50:32+02:00</time>
      </trkpt>
      <trkpt lat="44.54905" lon="1.99189">
        <ele>219</ele>
        <time>2018-08-04T12:50:40+02:00</time>
      </trkpt>
      <trkpt lat="44.54882" lon="1.99167">
        <ele>219</ele>
        <time>2018-08-04T12:50:47+02:00</time>
      </trkpt>
      <trkpt lat="44.54861" lon="1.99151">
        <ele>218</ele>
        <time>2018-08-04T12:50:54+02:00</time>
      </trkpt>
      <trkpt lat="44.54842" lon="1.99124">
        <ele>220</ele>
        <time>2018-08-04T12:51:00+02:00</time>
      </trkpt>
      <trkpt lat="44.54827" lon="1.99095">
        <ele>221</ele>
        <time>2018-08-04T12:51:06+02:00</time>
      </trkpt>
      <trkpt lat="44.54813" lon="1.99065">
        <ele>218</ele>
        <time>2018-08-04T12:51:11+02:00</time>
      </trkpt>
      <trkpt lat="44.54792" lon="1.99042">
        <ele>218</ele>
        <time>2018-08-04T12:51:17+02:00</time>
      </trkpt>
      <trkpt lat="44.54775" lon="1.9902">
        <ele>216</ele>
        <time>2018-08-04T12:51:22+02:00</time>
      </trkpt>
      <trkpt lat="44.54759" lon="1.98994">
        <ele>213</ele>
        <time>2018-08-04T12:51:27+02:00</time>
      </trkpt>
      <trkpt lat="44.54737" lon="1.98976">
        <ele>212</ele>
        <time>2018-08-04T12:51:33+02:00</time>
      </trkpt>
      <trkpt lat="44.54717" lon="1.98958">
        <ele>212</ele>
        <time>2018-08-04T12:51:38+02:00</time>
      </trkpt>
      <trkpt lat="44.54699" lon="1.98929">
        <ele>212</ele>
        <time>2018-08-04T12:51:44+02:00</time>
      </trkpt>
      <trkpt lat="44.54685" lon="1.98904">
        <ele>207</ele>
        <time>2018-08-04T12:51:49+02:00</time>
      </trkpt>
      <trkpt lat="44.54668" lon="1.98881">
        <ele>206</ele>
        <time>2018-08-04T12:51:54+02:00</time>
      </trkpt>
      <trkpt lat="44.54649" lon="1.9886">
        <ele>205</ele>
        <time>2018-08-04T12:51:59+02:00</time>
      </trkpt>
      <trkpt lat="44.54628" lon="1.98842">
        <ele>207</ele>
        <time>2018-08-04T12:52:04+02:00</time>
      </trkpt>
      <trkpt lat="44.54604" lon="1.98833">
        <ele>208</ele>
        <time>2018-08-04T12:52:09+02:00</time>
      </trkpt>
      <trkpt lat="44.54582" lon="1.98826">
        <ele>210</ele>
        <time>2018-08-04T12:52:14+02:00</time>
      </trkpt>
      <trkpt lat="44.54559" lon="1.98819">
        <ele>209</ele>
        <time>2018-08-04T12:52:19+02:00</time>
      </trkpt>
      <trkpt lat="44.54535" lon="1.98811">
        <ele>208</ele>
        <time>2018-08-04T12:52:25+02:00</time>
      </trkpt>
      <trkpt lat="44.54508" lon="1.98804">
        <ele>207</ele>
        <time>2018-08-04T12:52:32+02:00</time>
      </trkpt>
      <trkpt lat="44.54485" lon="1.98796">
        <ele>207</ele>
        <time>2018-08-04T12:52:37+02:00</time>
      </trkpt>
      <trkpt lat="44.54462" lon="1.98785">
        <ele>208</ele>
        <time>2018-08-04T12:52:42+02:00</time>
      </trkpt>
      <trkpt lat="44.54437" lon="1.98773">
        <ele>209</ele>
        <time>2018-08-04T12:52:47+02:00</time>
      </trkpt>
      <trkpt lat="44.54415" lon="1.98757">
        <ele>210</ele>
        <time>2018-08-04T12:52:52+02:00</time>
      </trkpt>
      <trkpt lat="44.54393" lon="1.98739">
        <ele>207</ele>
        <time>2018-08-04T12:52:58+02:00</time>
      </trkpt>
      <trkpt lat="44.54372" lon="1.98722">
        <ele>207</ele>
        <time>2018-08-04T12:53:03+02:00</time>
      </trkpt>
      <trkpt lat="44.54352" lon="1.98699">
        <ele>206</ele>
        <time>2018-08-04T12:53:09+02:00</time>
      </trkpt>
      <trkpt lat="44.54337" lon="1.98672">
        <ele>205</ele>
        <time>2018-08-04T12:53:15+02:00</time>
      </trkpt>
      <trkpt lat="44.54322" lon="1.98648">
        <ele>205</ele>
        <time>2018-08-04T12:53:20+02:00</time>
      </trkpt>
      <trkpt lat="44.54304" lon="1.98626">
        <ele>206</ele>
        <time>2018-08-04T12:53:25+02:00</time>
      </trkpt>
      <trkpt lat="44.54278" lon="1.98606">
        <ele>206</ele>
        <time>2018-08-04T12:53:30+02:00</time>
      </trkpt>
      <trkpt lat="44.54258" lon="1.98589">
        <ele>202</ele>
        <time>2018-08-04T12:53:35+02:00</time>
      </trkpt>
      <trkpt lat="44.54241" lon="1.98562">
        <ele>203</ele>
        <time>2018-08-04T12:53:40+02:00</time>
      </trkpt>
      <trkpt lat="44.54227" lon="1.9853">
        <ele>204</ele>
        <time>2018-08-04T12:53:46+02:00</time>
      </trkpt>
      <trkpt lat="44.54217" lon="1.98502">
        <ele>207</ele>
        <time>2018-08-04T12:53:51+02:00</time>
      </trkpt>
      <trkpt lat="44.54205" lon="1.98468">
        <ele>206</ele>
        <time>2018-08-04T12:53:57+02:00</time>
      </trkpt>
      <trkpt lat="44.54194" lon="1.98436">
        <ele>209</ele>
        <time>2018-08-04T12:54:02+02:00</time>
      </trkpt>
      <trkpt lat="44.54187" lon="1.98405">
        <ele>212</ele>
        <time>2018-08-04T12:54:07+02:00</time>
      </trkpt>
      <trkpt lat="44.54183" lon="1.98372">
        <ele>214</ele>
        <time>2018-08-04T12:54:13+02:00</time>
      </trkpt>
      <trkpt lat="44.54179" lon="1.98339">
        <ele>216</ele>
        <time>2018-08-04T12:54:17+02:00</time>
      </trkpt>
      <trkpt lat="44.54172" lon="1.98304">
        <ele>218</ele>
        <time>2018-08-04T12:54:23+02:00</time>
      </trkpt>
      <trkpt lat="44.54154" lon="1.98285">
        <ele>211</ele>
        <time>2018-08-04T12:54:28+02:00</time>
      </trkpt>
      <trkpt lat="44.54145" lon="1.98256">
        <ele>213</ele>
        <time>2018-08-04T12:54:32+02:00</time>
      </trkpt>
      <trkpt lat="44.5413" lon="1.98232">
        <ele>215</ele>
        <time>2018-08-04T12:54:37+02:00</time>
      </trkpt>
      <trkpt lat="44.5411" lon="1.98206">
        <ele>215</ele>
        <time>2018-08-04T12:54:43+02:00</time>
      </trkpt>
      <trkpt lat="44.5409" lon="1.98184">
        <ele>213</ele>
        <time>2018-08-04T12:54:49+02:00</time>
      </trkpt>
      <trkpt lat="44.54069" lon="1.98168">
        <ele>213</ele>
        <time>2018-08-04T12:54:55+02:00</time>
      </trkpt>
      <trkpt lat="44.54047" lon="1.98153">
        <ele>214</ele>
        <time>2018-08-04T12:55:01+02:00</time>
      </trkpt>
      <trkpt lat="44.54024" lon="1.98153">
        <ele>214</ele>
        <time>2018-08-04T12:55:07+02:00</time>
      </trkpt>
      <trkpt lat="44.54004" lon="1.98137">
        <ele>212</ele>
        <time>2018-08-04T12:55:14+02:00</time>
      </trkpt>
      <trkpt lat="44.53998" lon="1.98106">
        <ele>215</ele>
        <time>2018-08-04T12:55:20+02:00</time>
      </trkpt>
      <trkpt lat="44.53992" lon="1.98075">
        <ele>211</ele>
        <time>2018-08-04T12:55:25+02:00</time>
      </trkpt>
      <trkpt lat="44.53987" lon="1.98043">
        <ele>210</ele>
        <time>2018-08-04T12:55:30+02:00</time>
      </trkpt>
      <trkpt lat="44.53978" lon="1.98014">
        <ele>212</ele>
        <time>2018-08-04T12:55:35+02:00</time>
      </trkpt>
      <trkpt lat="44.53966" lon="1.97983">
        <ele>211</ele>
        <time>2018-08-04T12:55:40+02:00</time>
      </trkpt>
      <trkpt lat="44.53946" lon="1.9796">
        <ele>210</ele>
        <time>2018-08-04T12:55:45+02:00</time>
      </trkpt>
      <trkpt lat="44.53925" lon="1.97941">
        <ele>210</ele>
        <time>2018-08-04T12:55:50+02:00</time>
      </trkpt>
      <trkpt lat="44.53903" lon="1.97927">
        <ele>212</ele>
        <time>2018-08-04T12:55:55+02:00</time>
      </trkpt>
      <trkpt lat="44.53881" lon="1.97912">
        <ele>214</ele>
        <time>2018-08-04T12:56:01+02:00</time>
      </trkpt>
      <trkpt lat="44.53861" lon="1.97896">
        <ele>220</ele>
        <time>2018-08-04T12:56:08+02:00</time>
      </trkpt>
      <trkpt lat="44.53838" lon="1.97882">
        <ele>219</ele>
        <time>2018-08-04T12:56:14+02:00</time>
      </trkpt>
      <trkpt lat="44.53815" lon="1.97862">
        <ele>218</ele>
        <time>2018-08-04T12:56:20+02:00</time>
      </trkpt>
      <trkpt lat="44.53792" lon="1.97847">
        <ele>217</ele>
        <time>2018-08-04T12:56:25+02:00</time>
      </trkpt>
      <trkpt lat="44.5377" lon="1.97832">
        <ele>217</ele>
        <time>2018-08-04T12:56:30+02:00</time>
      </trkpt>
      <trkpt lat="44.5375" lon="1.97815">
        <ele>217</ele>
        <time>2018-08-04T12:56:35+02:00</time>
      </trkpt>
      <trkpt lat="44.53727" lon="1.97795">
        <ele>214</ele>
        <time>2018-08-04T12:56:40+02:00</time>
      </trkpt>
      <trkpt lat="44.53709" lon="1.97769">
        <ele>214</ele>
        <time>2018-08-04T12:56:46+02:00</time>
      </trkpt>
      <trkpt lat="44.53694" lon="1.97744">
        <ele>212</ele>
        <time>2018-08-04T12:56:51+02:00</time>
      </trkpt>
      <trkpt lat="44.53676" lon="1.97717">
        <ele>212</ele>
        <time>2018-08-04T12:56:57+02:00</time>
      </trkpt>
      <trkpt lat="44.53657" lon="1.97691">
        <ele>209</ele>
        <time>2018-08-04T12:57:02+02:00</time>
      </trkpt>
      <trkpt lat="44.53642" lon="1.97665">
        <ele>206</ele>
        <time>2018-08-04T12:57:07+02:00</time>
      </trkpt>
      <trkpt lat="44.53621" lon="1.97646">
        <ele>203</ele>
        <time>2018-08-04T12:57:12+02:00</time>
      </trkpt>
      <trkpt lat="44.53601" lon="1.97625">
        <ele>205</ele>
        <time>2018-08-04T12:57:17+02:00</time>
      </trkpt>
      <trkpt lat="44.53579" lon="1.97609">
        <ele>205</ele>
        <time>2018-08-04T12:57:22+02:00</time>
      </trkpt>
      <trkpt lat="44.53558" lon="1.97596">
        <ele>206</ele>
        <time>2018-08-04T12:57:27+02:00</time>
      </trkpt>
      <trkpt lat="44.53536" lon="1.97585">
        <ele>206</ele>
        <time>2018-08-04T12:57:32+02:00</time>
      </trkpt>
      <trkpt lat="44.53513" lon="1.97572">
        <ele>206</ele>
        <time>2018-08-04T12:57:39+02:00</time>
      </trkpt>
      <trkpt lat="44.53488" lon="1.9757">
        <ele>205</ele>
        <time>2018-08-04T12:57:45+02:00</time>
      </trkpt>
      <trkpt lat="44.53462" lon="1.97567">
        <ele>207</ele>
        <time>2018-08-04T12:57:53+02:00</time>
      </trkpt>
      <trkpt lat="44.5344" lon="1.97558">
        <ele>206</ele>
        <time>2018-08-04T12:57:59+02:00</time>
      </trkpt>
      <trkpt lat="44.53417" lon="1.97547">
        <ele>207</ele>
        <time>2018-08-04T12:58:06+02:00</time>
      </trkpt>
      <trkpt lat="44.53394" lon="1.97532">
        <ele>209</ele>
        <time>2018-08-04T12:58:14+02:00</time>
      </trkpt>
      <trkpt lat="44.5337" lon="1.97521">
        <ele>211</ele>
        <time>2018-08-04T12:58:21+02:00</time>
      </trkpt>
      <trkpt lat="44.53345" lon="1.97516">
        <ele>211</ele>
        <time>2018-08-04T12:58:28+02:00</time>
      </trkpt>
      <trkpt lat="44.53322" lon="1.97512">
        <ele>211</ele>
        <time>2018-08-04T12:58:33+02:00</time>
      </trkpt>
      <trkpt lat="44.53298" lon="1.97508">
        <ele>210</ele>
        <time>2018-08-04T12:58:38+02:00</time>
      </trkpt>
      <trkpt lat="44.53276" lon="1.9751">
        <ele>208</ele>
        <time>2018-08-04T12:58:42+02:00</time>
      </trkpt>
      <trkpt lat="44.53247" lon="1.97502">
        <ele>209</ele>
        <time>2018-08-04T12:58:47+02:00</time>
      </trkpt>
      <trkpt lat="44.53226" lon="1.9749">
        <ele>209</ele>
        <time>2018-08-04T12:58:51+02:00</time>
      </trkpt>
      <trkpt lat="44.53205" lon="1.97477">
        <ele>211</ele>
        <time>2018-08-04T12:58:55+02:00</time>
      </trkpt>
      <trkpt lat="44.53182" lon="1.97459">
        <ele>214</ele>
        <time>2018-08-04T12:58:59+02:00</time>
      </trkpt>
      <trkpt lat="44.53158" lon="1.97442">
        <ele>215</ele>
        <time>2018-08-04T12:59:03+02:00</time>
      </trkpt>
      <trkpt lat="44.53137" lon="1.97423">
        <ele>213</ele>
        <time>2018-08-04T12:59:07+02:00</time>
      </trkpt>
      <trkpt lat="44.53112" lon="1.97406">
        <ele>214</ele>
        <time>2018-08-04T12:59:11+02:00</time>
      </trkpt>
      <trkpt lat="44.53089" lon="1.9739">
        <ele>216</ele>
        <time>2018-08-04T12:59:15+02:00</time>
      </trkpt>
      <trkpt lat="44.53067" lon="1.97377">
        <ele>215</ele>
        <time>2018-08-04T12:59:19+02:00</time>
      </trkpt>
      <trkpt lat="44.53044" lon="1.97364">
        <ele>214</ele>
        <time>2018-08-04T12:59:24+02:00</time>
      </trkpt>
      <trkpt lat="44.53022" lon="1.97355">
        <ele>212</ele>
        <time>2018-08-04T13:00:26+02:00</time>
      </trkpt>
      <trkpt lat="44.53" lon="1.97361">
        <ele>213</ele>
        <time>2018-08-04T13:02:18+02:00</time>
      </trkpt>
      <trkpt lat="44.52975" lon="1.97362">
        <ele>214</ele>
        <time>2018-08-04T13:02:27+02:00</time>
      </trkpt>
      <trkpt lat="44.52956" lon="1.97344">
        <ele>214</ele>
        <time>2018-08-04T13:02:35+02:00</time>
      </trkpt>
      <trkpt lat="44.52935" lon="1.97326">
        <ele>216</ele>
        <time>2018-08-04T13:02:43+02:00</time>
      </trkpt>
      <trkpt lat="44.52908" lon="1.97314">
        <ele>213</ele>
        <time>2018-08-04T13:02:49+02:00</time>
      </trkpt>
      <trkpt lat="44.52886" lon="1.97294">
        <ele>211</ele>
        <time>2018-08-04T13:02:54+02:00</time>
      </trkpt>
      <trkpt lat="44.52865" lon="1.97283">
        <ele>209</ele>
        <time>2018-08-04T13:02:58+02:00</time>
      </trkpt>
      <trkpt lat="44.52838" lon="1.97286">
        <ele>210</ele>
        <time>2018-08-04T13:03:02+02:00</time>
      </trkpt>
      <trkpt lat="44.52811" lon="1.97288">
        <ele>208</ele>
        <time>2018-08-04T13:03:07+02:00</time>
      </trkpt>
      <trkpt lat="44.52788" lon="1.97301">
        <ele>210</ele>
        <time>2018-08-04T13:03:14+02:00</time>
      </trkpt>
      <trkpt lat="44.52764" lon="1.97295">
        <ele>212</ele>
        <time>2018-08-04T13:03:20+02:00</time>
      </trkpt>
      <trkpt lat="44.52746" lon="1.97274">
        <ele>212</ele>
        <time>2018-08-04T13:03:27+02:00</time>
      </trkpt>
      <trkpt lat="44.52729" lon="1.97251">
        <ele>212</ele>
        <time>2018-08-04T13:03:34+02:00</time>
      </trkpt>
      <trkpt lat="44.52707" lon="1.97235">
        <ele>213</ele>
        <time>2018-08-04T13:03:41+02:00</time>
      </trkpt>
      <trkpt lat="44.52683" lon="1.9723">
        <ele>210</ele>
        <time>2018-08-04T13:03:47+02:00</time>
      </trkpt>
      <trkpt lat="44.52659" lon="1.9723">
        <ele>213</ele>
        <time>2018-08-04T13:03:55+02:00</time>
      </trkpt>
      <trkpt lat="44.52635" lon="1.9723">
        <ele>217</ele>
        <time>2018-08-04T13:04:02+02:00</time>
      </trkpt>
      <trkpt lat="44.52611" lon="1.97239">
        <ele>221</ele>
        <time>2018-08-04T13:04:10+02:00</time>
      </trkpt>
      <trkpt lat="44.52583" lon="1.97242">
        <ele>225</ele>
        <time>2018-08-04T13:04:18+02:00</time>
      </trkpt>
      <trkpt lat="44.52559" lon="1.97249">
        <ele>226</ele>
        <time>2018-08-04T13:04:27+02:00</time>
      </trkpt>
      <trkpt lat="44.52535" lon="1.97251">
        <ele>222</ele>
        <time>2018-08-04T13:04:34+02:00</time>
      </trkpt>
      <trkpt lat="44.52513" lon="1.97234">
        <ele>220</ele>
        <time>2018-08-04T13:04:44+02:00</time>
      </trkpt>
      <trkpt lat="44.52497" lon="1.97211">
        <ele>218</ele>
        <time>2018-08-04T13:04:51+02:00</time>
      </trkpt>
      <trkpt lat="44.52479" lon="1.97188">
        <ele>220</ele>
        <time>2018-08-04T13:04:58+02:00</time>
      </trkpt>
      <trkpt lat="44.5246" lon="1.9717">
        <ele>217</ele>
        <time>2018-08-04T13:05:04+02:00</time>
      </trkpt>
      <trkpt lat="44.52444" lon="1.97143">
        <ele>218</ele>
        <time>2018-08-04T13:05:12+02:00</time>
      </trkpt>
      <trkpt lat="44.52438" lon="1.97108">
        <ele>215</ele>
        <time>2018-08-04T13:05:19+02:00</time>
      </trkpt>
      <trkpt lat="44.52431" lon="1.97073">
        <ele>212</ele>
        <time>2018-08-04T13:05:25+02:00</time>
      </trkpt>
      <trkpt lat="44.52425" lon="1.97042">
        <ele>213</ele>
        <time>2018-08-04T13:05:33+02:00</time>
      </trkpt>
      <trkpt lat="44.5242" lon="1.97009">
        <ele>213</ele>
        <time>2018-08-04T13:06:08+02:00</time>
      </trkpt>
      <trkpt lat="44.52414" lon="1.96976">
        <ele>211</ele>
        <time>2018-08-04T13:06:14+02:00</time>
      </trkpt>
      <trkpt lat="44.52407" lon="1.96943">
        <ele>212</ele>
        <time>2018-08-04T13:06:21+02:00</time>
      </trkpt>
      <trkpt lat="44.524" lon="1.9691">
        <ele>213</ele>
        <time>2018-08-04T13:06:27+02:00</time>
      </trkpt>
      <trkpt lat="44.52389" lon="1.9688">
        <ele>211</ele>
        <time>2018-08-04T13:06:33+02:00</time>
      </trkpt>
      <trkpt lat="44.52377" lon="1.96848">
        <ele>211</ele>
        <time>2018-08-04T13:06:39+02:00</time>
      </trkpt>
      <trkpt lat="44.52363" lon="1.9682">
        <ele>211</ele>
        <time>2018-08-04T13:06:44+02:00</time>
      </trkpt>
      <trkpt lat="44.52346" lon="1.96796">
        <ele>210</ele>
        <time>2018-08-04T13:06:49+02:00</time>
      </trkpt>
      <trkpt lat="44.52328" lon="1.96772">
        <ele>210</ele>
        <time>2018-08-04T13:06:54+02:00</time>
      </trkpt>
      <trkpt lat="44.52306" lon="1.9675">
        <ele>209</ele>
        <time>2018-08-04T13:06:58+02:00</time>
      </trkpt>
      <trkpt lat="44.52287" lon="1.96728">
        <ele>209</ele>
        <time>2018-08-04T13:07:02+02:00</time>
      </trkpt>
      <trkpt lat="44.52267" lon="1.96704">
        <ele>211</ele>
        <time>2018-08-04T13:07:07+02:00</time>
      </trkpt>
      <trkpt lat="44.52248" lon="1.96683">
        <ele>210</ele>
        <time>2018-08-04T13:07:13+02:00</time>
      </trkpt>
      <trkpt lat="44.52233" lon="1.9666">
        <ele>213</ele>
        <time>2018-08-04T13:07:19+02:00</time>
      </trkpt>
      <trkpt lat="44.52214" lon="1.96636">
        <ele>215</ele>
        <time>2018-08-04T13:07:26+02:00</time>
      </trkpt>
      <trkpt lat="44.52198" lon="1.9661">
        <ele>216</ele>
        <time>2018-08-04T13:07:32+02:00</time>
      </trkpt>
      <trkpt lat="44.52182" lon="1.96585">
        <ele>215</ele>
        <time>2018-08-04T13:07:38+02:00</time>
      </trkpt>
      <trkpt lat="44.52165" lon="1.96557">
        <ele>213</ele>
        <time>2018-08-04T13:07:45+02:00</time>
      </trkpt>
      <trkpt lat="44.52147" lon="1.96534">
        <ele>211</ele>
        <time>2018-08-04T13:07:51+02:00</time>
      </trkpt>
      <trkpt lat="44.52136" lon="1.96502">
        <ele>212</ele>
        <time>2018-08-04T13:07:58+02:00</time>
      </trkpt>
      <trkpt lat="44.52129" lon="1.96472">
        <ele>213</ele>
        <time>2018-08-04T13:08:04+02:00</time>
      </trkpt>
      <trkpt lat="44.52122" lon="1.96438">
        <ele>214</ele>
        <time>2018-08-04T13:08:12+02:00</time>
      </trkpt>
      <trkpt lat="44.52113" lon="1.96403">
        <ele>214</ele>
        <time>2018-08-04T13:08:19+02:00</time>
      </trkpt>
      <trkpt lat="44.521" lon="1.96375">
        <ele>217</ele>
        <time>2018-08-04T13:08:25+02:00</time>
      </trkpt>
      <trkpt lat="44.52085" lon="1.96348">
        <ele>213</ele>
        <time>2018-08-04T13:08:31+02:00</time>
      </trkpt>
      <trkpt lat="44.52071" lon="1.96322">
        <ele>215</ele>
        <time>2018-08-04T13:08:38+02:00</time>
      </trkpt>
      <trkpt lat="44.52055" lon="1.96294">
        <ele>211</ele>
        <time>2018-08-04T13:08:45+02:00</time>
      </trkpt>
      <trkpt lat="44.52042" lon="1.96265">
        <ele>216</ele>
        <time>2018-08-04T13:08:53+02:00</time>
      </trkpt>
      <trkpt lat="44.52023" lon="1.9624">
        <ele>217</ele>
        <time>2018-08-04T13:08:59+02:00</time>
      </trkpt>
      <trkpt lat="44.5201" lon="1.96209">
        <ele>221</ele>
        <time>2018-08-04T13:09:06+02:00</time>
      </trkpt>
      <trkpt lat="44.52002" lon="1.96179">
        <ele>223</ele>
        <time>2018-08-04T13:09:12+02:00</time>
      </trkpt>
      <trkpt lat="44.51987" lon="1.96152">
        <ele>223</ele>
        <time>2018-08-04T13:09:17+02:00</time>
      </trkpt>
      <trkpt lat="44.51973" lon="1.96123">
        <ele>221</ele>
        <time>2018-08-04T13:09:23+02:00</time>
      </trkpt>
      <trkpt lat="44.51959" lon="1.96098">
        <ele>218</ele>
        <time>2018-08-04T13:09:28+02:00</time>
      </trkpt>
      <trkpt lat="44.51943" lon="1.96067">
        <ele>218</ele>
        <time>2018-08-04T13:09:34+02:00</time>
      </trkpt>
      <trkpt lat="44.51929" lon="1.96039">
        <ele>216</ele>
        <time>2018-08-04T13:09:39+02:00</time>
      </trkpt>
      <trkpt lat="44.51914" lon="1.96012">
        <ele>217</ele>
        <time>2018-08-04T13:09:45+02:00</time>
      </trkpt>
      <trkpt lat="44.51903" lon="1.95983">
        <ele>216</ele>
        <time>2018-08-04T13:09:51+02:00</time>
      </trkpt>
      <trkpt lat="44.51887" lon="1.95953">
        <ele>215</ele>
        <time>2018-08-04T13:09:57+02:00</time>
      </trkpt>
      <trkpt lat="44.51873" lon="1.95922">
        <ele>222</ele>
        <time>2018-08-04T13:10:03+02:00</time>
      </trkpt>
      <trkpt lat="44.51863" lon="1.95892">
        <ele>222</ele>
        <time>2018-08-04T13:10:09+02:00</time>
      </trkpt>
      <trkpt lat="44.51855" lon="1.95862">
        <ele>217</ele>
        <time>2018-08-04T13:10:16+02:00</time>
      </trkpt>
      <trkpt lat="44.51871" lon="1.95839">
        <ele>220</ele>
        <time>2018-08-04T13:10:54+02:00</time>
      </trkpt>
      <trkpt lat="44.51897" lon="1.9584">
        <ele>228</ele>
        <time>2018-08-04T13:11:01+02:00</time>
      </trkpt>
      <trkpt lat="44.51918" lon="1.95822">
        <ele>231</ele>
        <time>2018-08-04T13:11:08+02:00</time>
      </trkpt>
      <trkpt lat="44.51939" lon="1.95804">
        <ele>229</ele>
        <time>2018-08-04T13:11:15+02:00</time>
      </trkpt>
      <trkpt lat="44.51961" lon="1.95791">
        <ele>226</ele>
        <time>2018-08-04T13:11:23+02:00</time>
      </trkpt>
      <trkpt lat="44.51986" lon="1.95776">
        <ele>223</ele>
        <time>2018-08-04T13:11:31+02:00</time>
      </trkpt>
      <trkpt lat="44.52003" lon="1.95753">
        <ele>218</ele>
        <time>2018-08-04T13:11:36+02:00</time>
      </trkpt>
      <trkpt lat="44.52021" lon="1.95728">
        <ele>214</ele>
        <time>2018-08-04T13:11:41+02:00</time>
      </trkpt>
      <trkpt lat="44.52034" lon="1.95702">
        <ele>213</ele>
        <time>2018-08-04T13:11:46+02:00</time>
      </trkpt>
      <trkpt lat="44.52049" lon="1.95675">
        <ele>211</ele>
        <time>2018-08-04T13:12:06+02:00</time>
      </trkpt>
      <trkpt lat="44.52036" lon="1.95704">
        <ele>206</ele>
        <time>2018-08-04T13:12:18+02:00</time>
      </trkpt>
      <trkpt lat="44.52019" lon="1.9573">
        <ele>205</ele>
        <time>2018-08-04T13:12:26+02:00</time>
      </trkpt>
      <trkpt lat="44.52012" lon="1.9576">
        <ele>207</ele>
        <time>2018-08-04T13:12:34+02:00</time>
      </trkpt>
      <trkpt lat="44.52007" lon="1.95791">
        <ele>204</ele>
        <time>2018-08-04T13:12:43+02:00</time>
      </trkpt>
      <trkpt lat="44.52018" lon="1.95816">
        <ele>196</ele>
        <time>2018-08-04T15:07:13+02:00</time>
      </trkpt>
      <trkpt lat="44.52021" lon="1.95784">
        <ele>203</ele>
        <time>2018-08-04T15:08:31+02:00</time>
      </trkpt>
      <trkpt lat="44.52026" lon="1.95751">
        <ele>206</ele>
        <time>2018-08-04T15:08:41+02:00</time>
      </trkpt>
      <trkpt lat="44.52037" lon="1.95718">
        <ele>209</ele>
        <time>2018-08-04T15:08:52+02:00</time>
      </trkpt>
      <trkpt lat="44.5205" lon="1.95689">
        <ele>210</ele>
        <time>2018-08-04T15:09:01+02:00</time>
      </trkpt>
      <trkpt lat="44.52059" lon="1.95659">
        <ele>207</ele>
        <time>2018-08-04T15:09:11+02:00</time>
      </trkpt>
      <trkpt lat="44.52072" lon="1.95632">
        <ele>210</ele>
        <time>2018-08-04T15:09:19+02:00</time>
      </trkpt>
      <trkpt lat="44.52087" lon="1.95604">
        <ele>210</ele>
        <time>2018-08-04T15:09:26+02:00</time>
      </trkpt>
      <trkpt lat="44.52102" lon="1.9558">
        <ele>209</ele>
        <time>2018-08-04T15:09:33+02:00</time>
      </trkpt>
      <trkpt lat="44.52118" lon="1.95554">
        <ele>211</ele>
        <time>2018-08-04T15:09:41+02:00</time>
      </trkpt>
      <trkpt lat="44.52133" lon="1.95528">
        <ele>212</ele>
        <time>2018-08-04T15:09:47+02:00</time>
      </trkpt>
      <trkpt lat="44.52147" lon="1.95499">
        <ele>210</ele>
        <time>2018-08-04T15:09:54+02:00</time>
      </trkpt>
      <trkpt lat="44.52159" lon="1.95471">
        <ele>211</ele>
        <time>2018-08-04T15:10:01+02:00</time>
      </trkpt>
      <trkpt lat="44.52171" lon="1.9544">
        <ele>209</ele>
        <time>2018-08-04T15:10:07+02:00</time>
      </trkpt>
      <trkpt lat="44.52183" lon="1.95411">
        <ele>208</ele>
        <time>2018-08-04T15:10:13+02:00</time>
      </trkpt>
      <trkpt lat="44.52198" lon="1.95384">
        <ele>209</ele>
        <time>2018-08-04T15:10:19+02:00</time>
      </trkpt>
      <trkpt lat="44.52213" lon="1.95357">
        <ele>207</ele>
        <time>2018-08-04T15:10:26+02:00</time>
      </trkpt>
      <trkpt lat="44.52229" lon="1.95326">
        <ele>205</ele>
        <time>2018-08-04T15:10:33+02:00</time>
      </trkpt>
      <trkpt lat="44.52243" lon="1.95299">
        <ele>207</ele>
        <time>2018-08-04T15:10:40+02:00</time>
      </trkpt>
      <trkpt lat="44.52259" lon="1.95272">
        <ele>209</ele>
        <time>2018-08-04T15:10:47+02:00</time>
      </trkpt>
      <trkpt lat="44.52273" lon="1.95245">
        <ele>207</ele>
        <time>2018-08-04T15:10:53+02:00</time>
      </trkpt>
      <trkpt lat="44.52287" lon="1.95215">
        <ele>205</ele>
        <time>2018-08-04T15:10:59+02:00</time>
      </trkpt>
      <trkpt lat="44.52304" lon="1.95188">
        <ele>204</ele>
        <time>2018-08-04T15:11:05+02:00</time>
      </trkpt>
      <trkpt lat="44.52322" lon="1.95167">
        <ele>205</ele>
        <time>2018-08-04T15:11:11+02:00</time>
      </trkpt>
      <trkpt lat="44.52341" lon="1.95148">
        <ele>208</ele>
        <time>2018-08-04T15:11:19+02:00</time>
      </trkpt>
      <trkpt lat="44.52357" lon="1.95123">
        <ele>210</ele>
        <time>2018-08-04T15:11:27+02:00</time>
      </trkpt>
      <trkpt lat="44.52375" lon="1.951">
        <ele>211</ele>
        <time>2018-08-04T15:11:35+02:00</time>
      </trkpt>
      <trkpt lat="44.52391" lon="1.95076">
        <ele>212</ele>
        <time>2018-08-04T15:11:48+02:00</time>
      </trkpt>
      <trkpt lat="44.52393" lon="1.95041">
        <ele>211</ele>
        <time>2018-08-04T15:12:01+02:00</time>
      </trkpt>
      <trkpt lat="44.52385" lon="1.95007">
        <ele>212</ele>
        <time>2018-08-04T15:12:09+02:00</time>
      </trkpt>
      <trkpt lat="44.52378" lon="1.94975">
        <ele>211</ele>
        <time>2018-08-04T15:12:16+02:00</time>
      </trkpt>
      <trkpt lat="44.52369" lon="1.94943">
        <ele>210</ele>
        <time>2018-08-04T15:12:22+02:00</time>
      </trkpt>
      <trkpt lat="44.52358" lon="1.94915">
        <ele>208</ele>
        <time>2018-08-04T15:12:28+02:00</time>
      </trkpt>
      <trkpt lat="44.5235" lon="1.94882">
        <ele>210</ele>
        <time>2018-08-04T15:12:35+02:00</time>
      </trkpt>
      <trkpt lat="44.52342" lon="1.94847">
        <ele>213</ele>
        <time>2018-08-04T15:12:42+02:00</time>
      </trkpt>
      <trkpt lat="44.5233" lon="1.94816">
        <ele>212</ele>
        <time>2018-08-04T15:12:48+02:00</time>
      </trkpt>
      <trkpt lat="44.52316" lon="1.94791">
        <ele>213</ele>
        <time>2018-08-04T15:12:53+02:00</time>
      </trkpt>
      <trkpt lat="44.52314" lon="1.94756">
        <ele>214</ele>
        <time>2018-08-04T15:12:59+02:00</time>
      </trkpt>
      <trkpt lat="44.52307" lon="1.94725">
        <ele>213</ele>
        <time>2018-08-04T15:13:04+02:00</time>
      </trkpt>
      <trkpt lat="44.523" lon="1.9469">
        <ele>217</ele>
        <time>2018-08-04T15:13:11+02:00</time>
      </trkpt>
      <trkpt lat="44.52299" lon="1.94654">
        <ele>215</ele>
        <time>2018-08-04T15:13:17+02:00</time>
      </trkpt>
      <trkpt lat="44.52293" lon="1.94618">
        <ele>211</ele>
        <time>2018-08-04T15:13:23+02:00</time>
      </trkpt>
      <trkpt lat="44.52283" lon="1.94589">
        <ele>210</ele>
        <time>2018-08-04T15:13:28+02:00</time>
      </trkpt>
      <trkpt lat="44.52273" lon="1.94559">
        <ele>208</ele>
        <time>2018-08-04T15:13:33+02:00</time>
      </trkpt>
      <trkpt lat="44.52256" lon="1.94524">
        <ele>209</ele>
        <time>2018-08-04T15:13:39+02:00</time>
      </trkpt>
      <trkpt lat="44.52246" lon="1.94491">
        <ele>211</ele>
        <time>2018-08-04T15:13:45+02:00</time>
      </trkpt>
      <trkpt lat="44.52236" lon="1.9446">
        <ele>209</ele>
        <time>2018-08-04T15:13:51+02:00</time>
      </trkpt>
      <trkpt lat="44.52223" lon="1.9443">
        <ele>209</ele>
        <time>2018-08-04T15:13:57+02:00</time>
      </trkpt>
      <trkpt lat="44.52211" lon="1.94401">
        <ele>210</ele>
        <time>2018-08-04T15:14:03+02:00</time>
      </trkpt>
      <trkpt lat="44.52196" lon="1.94377">
        <ele>210</ele>
        <time>2018-08-04T15:14:08+02:00</time>
      </trkpt>
      <trkpt lat="44.52177" lon="1.94348">
        <ele>208</ele>
        <time>2018-08-04T15:14:14+02:00</time>
      </trkpt>
      <trkpt lat="44.5216" lon="1.94324">
        <ele>204</ele>
        <time>2018-08-04T15:14:19+02:00</time>
      </trkpt>
      <trkpt lat="44.52144" lon="1.94299">
        <ele>205</ele>
        <time>2018-08-04T15:14:25+02:00</time>
      </trkpt>
      <trkpt lat="44.52124" lon="1.94277">
        <ele>208</ele>
        <time>2018-08-04T15:14:31+02:00</time>
      </trkpt>
      <trkpt lat="44.52103" lon="1.94255">
        <ele>208</ele>
        <time>2018-08-04T15:14:36+02:00</time>
      </trkpt>
      <trkpt lat="44.52087" lon="1.94228">
        <ele>208</ele>
        <time>2018-08-04T15:14:42+02:00</time>
      </trkpt>
      <trkpt lat="44.52067" lon="1.94204">
        <ele>207</ele>
        <time>2018-08-04T15:14:48+02:00</time>
      </trkpt>
      <trkpt lat="44.52072" lon="1.94173">
        <ele>206</ele>
        <time>2018-08-04T15:15:05+02:00</time>
      </trkpt>
      <trkpt lat="44.52082" lon="1.9414">
        <ele>211</ele>
        <time>2018-08-04T15:15:29+02:00</time>
      </trkpt>
      <trkpt lat="44.52069" lon="1.9417">
        <ele>211</ele>
        <time>2018-08-04T15:17:04+02:00</time>
      </trkpt>
      <trkpt lat="44.52045" lon="1.94164">
        <ele>209</ele>
        <time>2018-08-04T15:17:13+02:00</time>
      </trkpt>
      <trkpt lat="44.52028" lon="1.9414">
        <ele>206</ele>
        <time>2018-08-04T15:17:19+02:00</time>
      </trkpt>
      <trkpt lat="44.52008" lon="1.94116">
        <ele>208</ele>
        <time>2018-08-04T15:17:25+02:00</time>
      </trkpt>
      <trkpt lat="44.51989" lon="1.94091">
        <ele>208</ele>
        <time>2018-08-04T15:17:31+02:00</time>
      </trkpt>
      <trkpt lat="44.51969" lon="1.9407">
        <ele>211</ele>
        <time>2018-08-04T15:17:37+02:00</time>
      </trkpt>
      <trkpt lat="44.51951" lon="1.94049">
        <ele>216</ele>
        <time>2018-08-04T15:17:43+02:00</time>
      </trkpt>
      <trkpt lat="44.51936" lon="1.9402">
        <ele>214</ele>
        <time>2018-08-04T15:17:49+02:00</time>
      </trkpt>
      <trkpt lat="44.51919" lon="1.93999">
        <ele>214</ele>
        <time>2018-08-04T15:17:54+02:00</time>
      </trkpt>
      <trkpt lat="44.51902" lon="1.93976">
        <ele>214</ele>
        <time>2018-08-04T15:17:59+02:00</time>
      </trkpt>
      <trkpt lat="44.51888" lon="1.93951">
        <ele>210</ele>
        <time>2018-08-04T15:18:04+02:00</time>
      </trkpt>
      <trkpt lat="44.5187" lon="1.93925">
        <ele>210</ele>
        <time>2018-08-04T15:18:10+02:00</time>
      </trkpt>
      <trkpt lat="44.51856" lon="1.93899">
        <ele>211</ele>
        <time>2018-08-04T15:18:16+02:00</time>
      </trkpt>
      <trkpt lat="44.51837" lon="1.93876">
        <ele>210</ele>
        <time>2018-08-04T15:18:21+02:00</time>
      </trkpt>
      <trkpt lat="44.51818" lon="1.93853">
        <ele>213</ele>
        <time>2018-08-04T15:18:27+02:00</time>
      </trkpt>
      <trkpt lat="44.51803" lon="1.9383">
        <ele>210</ele>
        <time>2018-08-04T15:18:32+02:00</time>
      </trkpt>
      <trkpt lat="44.51787" lon="1.93805">
        <ele>207</ele>
        <time>2018-08-04T15:18:37+02:00</time>
      </trkpt>
      <trkpt lat="44.51768" lon="1.93784">
        <ele>203</ele>
        <time>2018-08-04T15:18:42+02:00</time>
      </trkpt>
      <trkpt lat="44.51755" lon="1.93756">
        <ele>203</ele>
        <time>2018-08-04T15:18:48+02:00</time>
      </trkpt>
      <trkpt lat="44.51735" lon="1.93731">
        <ele>202</ele>
        <time>2018-08-04T15:18:54+02:00</time>
      </trkpt>
      <trkpt lat="44.51718" lon="1.9371">
        <ele>203</ele>
        <time>2018-08-04T15:18:59+02:00</time>
      </trkpt>
      <trkpt lat="44.517" lon="1.93684">
        <ele>205</ele>
        <time>2018-08-04T15:19:05+02:00</time>
      </trkpt>
      <trkpt lat="44.51682" lon="1.93661">
        <ele>203</ele>
        <time>2018-08-04T15:19:10+02:00</time>
      </trkpt>
      <trkpt lat="44.51665" lon="1.93635">
        <ele>203</ele>
        <time>2018-08-04T15:19:17+02:00</time>
      </trkpt>
      <trkpt lat="44.5164" lon="1.93628">
        <ele>202</ele>
        <time>2018-08-04T15:19:23+02:00</time>
      </trkpt>
      <trkpt lat="44.51619" lon="1.93617">
        <ele>200</ele>
        <time>2018-08-04T15:19:28+02:00</time>
      </trkpt>
      <trkpt lat="44.51598" lon="1.93599">
        <ele>199</ele>
        <time>2018-08-04T15:19:33+02:00</time>
      </trkpt>
      <trkpt lat="44.51576" lon="1.93584">
        <ele>200</ele>
        <time>2018-08-04T15:19:38+02:00</time>
      </trkpt>
      <trkpt lat="44.51554" lon="1.93573">
        <ele>200</ele>
        <time>2018-08-04T15:19:43+02:00</time>
      </trkpt>
      <trkpt lat="44.51536" lon="1.93553">
        <ele>199</ele>
        <time>2018-08-04T15:19:49+02:00</time>
      </trkpt>
      <trkpt lat="44.51515" lon="1.93538">
        <ele>203</ele>
        <time>2018-08-04T15:19:55+02:00</time>
      </trkpt>
      <trkpt lat="44.51493" lon="1.93525">
        <ele>200</ele>
        <time>2018-08-04T15:20:00+02:00</time>
      </trkpt>
      <trkpt lat="44.51468" lon="1.9351">
        <ele>202</ele>
        <time>2018-08-04T15:20:06+02:00</time>
      </trkpt>
      <trkpt lat="44.51446" lon="1.93498">
        <ele>203</ele>
        <time>2018-08-04T15:20:11+02:00</time>
      </trkpt>
      <trkpt lat="44.51424" lon="1.93485">
        <ele>205</ele>
        <time>2018-08-04T15:20:16+02:00</time>
      </trkpt>
      <trkpt lat="44.51407" lon="1.93465">
        <ele>206</ele>
        <time>2018-08-04T15:20:22+02:00</time>
      </trkpt>
      <trkpt lat="44.51382" lon="1.93453">
        <ele>206</ele>
        <time>2018-08-04T15:20:27+02:00</time>
      </trkpt>
      <trkpt lat="44.51361" lon="1.93442">
        <ele>207</ele>
        <time>2018-08-04T15:20:31+02:00</time>
      </trkpt>
      <trkpt lat="44.51339" lon="1.93431">
        <ele>205</ele>
        <time>2018-08-04T15:20:35+02:00</time>
      </trkpt>
      <trkpt lat="44.51314" lon="1.93423">
        <ele>207</ele>
        <time>2018-08-04T15:20:41+02:00</time>
      </trkpt>
      <trkpt lat="44.51289" lon="1.93414">
        <ele>205</ele>
        <time>2018-08-04T15:20:48+02:00</time>
      </trkpt>
      <trkpt lat="44.51266" lon="1.93395">
        <ele>202</ele>
        <time>2018-08-04T15:20:55+02:00</time>
      </trkpt>
      <trkpt lat="44.51244" lon="1.93382">
        <ele>199</ele>
        <time>2018-08-04T15:20:59+02:00</time>
      </trkpt>
      <trkpt lat="44.51223" lon="1.93367">
        <ele>195</ele>
        <time>2018-08-04T15:21:04+02:00</time>
      </trkpt>
      <trkpt lat="44.51205" lon="1.93347">
        <ele>196</ele>
        <time>2018-08-04T15:21:09+02:00</time>
      </trkpt>
      <trkpt lat="44.51185" lon="1.93327">
        <ele>200</ele>
        <time>2018-08-04T15:21:14+02:00</time>
      </trkpt>
      <trkpt lat="44.51168" lon="1.93307">
        <ele>202</ele>
        <time>2018-08-04T15:21:19+02:00</time>
      </trkpt>
      <trkpt lat="44.51148" lon="1.93288">
        <ele>204</ele>
        <time>2018-08-04T15:21:24+02:00</time>
      </trkpt>
      <trkpt lat="44.51128" lon="1.93272">
        <ele>206</ele>
        <time>2018-08-04T15:21:28+02:00</time>
      </trkpt>
      <trkpt lat="44.51106" lon="1.93249">
        <ele>201</ele>
        <time>2018-08-04T15:21:33+02:00</time>
      </trkpt>
      <trkpt lat="44.51087" lon="1.93226">
        <ele>202</ele>
        <time>2018-08-04T15:21:38+02:00</time>
      </trkpt>
      <trkpt lat="44.51067" lon="1.93207">
        <ele>207</ele>
        <time>2018-08-04T15:21:43+02:00</time>
      </trkpt>
      <trkpt lat="44.51051" lon="1.93179">
        <ele>206</ele>
        <time>2018-08-04T15:21:49+02:00</time>
      </trkpt>
      <trkpt lat="44.51033" lon="1.93155">
        <ele>204</ele>
        <time>2018-08-04T15:21:54+02:00</time>
      </trkpt>
      <trkpt lat="44.51018" lon="1.9313">
        <ele>203</ele>
        <time>2018-08-04T15:21:59+02:00</time>
      </trkpt>
      <trkpt lat="44.51003" lon="1.93101">
        <ele>205</ele>
        <time>2018-08-04T15:22:05+02:00</time>
      </trkpt>
      <trkpt lat="44.50987" lon="1.93078">
        <ele>205</ele>
        <time>2018-08-04T15:22:10+02:00</time>
      </trkpt>
      <trkpt lat="44.50972" lon="1.93051">
        <ele>207</ele>
        <time>2018-08-04T15:22:16+02:00</time>
      </trkpt>
      <trkpt lat="44.50955" lon="1.93027">
        <ele>208</ele>
        <time>2018-08-04T15:22:21+02:00</time>
      </trkpt>
      <trkpt lat="44.50943" lon="1.92999">
        <ele>203</ele>
        <time>2018-08-04T15:22:25+02:00</time>
      </trkpt>
      <trkpt lat="44.50934" lon="1.92968">
        <ele>201</ele>
        <time>2018-08-04T15:22:30+02:00</time>
      </trkpt>
      <trkpt lat="44.50922" lon="1.92941">
        <ele>202</ele>
        <time>2018-08-04T15:22:35+02:00</time>
      </trkpt>
      <trkpt lat="44.50914" lon="1.92908">
        <ele>200</ele>
        <time>2018-08-04T15:22:40+02:00</time>
      </trkpt>
      <trkpt lat="44.50903" lon="1.92876">
        <ele>202</ele>
        <time>2018-08-04T15:22:45+02:00</time>
      </trkpt>
      <trkpt lat="44.50894" lon="1.92842">
        <ele>200</ele>
        <time>2018-08-04T15:22:51+02:00</time>
      </trkpt>
      <trkpt lat="44.50887" lon="1.92806">
        <ele>202</ele>
        <time>2018-08-04T15:22:57+02:00</time>
      </trkpt>
      <trkpt lat="44.50892" lon="1.92768">
        <ele>207</ele>
        <time>2018-08-04T15:23:04+02:00</time>
      </trkpt>
      <trkpt lat="44.50896" lon="1.92734">
        <ele>208</ele>
        <time>2018-08-04T15:23:10+02:00</time>
      </trkpt>
      <trkpt lat="44.50896" lon="1.92699">
        <ele>209</ele>
        <time>2018-08-04T15:23:16+02:00</time>
      </trkpt>
      <trkpt lat="44.50903" lon="1.92665">
        <ele>209</ele>
        <time>2018-08-04T15:23:22+02:00</time>
      </trkpt>
      <trkpt lat="44.50901" lon="1.92627">
        <ele>203</ele>
        <time>2018-08-04T15:23:27+02:00</time>
      </trkpt>
      <trkpt lat="44.50897" lon="1.92595">
        <ele>208</ele>
        <time>2018-08-04T15:23:32+02:00</time>
      </trkpt>
      <trkpt lat="44.50899" lon="1.92559">
        <ele>208</ele>
        <time>2018-08-04T15:23:37+02:00</time>
      </trkpt>
      <trkpt lat="44.50901" lon="1.92528">
        <ele>208</ele>
        <time>2018-08-04T15:23:42+02:00</time>
      </trkpt>
      <trkpt lat="44.50901" lon="1.92492">
        <ele>202</ele>
        <time>2018-08-04T15:23:47+02:00</time>
      </trkpt>
      <trkpt lat="44.50901" lon="1.92459">
        <ele>201</ele>
        <time>2018-08-04T15:23:52+02:00</time>
      </trkpt>
      <trkpt lat="44.50899" lon="1.92428">
        <ele>200</ele>
        <time>2018-08-04T15:23:57+02:00</time>
      </trkpt>
      <trkpt lat="44.50888" lon="1.92395">
        <ele>201</ele>
        <time>2018-08-04T15:24:03+02:00</time>
      </trkpt>
      <trkpt lat="44.50881" lon="1.92363">
        <ele>202</ele>
        <time>2018-08-04T15:24:08+02:00</time>
      </trkpt>
      <trkpt lat="44.50868" lon="1.92332">
        <ele>203</ele>
        <time>2018-08-04T15:24:13+02:00</time>
      </trkpt>
      <trkpt lat="44.50855" lon="1.92302">
        <ele>203</ele>
        <time>2018-08-04T15:24:18+02:00</time>
      </trkpt>
      <trkpt lat="44.50842" lon="1.92272">
        <ele>200</ele>
        <time>2018-08-04T15:24:23+02:00</time>
      </trkpt>
      <trkpt lat="44.50824" lon="1.92245">
        <ele>204</ele>
        <time>2018-08-04T15:24:28+02:00</time>
      </trkpt>
      <trkpt lat="44.50808" lon="1.9222">
        <ele>201</ele>
        <time>2018-08-04T15:24:33+02:00</time>
      </trkpt>
      <trkpt lat="44.50798" lon="1.92191">
        <ele>200</ele>
        <time>2018-08-04T15:24:38+02:00</time>
      </trkpt>
      <trkpt lat="44.50784" lon="1.92159">
        <ele>201</ele>
        <time>2018-08-04T15:24:44+02:00</time>
      </trkpt>
      <trkpt lat="44.50781" lon="1.92123">
        <ele>203</ele>
        <time>2018-08-04T15:24:50+02:00</time>
      </trkpt>
      <trkpt lat="44.50776" lon="1.9209">
        <ele>203</ele>
        <time>2018-08-04T15:24:55+02:00</time>
      </trkpt>
      <trkpt lat="44.50768" lon="1.92057">
        <ele>207</ele>
        <time>2018-08-04T15:25:01+02:00</time>
      </trkpt>
      <trkpt lat="44.50761" lon="1.92026">
        <ele>205</ele>
        <time>2018-08-04T15:25:06+02:00</time>
      </trkpt>
      <trkpt lat="44.50757" lon="1.91994">
        <ele>207</ele>
        <time>2018-08-04T15:25:11+02:00</time>
      </trkpt>
      <trkpt lat="44.50751" lon="1.91957">
        <ele>207</ele>
        <time>2018-08-04T15:25:17+02:00</time>
      </trkpt>
      <trkpt lat="44.50746" lon="1.91923">
        <ele>205</ele>
        <time>2018-08-04T15:25:22+02:00</time>
      </trkpt>
      <trkpt lat="44.50741" lon="1.91892">
        <ele>202</ele>
        <time>2018-08-04T15:25:27+02:00</time>
      </trkpt>
      <trkpt lat="44.50737" lon="1.91858">
        <ele>200</ele>
        <time>2018-08-04T15:25:33+02:00</time>
      </trkpt>
      <trkpt lat="44.50737" lon="1.91826">
        <ele>201</ele>
        <time>2018-08-04T15:25:38+02:00</time>
      </trkpt>
      <trkpt lat="44.50734" lon="1.91795">
        <ele>202</ele>
        <time>2018-08-04T15:25:43+02:00</time>
      </trkpt>
      <trkpt lat="44.50716" lon="1.9177">
        <ele>203</ele>
        <time>2018-08-04T15:25:49+02:00</time>
      </trkpt>
      <trkpt lat="44.507" lon="1.91746">
        <ele>204</ele>
        <time>2018-08-04T15:25:54+02:00</time>
      </trkpt>
      <trkpt lat="44.50696" lon="1.91714">
        <ele>201</ele>
        <time>2018-08-04T15:25:59+02:00</time>
      </trkpt>
      <trkpt lat="44.50692" lon="1.91678">
        <ele>201</ele>
        <time>2018-08-04T15:26:05+02:00</time>
      </trkpt>
      <trkpt lat="44.50686" lon="1.91646">
        <ele>201</ele>
        <time>2018-08-04T15:26:10+02:00</time>
      </trkpt>
      <trkpt lat="44.5068" lon="1.91613">
        <ele>198</ele>
        <time>2018-08-04T15:26:15+02:00</time>
      </trkpt>
      <trkpt lat="44.50675" lon="1.9158">
        <ele>200</ele>
        <time>2018-08-04T15:26:20+02:00</time>
      </trkpt>
      <trkpt lat="44.50671" lon="1.91547">
        <ele>200</ele>
        <time>2018-08-04T15:26:25+02:00</time>
      </trkpt>
      <trkpt lat="44.50667" lon="1.91515">
        <ele>203</ele>
        <time>2018-08-04T15:26:30+02:00</time>
      </trkpt>
      <trkpt lat="44.50661" lon="1.9148">
        <ele>204</ele>
        <time>2018-08-04T15:26:35+02:00</time>
      </trkpt>
      <trkpt lat="44.50655" lon="1.91446">
        <ele>202</ele>
        <time>2018-08-04T15:26:40+02:00</time>
      </trkpt>
      <trkpt lat="44.50643" lon="1.91416">
        <ele>205</ele>
        <time>2018-08-04T15:26:45+02:00</time>
      </trkpt>
      <trkpt lat="44.5063" lon="1.91384">
        <ele>204</ele>
        <time>2018-08-04T15:26:50+02:00</time>
      </trkpt>
      <trkpt lat="44.50616" lon="1.91351">
        <ele>204</ele>
        <time>2018-08-04T15:26:56+02:00</time>
      </trkpt>
      <trkpt lat="44.50603" lon="1.91325">
        <ele>205</ele>
        <time>2018-08-04T15:27:02+02:00</time>
      </trkpt>
      <trkpt lat="44.5059" lon="1.91297">
        <ele>204</ele>
        <time>2018-08-04T15:27:08+02:00</time>
      </trkpt>
      <trkpt lat="44.50574" lon="1.91273">
        <ele>205</ele>
        <time>2018-08-04T15:27:14+02:00</time>
      </trkpt>
      <trkpt lat="44.50558" lon="1.91249">
        <ele>206</ele>
        <time>2018-08-04T15:27:20+02:00</time>
      </trkpt>
      <trkpt lat="44.50542" lon="1.91225">
        <ele>204</ele>
        <time>2018-08-04T15:27:46+02:00</time>
      </trkpt>
      <trkpt lat="44.50523" lon="1.91206">
        <ele>202</ele>
        <time>2018-08-04T15:27:52+02:00</time>
      </trkpt>
      <trkpt lat="44.50503" lon="1.91185">
        <ele>203</ele>
        <time>2018-08-04T15:28:17+02:00</time>
      </trkpt>
      <trkpt lat="44.50482" lon="1.91167">
        <ele>202</ele>
        <time>2018-08-04T15:28:23+02:00</time>
      </trkpt>
      <trkpt lat="44.50461" lon="1.9115">
        <ele>200</ele>
        <time>2018-08-04T15:28:29+02:00</time>
      </trkpt>
      <trkpt lat="44.50439" lon="1.91128">
        <ele>204</ele>
        <time>2018-08-04T15:28:36+02:00</time>
      </trkpt>
      <trkpt lat="44.50418" lon="1.91116">
        <ele>204</ele>
        <time>2018-08-04T15:28:41+02:00</time>
      </trkpt>
      <trkpt lat="44.50398" lon="1.911">
        <ele>208</ele>
        <time>2018-08-04T15:28:47+02:00</time>
      </trkpt>
      <trkpt lat="44.50372" lon="1.91085">
        <ele>202</ele>
        <time>2018-08-04T15:28:52+02:00</time>
      </trkpt>
      <trkpt lat="44.50359" lon="1.91058">
        <ele>211</ele>
        <time>2018-08-04T15:30:06+02:00</time>
      </trkpt>
      <trkpt lat="44.50336" lon="1.91063">
        <ele>213</ele>
        <time>2018-08-04T15:33:11+02:00</time>
      </trkpt>
      <trkpt lat="44.50309" lon="1.91059">
        <ele>209</ele>
        <time>2018-08-04T15:33:18+02:00</time>
      </trkpt>
      <trkpt lat="44.50286" lon="1.91048">
        <ele>213</ele>
        <time>2018-08-04T15:33:26+02:00</time>
      </trkpt>
      <trkpt lat="44.50257" lon="1.91046">
        <ele>211</ele>
        <time>2018-08-04T15:33:31+02:00</time>
      </trkpt>
      <trkpt lat="44.50234" lon="1.9104">
        <ele>214</ele>
        <time>2018-08-04T15:33:36+02:00</time>
      </trkpt>
      <trkpt lat="44.50213" lon="1.91028">
        <ele>216</ele>
        <time>2018-08-04T15:33:43+02:00</time>
      </trkpt>
      <trkpt lat="44.50189" lon="1.91021">
        <ele>209</ele>
        <time>2018-08-04T15:33:47+02:00</time>
      </trkpt>
      <trkpt lat="44.50165" lon="1.91021">
        <ele>208</ele>
        <time>2018-08-04T15:33:52+02:00</time>
      </trkpt>
      <trkpt lat="44.50142" lon="1.91026">
        <ele>211</ele>
        <time>2018-08-04T15:33:56+02:00</time>
      </trkpt>
      <trkpt lat="44.50117" lon="1.91029">
        <ele>214</ele>
        <time>2018-08-04T15:34:02+02:00</time>
      </trkpt>
      <trkpt lat="44.50093" lon="1.91034">
        <ele>212</ele>
        <time>2018-08-04T15:34:06+02:00</time>
      </trkpt>
      <trkpt lat="44.50066" lon="1.91039">
        <ele>209</ele>
        <time>2018-08-04T15:34:12+02:00</time>
      </trkpt>
      <trkpt lat="44.50044" lon="1.91049">
        <ele>210</ele>
        <time>2018-08-04T15:34:18+02:00</time>
      </trkpt>
      <trkpt lat="44.50022" lon="1.91059">
        <ele>212</ele>
        <time>2018-08-04T15:34:24+02:00</time>
      </trkpt>
      <trkpt lat="44.49999" lon="1.91066">
        <ele>215</ele>
        <time>2018-08-04T15:34:31+02:00</time>
      </trkpt>
      <trkpt lat="44.49979" lon="1.91079">
        <ele>213</ele>
        <time>2018-08-04T15:34:36+02:00</time>
      </trkpt>
      <trkpt lat="44.49957" lon="1.9109">
        <ele>215</ele>
        <time>2018-08-04T15:34:43+02:00</time>
      </trkpt>
      <trkpt lat="44.49933" lon="1.91108">
        <ele>217</ele>
        <time>2018-08-04T15:34:53+02:00</time>
      </trkpt>
      <trkpt lat="44.49912" lon="1.91124">
        <ele>217</ele>
        <time>2018-08-04T15:34:59+02:00</time>
      </trkpt>
      <trkpt lat="44.49891" lon="1.91144">
        <ele>221</ele>
        <time>2018-08-04T15:35:06+02:00</time>
      </trkpt>
      <trkpt lat="44.49869" lon="1.91159">
        <ele>218</ele>
        <time>2018-08-04T15:35:13+02:00</time>
      </trkpt>
      <trkpt lat="44.49852" lon="1.91182">
        <ele>213</ele>
        <time>2018-08-04T15:35:21+02:00</time>
      </trkpt>
      <trkpt lat="44.49835" lon="1.91203">
        <ele>212</ele>
        <time>2018-08-04T15:35:29+02:00</time>
      </trkpt>
      <trkpt lat="44.49814" lon="1.91219">
        <ele>212</ele>
        <time>2018-08-04T15:35:40+02:00</time>
      </trkpt>
      <trkpt lat="44.49791" lon="1.91228">
        <ele>212</ele>
        <time>2018-08-04T15:35:46+02:00</time>
      </trkpt>
      <trkpt lat="44.49767" lon="1.91243">
        <ele>211</ele>
        <time>2018-08-04T15:35:53+02:00</time>
      </trkpt>
      <trkpt lat="44.49744" lon="1.91261">
        <ele>212</ele>
        <time>2018-08-04T15:36:02+02:00</time>
      </trkpt>
      <trkpt lat="44.49722" lon="1.91277">
        <ele>213</ele>
        <time>2018-08-04T15:36:07+02:00</time>
      </trkpt>
      <trkpt lat="44.49702" lon="1.91295">
        <ele>214</ele>
        <time>2018-08-04T15:36:18+02:00</time>
      </trkpt>
      <trkpt lat="44.49682" lon="1.91311">
        <ele>220</ele>
        <time>2018-08-04T15:36:27+02:00</time>
      </trkpt>
      <trkpt lat="44.49661" lon="1.91327">
        <ele>227</ele>
        <time>2018-08-04T15:36:37+02:00</time>
      </trkpt>
      <trkpt lat="44.49636" lon="1.91337">
        <ele>223</ele>
        <time>2018-08-04T15:36:43+02:00</time>
      </trkpt>
      <trkpt lat="44.4961" lon="1.91347">
        <ele>221</ele>
        <time>2018-08-04T15:36:50+02:00</time>
      </trkpt>
      <trkpt lat="44.49586" lon="1.91356">
        <ele>220</ele>
        <time>2018-08-04T15:36:59+02:00</time>
      </trkpt>
      <trkpt lat="44.49564" lon="1.91365">
        <ele>219</ele>
        <time>2018-08-04T15:39:03+02:00</time>
      </trkpt>
      <trkpt lat="44.49541" lon="1.91369">
        <ele>218</ele>
        <time>2018-08-04T15:39:11+02:00</time>
      </trkpt>
      <trkpt lat="44.49516" lon="1.91376">
        <ele>223</ele>
        <time>2018-08-04T15:39:21+02:00</time>
      </trkpt>
      <trkpt lat="44.49493" lon="1.9138">
        <ele>222</ele>
        <time>2018-08-04T15:39:29+02:00</time>
      </trkpt>
      <trkpt lat="44.49466" lon="1.91375">
        <ele>220</ele>
        <time>2018-08-04T15:39:36+02:00</time>
      </trkpt>
      <trkpt lat="44.49445" lon="1.91354">
        <ele>225</ele>
        <time>2018-08-04T15:39:45+02:00</time>
      </trkpt>
      <trkpt lat="44.49427" lon="1.9133">
        <ele>226</ele>
        <time>2018-08-04T15:39:53+02:00</time>
      </trkpt>
      <trkpt lat="44.49412" lon="1.91302">
        <ele>225</ele>
        <time>2018-08-04T15:40:01+02:00</time>
      </trkpt>
      <trkpt lat="44.49414" lon="1.91266">
        <ele>224</ele>
        <time>2018-08-04T15:40:07+02:00</time>
      </trkpt>
      <trkpt lat="44.49416" lon="1.91234">
        <ele>221</ele>
        <time>2018-08-04T15:40:12+02:00</time>
      </trkpt>
      <trkpt lat="44.49423" lon="1.91202">
        <ele>217</ele>
        <time>2018-08-04T15:40:18+02:00</time>
      </trkpt>
      <trkpt lat="44.49428" lon="1.91171">
        <ele>219</ele>
        <time>2018-08-04T15:40:24+02:00</time>
      </trkpt>
      <trkpt lat="44.49436" lon="1.9114">
        <ele>218</ele>
        <time>2018-08-04T15:40:29+02:00</time>
      </trkpt>
      <trkpt lat="44.49446" lon="1.91106">
        <ele>218</ele>
        <time>2018-08-04T15:40:35+02:00</time>
      </trkpt>
      <trkpt lat="44.49452" lon="1.91074">
        <ele>217</ele>
        <time>2018-08-04T15:40:40+02:00</time>
      </trkpt>
      <trkpt lat="44.4946" lon="1.91037">
        <ele>216</ele>
        <time>2018-08-04T15:40:46+02:00</time>
      </trkpt>
      <trkpt lat="44.49467" lon="1.91003">
        <ele>215</ele>
        <time>2018-08-04T15:40:51+02:00</time>
      </trkpt>
      <trkpt lat="44.49474" lon="1.90968">
        <ele>214</ele>
        <time>2018-08-04T15:40:56+02:00</time>
      </trkpt>
      <trkpt lat="44.49485" lon="1.90938">
        <ele>217</ele>
        <time>2018-08-04T15:41:01+02:00</time>
      </trkpt>
      <trkpt lat="44.49499" lon="1.90908">
        <ele>217</ele>
        <time>2018-08-04T15:41:06+02:00</time>
      </trkpt>
      <trkpt lat="44.49518" lon="1.90884">
        <ele>218</ele>
        <time>2018-08-04T15:41:11+02:00</time>
      </trkpt>
      <trkpt lat="44.49544" lon="1.90869">
        <ele>216</ele>
        <time>2018-08-04T15:41:16+02:00</time>
      </trkpt>
      <trkpt lat="44.49571" lon="1.90863">
        <ele>216</ele>
        <time>2018-08-04T15:41:21+02:00</time>
      </trkpt>
      <trkpt lat="44.49593" lon="1.90859">
        <ele>223</ele>
        <time>2018-08-04T15:41:26+02:00</time>
      </trkpt>
      <trkpt lat="44.49621" lon="1.90855">
        <ele>222</ele>
        <time>2018-08-04T15:41:31+02:00</time>
      </trkpt>
      <trkpt lat="44.49644" lon="1.90846">
        <ele>224</ele>
        <time>2018-08-04T15:41:35+02:00</time>
      </trkpt>
      <trkpt lat="44.49669" lon="1.90842">
        <ele>220</ele>
        <time>2018-08-04T15:41:39+02:00</time>
      </trkpt>
      <trkpt lat="44.49696" lon="1.90836">
        <ele>216</ele>
        <time>2018-08-04T15:41:43+02:00</time>
      </trkpt>
      <trkpt lat="44.49718" lon="1.90825">
        <ele>216</ele>
        <time>2018-08-04T15:41:47+02:00</time>
      </trkpt>
      <trkpt lat="44.4974" lon="1.90816">
        <ele>217</ele>
        <time>2018-08-04T15:41:51+02:00</time>
      </trkpt>
      <trkpt lat="44.49763" lon="1.90806">
        <ele>218</ele>
        <time>2018-08-04T15:41:55+02:00</time>
      </trkpt>
      <trkpt lat="44.49786" lon="1.90793">
        <ele>221</ele>
        <time>2018-08-04T15:41:59+02:00</time>
      </trkpt>
      <trkpt lat="44.4981" lon="1.9078">
        <ele>222</ele>
        <time>2018-08-04T15:42:03+02:00</time>
      </trkpt>
      <trkpt lat="44.49837" lon="1.9077">
        <ele>219</ele>
        <time>2018-08-04T15:42:07+02:00</time>
      </trkpt>
      <trkpt lat="44.49863" lon="1.90766">
        <ele>221</ele>
        <time>2018-08-04T15:42:11+02:00</time>
      </trkpt>
      <trkpt lat="44.49886" lon="1.90753">
        <ele>216</ele>
        <time>2018-08-04T15:42:15+02:00</time>
      </trkpt>
      <trkpt lat="44.49909" lon="1.90743">
        <ele>216</ele>
        <time>2018-08-04T15:42:19+02:00</time>
      </trkpt>
      <trkpt lat="44.49937" lon="1.90731">
        <ele>212</ele>
        <time>2018-08-04T15:42:23+02:00</time>
      </trkpt>
      <trkpt lat="44.49964" lon="1.90719">
        <ele>211</ele>
        <time>2018-08-04T15:42:27+02:00</time>
      </trkpt>
      <trkpt lat="44.49988" lon="1.90705">
        <ele>209</ele>
        <time>2018-08-04T15:42:31+02:00</time>
      </trkpt>
      <trkpt lat="44.50014" lon="1.90692">
        <ele>208</ele>
        <time>2018-08-04T15:42:35+02:00</time>
      </trkpt>
      <trkpt lat="44.50036" lon="1.9068">
        <ele>202</ele>
        <time>2018-08-04T15:42:38+02:00</time>
      </trkpt>
      <trkpt lat="44.50054" lon="1.90662">
        <ele>205</ele>
        <time>2018-08-04T15:42:42+02:00</time>
      </trkpt>
      <trkpt lat="44.50078" lon="1.90649">
        <ele>203</ele>
        <time>2018-08-04T15:42:46+02:00</time>
      </trkpt>
      <trkpt lat="44.50102" lon="1.90628">
        <ele>203</ele>
        <time>2018-08-04T15:42:51+02:00</time>
      </trkpt>
      <trkpt lat="44.5012" lon="1.90608">
        <ele>200</ele>
        <time>2018-08-04T15:42:54+02:00</time>
      </trkpt>
      <trkpt lat="44.50142" lon="1.90597">
        <ele>197</ele>
        <time>2018-08-04T15:42:58+02:00</time>
      </trkpt>
      <trkpt lat="44.50163" lon="1.90574">
        <ele>198</ele>
        <time>2018-08-04T15:43:03+02:00</time>
      </trkpt>
      <trkpt lat="44.50183" lon="1.90547">
        <ele>198</ele>
        <time>2018-08-04T15:43:07+02:00</time>
      </trkpt>
      <trkpt lat="44.50207" lon="1.90529">
        <ele>197</ele>
        <time>2018-08-04T15:43:12+02:00</time>
      </trkpt>
      <trkpt lat="44.50222" lon="1.90502">
        <ele>197</ele>
        <time>2018-08-04T15:43:15+02:00</time>
      </trkpt>
      <trkpt lat="44.50246" lon="1.9048">
        <ele>197</ele>
        <time>2018-08-04T15:43:20+02:00</time>
      </trkpt>
      <trkpt lat="44.50262" lon="1.90453">
        <ele>203</ele>
        <time>2018-08-04T15:43:25+02:00</time>
      </trkpt>
      <trkpt lat="44.50281" lon="1.90436">
        <ele>212</ele>
        <time>2018-08-04T15:43:31+02:00</time>
      </trkpt>
      <trkpt lat="44.50308" lon="1.90423">
        <ele>213</ele>
        <time>2018-08-04T15:43:37+02:00</time>
      </trkpt>
      <trkpt lat="44.50323" lon="1.90388">
        <ele>213</ele>
        <time>2018-08-04T15:43:41+02:00</time>
      </trkpt>
      <trkpt lat="44.50339" lon="1.90363">
        <ele>209</ele>
        <time>2018-08-04T15:43:45+02:00</time>
      </trkpt>
      <trkpt lat="44.50358" lon="1.90344">
        <ele>207</ele>
        <time>2018-08-04T15:43:53+02:00</time>
      </trkpt>
      <trkpt lat="44.50372" lon="1.90315">
        <ele>206</ele>
        <time>2018-08-04T15:44:28+02:00</time>
      </trkpt>
      <trkpt lat="44.50389" lon="1.90287">
        <ele>211</ele>
        <time>2018-08-04T15:44:34+02:00</time>
      </trkpt>
      <trkpt lat="44.50402" lon="1.90259">
        <ele>208</ele>
        <time>2018-08-04T15:44:39+02:00</time>
      </trkpt>
      <trkpt lat="44.50418" lon="1.9023">
        <ele>203</ele>
        <time>2018-08-04T15:44:45+02:00</time>
      </trkpt>
      <trkpt lat="44.5043" lon="1.902">
        <ele>200</ele>
        <time>2018-08-04T15:44:52+02:00</time>
      </trkpt>
      <trkpt lat="44.50436" lon="1.90169">
        <ele>197</ele>
        <time>2018-08-04T15:45:00+02:00</time>
      </trkpt>
      <trkpt lat="44.5045" lon="1.90142">
        <ele>200</ele>
        <time>2018-08-04T15:45:10+02:00</time>
      </trkpt>
      <trkpt lat="44.50459" lon="1.9011">
        <ele>201</ele>
        <time>2018-08-04T15:45:17+02:00</time>
      </trkpt>
      <trkpt lat="44.50465" lon="1.90077">
        <ele>199</ele>
        <time>2018-08-04T15:45:23+02:00</time>
      </trkpt>
      <trkpt lat="44.50476" lon="1.90046">
        <ele>198</ele>
        <time>2018-08-04T15:45:30+02:00</time>
      </trkpt>
      <trkpt lat="44.5049" lon="1.90014">
        <ele>196</ele>
        <time>2018-08-04T15:46:32+02:00</time>
      </trkpt>
      <trkpt lat="44.5051" lon="1.89995">
        <ele>198</ele>
        <time>2018-08-04T15:46:41+02:00</time>
      </trkpt>
      <trkpt lat="44.50526" lon="1.89971">
        <ele>202</ele>
        <time>2018-08-04T15:46:48+02:00</time>
      </trkpt>
      <trkpt lat="44.50536" lon="1.89938">
        <ele>201</ele>
        <time>2018-08-04T15:46:54+02:00</time>
      </trkpt>
      <trkpt lat="44.50557" lon="1.89913">
        <ele>199</ele>
        <time>2018-08-04T15:47:00+02:00</time>
      </trkpt>
      <trkpt lat="44.50574" lon="1.89892">
        <ele>195</ele>
        <time>2018-08-04T15:47:05+02:00</time>
      </trkpt>
      <trkpt lat="44.50595" lon="1.89871">
        <ele>196</ele>
        <time>2018-08-04T15:47:11+02:00</time>
      </trkpt>
      <trkpt lat="44.50615" lon="1.89849">
        <ele>199</ele>
        <time>2018-08-04T15:47:17+02:00</time>
      </trkpt>
      <trkpt lat="44.50623" lon="1.89817">
        <ele>205</ele>
        <time>2018-08-04T15:47:22+02:00</time>
      </trkpt>
      <trkpt lat="44.50632" lon="1.89784">
        <ele>205</ele>
        <time>2018-08-04T15:47:27+02:00</time>
      </trkpt>
      <trkpt lat="44.50639" lon="1.89753">
        <ele>205</ele>
        <time>2018-08-04T15:47:32+02:00</time>
      </trkpt>
      <trkpt lat="44.5065" lon="1.89721">
        <ele>203</ele>
        <time>2018-08-04T15:47:37+02:00</time>
      </trkpt>
      <trkpt lat="44.50658" lon="1.89687">
        <ele>203</ele>
        <time>2018-08-04T15:47:43+02:00</time>
      </trkpt>
      <trkpt lat="44.50669" lon="1.89654">
        <ele>201</ele>
        <time>2018-08-04T15:47:48+02:00</time>
      </trkpt>
      <trkpt lat="44.50671" lon="1.89621">
        <ele>199</ele>
        <time>2018-08-04T15:47:53+02:00</time>
      </trkpt>
      <trkpt lat="44.50674" lon="1.89589">
        <ele>198</ele>
        <time>2018-08-04T15:47:58+02:00</time>
      </trkpt>
      <trkpt lat="44.50689" lon="1.8956">
        <ele>200</ele>
        <time>2018-08-04T15:48:03+02:00</time>
      </trkpt>
      <trkpt lat="44.50703" lon="1.8953">
        <ele>202</ele>
        <time>2018-08-04T15:48:08+02:00</time>
      </trkpt>
      <trkpt lat="44.5071" lon="1.89495">
        <ele>200</ele>
        <time>2018-08-04T15:48:13+02:00</time>
      </trkpt>
      <trkpt lat="44.50715" lon="1.89464">
        <ele>199</ele>
        <time>2018-08-04T15:48:17+02:00</time>
      </trkpt>
      <trkpt lat="44.50722" lon="1.8943">
        <ele>200</ele>
        <time>2018-08-04T15:48:22+02:00</time>
      </trkpt>
      <trkpt lat="44.50727" lon="1.89394">
        <ele>197</ele>
        <time>2018-08-04T15:48:27+02:00</time>
      </trkpt>
      <trkpt lat="44.5073" lon="1.89357">
        <ele>198</ele>
        <time>2018-08-04T15:48:33+02:00</time>
      </trkpt>
      <trkpt lat="44.5073" lon="1.8932">
        <ele>199</ele>
        <time>2018-08-04T15:48:38+02:00</time>
      </trkpt>
      <trkpt lat="44.50732" lon="1.89284">
        <ele>198</ele>
        <time>2018-08-04T15:48:43+02:00</time>
      </trkpt>
      <trkpt lat="44.50728" lon="1.8925">
        <ele>197</ele>
        <time>2018-08-04T15:48:48+02:00</time>
      </trkpt>
      <trkpt lat="44.50725" lon="1.89217">
        <ele>197</ele>
        <time>2018-08-04T15:48:53+02:00</time>
      </trkpt>
      <trkpt lat="44.50717" lon="1.89184">
        <ele>196</ele>
        <time>2018-08-04T15:48:58+02:00</time>
      </trkpt>
      <trkpt lat="44.50712" lon="1.8915">
        <ele>192</ele>
        <time>2018-08-04T15:49:03+02:00</time>
      </trkpt>
      <trkpt lat="44.50706" lon="1.89117">
        <ele>193</ele>
        <time>2018-08-04T15:49:08+02:00</time>
      </trkpt>
      <trkpt lat="44.50698" lon="1.89085">
        <ele>195</ele>
        <time>2018-08-04T15:49:13+02:00</time>
      </trkpt>
      <trkpt lat="44.50688" lon="1.8905">
        <ele>192</ele>
        <time>2018-08-04T15:49:19+02:00</time>
      </trkpt>
      <trkpt lat="44.50679" lon="1.8902">
        <ele>198</ele>
        <time>2018-08-04T15:49:25+02:00</time>
      </trkpt>
      <trkpt lat="44.50669" lon="1.88989">
        <ele>198</ele>
        <time>2018-08-04T15:49:30+02:00</time>
      </trkpt>
      <trkpt lat="44.50655" lon="1.88962">
        <ele>196</ele>
        <time>2018-08-04T15:49:35+02:00</time>
      </trkpt>
      <trkpt lat="44.50643" lon="1.88928">
        <ele>200</ele>
        <time>2018-08-04T15:49:41+02:00</time>
      </trkpt>
      <trkpt lat="44.50629" lon="1.88896">
        <ele>196</ele>
        <time>2018-08-04T15:49:47+02:00</time>
      </trkpt>
      <trkpt lat="44.50615" lon="1.88871">
        <ele>195</ele>
        <time>2018-08-04T15:49:52+02:00</time>
      </trkpt>
      <trkpt lat="44.50601" lon="1.88843">
        <ele>197</ele>
        <time>2018-08-04T15:49:57+02:00</time>
      </trkpt>
      <trkpt lat="44.50584" lon="1.88817">
        <ele>200</ele>
        <time>2018-08-04T15:50:02+02:00</time>
      </trkpt>
      <trkpt lat="44.50564" lon="1.88792">
        <ele>201</ele>
        <time>2018-08-04T15:50:07+02:00</time>
      </trkpt>
      <trkpt lat="44.50546" lon="1.88768">
        <ele>202</ele>
        <time>2018-08-04T15:50:12+02:00</time>
      </trkpt>
      <trkpt lat="44.50529" lon="1.88746">
        <ele>208</ele>
        <time>2018-08-04T15:50:17+02:00</time>
      </trkpt>
      <trkpt lat="44.5051" lon="1.88724">
        <ele>206</ele>
        <time>2018-08-04T15:50:22+02:00</time>
      </trkpt>
      <trkpt lat="44.50491" lon="1.88701">
        <ele>208</ele>
        <time>2018-08-04T15:50:27+02:00</time>
      </trkpt>
      <trkpt lat="44.50473" lon="1.88672">
        <ele>210</ele>
        <time>2018-08-04T15:50:33+02:00</time>
      </trkpt>
      <trkpt lat="44.50455" lon="1.88647">
        <ele>208</ele>
        <time>2018-08-04T15:50:38+02:00</time>
      </trkpt>
      <trkpt lat="44.50437" lon="1.88626">
        <ele>210</ele>
        <time>2018-08-04T15:50:43+02:00</time>
      </trkpt>
      <trkpt lat="44.50416" lon="1.88605">
        <ele>211</ele>
        <time>2018-08-04T15:50:48+02:00</time>
      </trkpt>
      <trkpt lat="44.50395" lon="1.88583">
        <ele>208</ele>
        <time>2018-08-04T15:50:53+02:00</time>
      </trkpt>
      <trkpt lat="44.50372" lon="1.88561">
        <ele>208</ele>
        <time>2018-08-04T15:50:59+02:00</time>
      </trkpt>
      <trkpt lat="44.5035" lon="1.88545">
        <ele>207</ele>
        <time>2018-08-04T15:51:04+02:00</time>
      </trkpt>
      <trkpt lat="44.50325" lon="1.88525">
        <ele>204</ele>
        <time>2018-08-04T15:51:10+02:00</time>
      </trkpt>
      <trkpt lat="44.50306" lon="1.88508">
        <ele>205</ele>
        <time>2018-08-04T15:51:16+02:00</time>
      </trkpt>
      <trkpt lat="44.50285" lon="1.88493">
        <ele>207</ele>
        <time>2018-08-04T15:51:21+02:00</time>
      </trkpt>
      <trkpt lat="44.50263" lon="1.88481">
        <ele>204</ele>
        <time>2018-08-04T15:51:25+02:00</time>
      </trkpt>
      <trkpt lat="44.5024" lon="1.88469">
        <ele>203</ele>
        <time>2018-08-04T15:51:30+02:00</time>
      </trkpt>
      <trkpt lat="44.50217" lon="1.88455">
        <ele>200</ele>
        <time>2018-08-04T15:51:35+02:00</time>
      </trkpt>
      <trkpt lat="44.50192" lon="1.88441">
        <ele>200</ele>
        <time>2018-08-04T15:51:40+02:00</time>
      </trkpt>
      <trkpt lat="44.5017" lon="1.88428">
        <ele>201</ele>
        <time>2018-08-04T15:51:45+02:00</time>
      </trkpt>
      <trkpt lat="44.50146" lon="1.8842">
        <ele>202</ele>
        <time>2018-08-04T15:51:50+02:00</time>
      </trkpt>
      <trkpt lat="44.50122" lon="1.88407">
        <ele>201</ele>
        <time>2018-08-04T15:51:56+02:00</time>
      </trkpt>
      <trkpt lat="44.501" lon="1.88398">
        <ele>201</ele>
        <time>2018-08-04T15:52:01+02:00</time>
      </trkpt>
      <trkpt lat="44.50076" lon="1.8839">
        <ele>201</ele>
        <time>2018-08-04T15:52:06+02:00</time>
      </trkpt>
      <trkpt lat="44.50052" lon="1.88383">
        <ele>200</ele>
        <time>2018-08-04T15:52:11+02:00</time>
      </trkpt>
      <trkpt lat="44.50027" lon="1.88377">
        <ele>200</ele>
        <time>2018-08-04T15:52:17+02:00</time>
      </trkpt>
      <trkpt lat="44.50002" lon="1.88368">
        <ele>197</ele>
        <time>2018-08-04T15:52:22+02:00</time>
      </trkpt>
      <trkpt lat="44.49979" lon="1.88358">
        <ele>197</ele>
        <time>2018-08-04T15:52:27+02:00</time>
      </trkpt>
      <trkpt lat="44.49956" lon="1.88351">
        <ele>197</ele>
        <time>2018-08-04T15:52:32+02:00</time>
      </trkpt>
      <trkpt lat="44.49931" lon="1.88342">
        <ele>195</ele>
        <time>2018-08-04T15:52:38+02:00</time>
      </trkpt>
      <trkpt lat="44.49905" lon="1.88336">
        <ele>198</ele>
        <time>2018-08-04T15:52:44+02:00</time>
      </trkpt>
      <trkpt lat="44.49883" lon="1.88331">
        <ele>199</ele>
        <time>2018-08-04T15:52:49+02:00</time>
      </trkpt>
      <trkpt lat="44.49858" lon="1.88327">
        <ele>200</ele>
        <time>2018-08-04T15:52:55+02:00</time>
      </trkpt>
      <trkpt lat="44.49835" lon="1.88326">
        <ele>202</ele>
        <time>2018-08-04T15:53:00+02:00</time>
      </trkpt>
      <trkpt lat="44.49812" lon="1.88324">
        <ele>204</ele>
        <time>2018-08-04T15:53:05+02:00</time>
      </trkpt>
      <trkpt lat="44.49787" lon="1.8832">
        <ele>207</ele>
        <time>2018-08-04T15:53:12+02:00</time>
      </trkpt>
      <trkpt lat="44.49759" lon="1.88318">
        <ele>202</ele>
        <time>2018-08-04T15:53:17+02:00</time>
      </trkpt>
      <trkpt lat="44.49734" lon="1.88318">
        <ele>199</ele>
        <time>2018-08-04T15:53:22+02:00</time>
      </trkpt>
      <trkpt lat="44.49708" lon="1.88322">
        <ele>199</ele>
        <time>2018-08-04T15:53:27+02:00</time>
      </trkpt>
      <trkpt lat="44.49681" lon="1.88327">
        <ele>201</ele>
        <time>2018-08-04T15:53:33+02:00</time>
      </trkpt>
      <trkpt lat="44.49654" lon="1.88333">
        <ele>205</ele>
        <time>2018-08-04T15:53:39+02:00</time>
      </trkpt>
      <trkpt lat="44.49628" lon="1.88337">
        <ele>205</ele>
        <time>2018-08-04T15:53:45+02:00</time>
      </trkpt>
      <trkpt lat="44.49604" lon="1.8834">
        <ele>205</ele>
        <time>2018-08-04T15:53:50+02:00</time>
      </trkpt>
      <trkpt lat="44.4958" lon="1.88345">
        <ele>209</ele>
        <time>2018-08-04T15:53:56+02:00</time>
      </trkpt>
      <trkpt lat="44.49553" lon="1.88351">
        <ele>210</ele>
        <time>2018-08-04T15:54:01+02:00</time>
      </trkpt>
      <trkpt lat="44.49526" lon="1.88355">
        <ele>208</ele>
        <time>2018-08-04T15:54:06+02:00</time>
      </trkpt>
      <trkpt lat="44.49503" lon="1.88359">
        <ele>213</ele>
        <time>2018-08-04T15:54:12+02:00</time>
      </trkpt>
      <trkpt lat="44.49481" lon="1.88365">
        <ele>215</ele>
        <time>2018-08-04T15:54:18+02:00</time>
      </trkpt>
      <trkpt lat="44.49452" lon="1.88366">
        <ele>212</ele>
        <time>2018-08-04T15:54:23+02:00</time>
      </trkpt>
      <trkpt lat="44.49428" lon="1.88366">
        <ele>206</ele>
        <time>2018-08-04T15:54:28+02:00</time>
      </trkpt>
      <trkpt lat="44.49405" lon="1.88365">
        <ele>204</ele>
        <time>2018-08-04T15:54:33+02:00</time>
      </trkpt>
      <trkpt lat="44.49381" lon="1.88364">
        <ele>207</ele>
        <time>2018-08-04T15:54:40+02:00</time>
      </trkpt>
      <trkpt lat="44.49356" lon="1.88369">
        <ele>208</ele>
        <time>2018-08-04T15:54:46+02:00</time>
      </trkpt>
      <trkpt lat="44.4933" lon="1.88376">
        <ele>207</ele>
        <time>2018-08-04T15:54:51+02:00</time>
      </trkpt>
      <trkpt lat="44.49305" lon="1.88375">
        <ele>202</ele>
        <time>2018-08-04T15:54:56+02:00</time>
      </trkpt>
      <trkpt lat="44.49279" lon="1.88376">
        <ele>203</ele>
        <time>2018-08-04T15:55:01+02:00</time>
      </trkpt>
      <trkpt lat="44.49257" lon="1.88377">
        <ele>204</ele>
        <time>2018-08-04T15:55:07+02:00</time>
      </trkpt>
      <trkpt lat="44.49232" lon="1.88382">
        <ele>203</ele>
        <time>2018-08-04T15:55:12+02:00</time>
      </trkpt>
      <trkpt lat="44.49209" lon="1.88384">
        <ele>205</ele>
        <time>2018-08-04T15:55:16+02:00</time>
      </trkpt>
      <trkpt lat="44.49186" lon="1.88378">
        <ele>207</ele>
        <time>2018-08-04T15:55:22+02:00</time>
      </trkpt>
      <trkpt lat="44.49162" lon="1.8838">
        <ele>209</ele>
        <time>2018-08-04T15:55:28+02:00</time>
      </trkpt>
      <trkpt lat="44.49137" lon="1.88388">
        <ele>213</ele>
        <time>2018-08-04T15:55:33+02:00</time>
      </trkpt>
      <trkpt lat="44.49111" lon="1.88392">
        <ele>211</ele>
        <time>2018-08-04T15:55:39+02:00</time>
      </trkpt>
      <trkpt lat="44.49086" lon="1.88402">
        <ele>211</ele>
        <time>2018-08-04T15:55:44+02:00</time>
      </trkpt>
      <trkpt lat="44.49062" lon="1.88407">
        <ele>212</ele>
        <time>2018-08-04T15:55:50+02:00</time>
      </trkpt>
      <trkpt lat="44.49037" lon="1.88412">
        <ele>210</ele>
        <time>2018-08-04T15:55:55+02:00</time>
      </trkpt>
      <trkpt lat="44.49013" lon="1.88418">
        <ele>208</ele>
        <time>2018-08-04T15:56:00+02:00</time>
      </trkpt>
      <trkpt lat="44.48987" lon="1.88423">
        <ele>206</ele>
        <time>2018-08-04T15:56:06+02:00</time>
      </trkpt>
      <trkpt lat="44.48961" lon="1.88428">
        <ele>204</ele>
        <time>2018-08-04T15:56:12+02:00</time>
      </trkpt>
      <trkpt lat="44.48934" lon="1.8843">
        <ele>204</ele>
        <time>2018-08-04T15:56:17+02:00</time>
      </trkpt>
      <trkpt lat="44.48909" lon="1.88429">
        <ele>203</ele>
        <time>2018-08-04T15:56:22+02:00</time>
      </trkpt>
      <trkpt lat="44.48886" lon="1.88419">
        <ele>201</ele>
        <time>2018-08-04T15:56:27+02:00</time>
      </trkpt>
      <trkpt lat="44.48863" lon="1.88413">
        <ele>204</ele>
        <time>2018-08-04T15:56:32+02:00</time>
      </trkpt>
      <trkpt lat="44.4884" lon="1.88407">
        <ele>203</ele>
        <time>2018-08-04T15:56:37+02:00</time>
      </trkpt>
      <trkpt lat="44.48815" lon="1.884">
        <ele>202</ele>
        <time>2018-08-04T15:56:43+02:00</time>
      </trkpt>
      <trkpt lat="44.48788" lon="1.88395">
        <ele>202</ele>
        <time>2018-08-04T15:56:49+02:00</time>
      </trkpt>
      <trkpt lat="44.48764" lon="1.88389">
        <ele>205</ele>
        <time>2018-08-04T15:56:55+02:00</time>
      </trkpt>
      <trkpt lat="44.48742" lon="1.88382">
        <ele>205</ele>
        <time>2018-08-04T15:57:00+02:00</time>
      </trkpt>
      <trkpt lat="44.48717" lon="1.88372">
        <ele>205</ele>
        <time>2018-08-04T15:57:06+02:00</time>
      </trkpt>
      <trkpt lat="44.48694" lon="1.88363">
        <ele>202</ele>
        <time>2018-08-04T15:57:11+02:00</time>
      </trkpt>
      <trkpt lat="44.48671" lon="1.88347">
        <ele>204</ele>
        <time>2018-08-04T15:57:17+02:00</time>
      </trkpt>
      <trkpt lat="44.48652" lon="1.88331">
        <ele>203</ele>
        <time>2018-08-04T15:57:22+02:00</time>
      </trkpt>
      <trkpt lat="44.48636" lon="1.88305">
        <ele>204</ele>
        <time>2018-08-04T15:57:28+02:00</time>
      </trkpt>
      <trkpt lat="44.48623" lon="1.88275">
        <ele>202</ele>
        <time>2018-08-04T15:57:34+02:00</time>
      </trkpt>
      <trkpt lat="44.48615" lon="1.88242">
        <ele>202</ele>
        <time>2018-08-04T15:57:40+02:00</time>
      </trkpt>
      <trkpt lat="44.48612" lon="1.88209">
        <ele>203</ele>
        <time>2018-08-04T15:57:46+02:00</time>
      </trkpt>
      <trkpt lat="44.4861" lon="1.88178">
        <ele>202</ele>
        <time>2018-08-04T15:57:52+02:00</time>
      </trkpt>
      <trkpt lat="44.4861" lon="1.88143">
        <ele>201</ele>
        <time>2018-08-04T15:57:58+02:00</time>
      </trkpt>
      <trkpt lat="44.48612" lon="1.8811">
        <ele>202</ele>
        <time>2018-08-04T15:58:04+02:00</time>
      </trkpt>
      <trkpt lat="44.48614" lon="1.88077">
        <ele>200</ele>
        <time>2018-08-04T15:58:10+02:00</time>
      </trkpt>
      <trkpt lat="44.48615" lon="1.88044">
        <ele>202</ele>
        <time>2018-08-04T15:58:16+02:00</time>
      </trkpt>
      <trkpt lat="44.48616" lon="1.88008">
        <ele>204</ele>
        <time>2018-08-04T15:58:23+02:00</time>
      </trkpt>
      <trkpt lat="44.48617" lon="1.87974">
        <ele>203</ele>
        <time>2018-08-04T15:58:29+02:00</time>
      </trkpt>
      <trkpt lat="44.48618" lon="1.87941">
        <ele>202</ele>
        <time>2018-08-04T15:58:34+02:00</time>
      </trkpt>
      <trkpt lat="44.4862" lon="1.87906">
        <ele>202</ele>
        <time>2018-08-04T15:58:40+02:00</time>
      </trkpt>
      <trkpt lat="44.48622" lon="1.87875">
        <ele>201</ele>
        <time>2018-08-04T15:58:45+02:00</time>
      </trkpt>
      <trkpt lat="44.48625" lon="1.87838">
        <ele>200</ele>
        <time>2018-08-04T15:58:51+02:00</time>
      </trkpt>
      <trkpt lat="44.48631" lon="1.87803">
        <ele>201</ele>
        <time>2018-08-04T15:58:57+02:00</time>
      </trkpt>
      <trkpt lat="44.48638" lon="1.87773">
        <ele>197</ele>
        <time>2018-08-04T15:59:02+02:00</time>
      </trkpt>
      <trkpt lat="44.48647" lon="1.8774">
        <ele>195</ele>
        <time>2018-08-04T15:59:08+02:00</time>
      </trkpt>
      <trkpt lat="44.48654" lon="1.87706">
        <ele>194</ele>
        <time>2018-08-04T15:59:14+02:00</time>
      </trkpt>
      <trkpt lat="44.48661" lon="1.8767">
        <ele>194</ele>
        <time>2018-08-04T15:59:20+02:00</time>
      </trkpt>
      <trkpt lat="44.48667" lon="1.87636">
        <ele>195</ele>
        <time>2018-08-04T15:59:26+02:00</time>
      </trkpt>
      <trkpt lat="44.48673" lon="1.876">
        <ele>195</ele>
        <time>2018-08-04T15:59:32+02:00</time>
      </trkpt>
      <trkpt lat="44.48678" lon="1.87566">
        <ele>195</ele>
        <time>2018-08-04T15:59:38+02:00</time>
      </trkpt>
      <trkpt lat="44.48682" lon="1.87534">
        <ele>192</ele>
        <time>2018-08-04T15:59:43+02:00</time>
      </trkpt>
      <trkpt lat="44.48685" lon="1.87499">
        <ele>196</ele>
        <time>2018-08-04T15:59:49+02:00</time>
      </trkpt>
      <trkpt lat="44.48688" lon="1.87467">
        <ele>193</ele>
        <time>2018-08-04T15:59:54+02:00</time>
      </trkpt>
      <trkpt lat="44.4869" lon="1.87433">
        <ele>194</ele>
        <time>2018-08-04T16:00:00+02:00</time>
      </trkpt>
      <trkpt lat="44.48694" lon="1.87401">
        <ele>194</ele>
        <time>2018-08-04T16:00:05+02:00</time>
      </trkpt>
      <trkpt lat="44.48696" lon="1.87369">
        <ele>194</ele>
        <time>2018-08-04T16:00:10+02:00</time>
      </trkpt>
      <trkpt lat="44.48699" lon="1.87336">
        <ele>193</ele>
        <time>2018-08-04T16:00:15+02:00</time>
      </trkpt>
      <trkpt lat="44.48704" lon="1.87301">
        <ele>195</ele>
        <time>2018-08-04T16:00:21+02:00</time>
      </trkpt>
      <trkpt lat="44.48707" lon="1.87269">
        <ele>195</ele>
        <time>2018-08-04T16:00:26+02:00</time>
      </trkpt>
      <trkpt lat="44.48708" lon="1.87237">
        <ele>195</ele>
        <time>2018-08-04T16:00:31+02:00</time>
      </trkpt>
      <trkpt lat="44.48711" lon="1.87206">
        <ele>194</ele>
        <time>2018-08-04T16:00:36+02:00</time>
      </trkpt>
      <trkpt lat="44.48715" lon="1.87174">
        <ele>194</ele>
        <time>2018-08-04T16:00:41+02:00</time>
      </trkpt>
      <trkpt lat="44.48717" lon="1.8714">
        <ele>194</ele>
        <time>2018-08-04T16:00:46+02:00</time>
      </trkpt>
      <trkpt lat="44.48718" lon="1.87108">
        <ele>192</ele>
        <time>2018-08-04T16:00:51+02:00</time>
      </trkpt>
      <trkpt lat="44.48723" lon="1.87073">
        <ele>191</ele>
        <time>2018-08-04T16:00:57+02:00</time>
      </trkpt>
      <trkpt lat="44.48724" lon="1.8704">
        <ele>190</ele>
        <time>2018-08-04T16:01:02+02:00</time>
      </trkpt>
      <trkpt lat="44.48724" lon="1.87008">
        <ele>190</ele>
        <time>2018-08-04T16:01:07+02:00</time>
      </trkpt>
      <trkpt lat="44.48726" lon="1.86972">
        <ele>190</ele>
        <time>2018-08-04T16:01:13+02:00</time>
      </trkpt>
      <trkpt lat="44.48729" lon="1.86938">
        <ele>192</ele>
        <time>2018-08-04T16:01:19+02:00</time>
      </trkpt>
      <trkpt lat="44.48733" lon="1.86903">
        <ele>193</ele>
        <time>2018-08-04T16:01:25+02:00</time>
      </trkpt>
      <trkpt lat="44.48735" lon="1.86869">
        <ele>195</ele>
        <time>2018-08-04T16:01:31+02:00</time>
      </trkpt>
      <trkpt lat="44.48738" lon="1.86837">
        <ele>198</ele>
        <time>2018-08-04T16:01:37+02:00</time>
      </trkpt>
      <trkpt lat="44.48742" lon="1.86805">
        <ele>198</ele>
        <time>2018-08-04T16:01:43+02:00</time>
      </trkpt>
      <trkpt lat="44.48747" lon="1.86772">
        <ele>195</ele>
        <time>2018-08-04T16:01:49+02:00</time>
      </trkpt>
      <trkpt lat="44.48752" lon="1.86738">
        <ele>194</ele>
        <time>2018-08-04T16:01:55+02:00</time>
      </trkpt>
      <trkpt lat="44.48758" lon="1.86705">
        <ele>195</ele>
        <time>2018-08-04T16:02:02+02:00</time>
      </trkpt>
      <trkpt lat="44.48763" lon="1.86673">
        <ele>198</ele>
        <time>2018-08-04T16:02:09+02:00</time>
      </trkpt>
      <trkpt lat="44.48771" lon="1.86642">
        <ele>201</ele>
        <time>2018-08-04T16:02:17+02:00</time>
      </trkpt>
      <trkpt lat="44.48776" lon="1.8661">
        <ele>196</ele>
        <time>2018-08-04T16:02:23+02:00</time>
      </trkpt>
      <trkpt lat="44.4878" lon="1.86577">
        <ele>197</ele>
        <time>2018-08-04T16:02:30+02:00</time>
      </trkpt>
      <trkpt lat="44.48782" lon="1.86544">
        <ele>197</ele>
        <time>2018-08-04T16:02:37+02:00</time>
      </trkpt>
      <trkpt lat="44.48784" lon="1.86511">
        <ele>198</ele>
        <time>2018-08-04T16:02:45+02:00</time>
      </trkpt>
      <trkpt lat="44.48788" lon="1.86477">
        <ele>195</ele>
        <time>2018-08-04T16:02:53+02:00</time>
      </trkpt>
      <trkpt lat="44.48788" lon="1.86442">
        <ele>195</ele>
        <time>2018-08-04T16:03:00+02:00</time>
      </trkpt>
      <trkpt lat="44.4879" lon="1.86408">
        <ele>196</ele>
        <time>2018-08-04T16:03:06+02:00</time>
      </trkpt>
      <trkpt lat="44.48792" lon="1.86373">
        <ele>196</ele>
        <time>2018-08-04T16:03:12+02:00</time>
      </trkpt>
      <trkpt lat="44.48797" lon="1.8634">
        <ele>197</ele>
        <time>2018-08-04T16:03:18+02:00</time>
      </trkpt>
      <trkpt lat="44.488" lon="1.86308">
        <ele>196</ele>
        <time>2018-08-04T16:03:24+02:00</time>
      </trkpt>
      <trkpt lat="44.48804" lon="1.86275">
        <ele>197</ele>
        <time>2018-08-04T16:03:30+02:00</time>
      </trkpt>
      <trkpt lat="44.48809" lon="1.8624">
        <ele>197</ele>
        <time>2018-08-04T16:03:36+02:00</time>
      </trkpt>
      <trkpt lat="44.48812" lon="1.86206">
        <ele>198</ele>
        <time>2018-08-04T16:03:42+02:00</time>
      </trkpt>
      <trkpt lat="44.48813" lon="1.8617">
        <ele>194</ele>
        <time>2018-08-04T16:03:48+02:00</time>
      </trkpt>
      <trkpt lat="44.48812" lon="1.86135">
        <ele>195</ele>
        <time>2018-08-04T16:03:54+02:00</time>
      </trkpt>
      <trkpt lat="44.48811" lon="1.86102">
        <ele>197</ele>
        <time>2018-08-04T16:04:00+02:00</time>
      </trkpt>
      <trkpt lat="44.48809" lon="1.8607">
        <ele>194</ele>
        <time>2018-08-04T16:04:05+02:00</time>
      </trkpt>
      <trkpt lat="44.48806" lon="1.86036">
        <ele>196</ele>
        <time>2018-08-04T16:04:11+02:00</time>
      </trkpt>
      <trkpt lat="44.48802" lon="1.86005">
        <ele>195</ele>
        <time>2018-08-04T16:04:17+02:00</time>
      </trkpt>
      <trkpt lat="44.48798" lon="1.8597">
        <ele>192</ele>
        <time>2018-08-04T16:04:23+02:00</time>
      </trkpt>
      <trkpt lat="44.48793" lon="1.85937">
        <ele>195</ele>
        <time>2018-08-04T16:04:29+02:00</time>
      </trkpt>
      <trkpt lat="44.48787" lon="1.85906">
        <ele>196</ele>
        <time>2018-08-04T16:04:35+02:00</time>
      </trkpt>
      <trkpt lat="44.48778" lon="1.85872">
        <ele>197</ele>
        <time>2018-08-04T16:04:42+02:00</time>
      </trkpt>
      <trkpt lat="44.48765" lon="1.85841">
        <ele>201</ele>
        <time>2018-08-04T16:04:49+02:00</time>
      </trkpt>
      <trkpt lat="44.48751" lon="1.8581">
        <ele>201</ele>
        <time>2018-08-04T16:04:55+02:00</time>
      </trkpt>
      <trkpt lat="44.48741" lon="1.8578">
        <ele>200</ele>
        <time>2018-08-04T16:05:01+02:00</time>
      </trkpt>
      <trkpt lat="44.4873" lon="1.85748">
        <ele>200</ele>
        <time>2018-08-04T16:05:07+02:00</time>
      </trkpt>
      <trkpt lat="44.48718" lon="1.85716">
        <ele>201</ele>
        <time>2018-08-04T16:05:13+02:00</time>
      </trkpt>
      <trkpt lat="44.4871" lon="1.85684">
        <ele>198</ele>
        <time>2018-08-04T16:05:19+02:00</time>
      </trkpt>
      <trkpt lat="44.48702" lon="1.85651">
        <ele>198</ele>
        <time>2018-08-04T16:05:26+02:00</time>
      </trkpt>
      <trkpt lat="44.48693" lon="1.85621">
        <ele>198</ele>
        <time>2018-08-04T16:05:32+02:00</time>
      </trkpt>
      <trkpt lat="44.48685" lon="1.85592">
        <ele>200</ele>
        <time>2018-08-04T16:05:38+02:00</time>
      </trkpt>
      <trkpt lat="44.48678" lon="1.8556">
        <ele>198</ele>
        <time>2018-08-04T16:05:44+02:00</time>
      </trkpt>
      <trkpt lat="44.48671" lon="1.85528">
        <ele>198</ele>
        <time>2018-08-04T16:05:50+02:00</time>
      </trkpt>
      <trkpt lat="44.48661" lon="1.85494">
        <ele>197</ele>
        <time>2018-08-04T16:05:56+02:00</time>
      </trkpt>
      <trkpt lat="44.48651" lon="1.85463">
        <ele>197</ele>
        <time>2018-08-04T16:06:03+02:00</time>
      </trkpt>
      <trkpt lat="44.48641" lon="1.85434">
        <ele>197</ele>
        <time>2018-08-04T16:06:09+02:00</time>
      </trkpt>
      <trkpt lat="44.48631" lon="1.85401">
        <ele>196</ele>
        <time>2018-08-04T16:06:16+02:00</time>
      </trkpt>
      <trkpt lat="44.48621" lon="1.85367">
        <ele>196</ele>
        <time>2018-08-04T16:06:24+02:00</time>
      </trkpt>
      <trkpt lat="44.48603" lon="1.85347">
        <ele>199</ele>
        <time>2018-08-04T16:18:50+02:00</time>
      </trkpt>
      <trkpt lat="44.48597" lon="1.85316">
        <ele>205</ele>
        <time>2018-08-04T16:18:58+02:00</time>
      </trkpt>
      <trkpt lat="44.48587" lon="1.8528">
        <ele>209</ele>
        <time>2018-08-04T16:19:05+02:00</time>
      </trkpt>
      <trkpt lat="44.4858" lon="1.85249">
        <ele>205</ele>
        <time>2018-08-04T16:19:10+02:00</time>
      </trkpt>
      <trkpt lat="44.48572" lon="1.85218">
        <ele>202</ele>
        <time>2018-08-04T16:19:16+02:00</time>
      </trkpt>
      <trkpt lat="44.48563" lon="1.85188">
        <ele>201</ele>
        <time>2018-08-04T16:19:22+02:00</time>
      </trkpt>
      <trkpt lat="44.48552" lon="1.85156">
        <ele>197</ele>
        <time>2018-08-04T16:19:29+02:00</time>
      </trkpt>
      <trkpt lat="44.48541" lon="1.85125">
        <ele>196</ele>
        <time>2018-08-04T16:19:36+02:00</time>
      </trkpt>
      <trkpt lat="44.4853" lon="1.85093">
        <ele>197</ele>
        <time>2018-08-04T16:19:44+02:00</time>
      </trkpt>
      <trkpt lat="44.4852" lon="1.85064">
        <ele>197</ele>
        <time>2018-08-04T16:19:51+02:00</time>
      </trkpt>
      <trkpt lat="44.48512" lon="1.85033">
        <ele>198</ele>
        <time>2018-08-04T16:19:58+02:00</time>
      </trkpt>
      <trkpt lat="44.4851" lon="1.85001">
        <ele>202</ele>
        <time>2018-08-04T16:20:07+02:00</time>
      </trkpt>
      <trkpt lat="44.48499" lon="1.84972">
        <ele>200</ele>
        <time>2018-08-04T16:20:14+02:00</time>
      </trkpt>
      <trkpt lat="44.48489" lon="1.8494">
        <ele>197</ele>
        <time>2018-08-04T16:20:21+02:00</time>
      </trkpt>
      <trkpt lat="44.4848" lon="1.84906">
        <ele>196</ele>
        <time>2018-08-04T16:20:29+02:00</time>
      </trkpt>
      <trkpt lat="44.48471" lon="1.84877">
        <ele>200</ele>
        <time>2018-08-04T16:20:37+02:00</time>
      </trkpt>
      <trkpt lat="44.48464" lon="1.84843">
        <ele>197</ele>
        <time>2018-08-04T16:20:44+02:00</time>
      </trkpt>
      <trkpt lat="44.48456" lon="1.84812">
        <ele>201</ele>
        <time>2018-08-04T16:20:51+02:00</time>
      </trkpt>
      <trkpt lat="44.48446" lon="1.84782">
        <ele>203</ele>
        <time>2018-08-04T16:20:57+02:00</time>
      </trkpt>
      <trkpt lat="44.48436" lon="1.8475">
        <ele>202</ele>
        <time>2018-08-04T16:21:04+02:00</time>
      </trkpt>
      <trkpt lat="44.48426" lon="1.84718">
        <ele>201</ele>
        <time>2018-08-04T16:21:11+02:00</time>
      </trkpt>
      <trkpt lat="44.48416" lon="1.84685">
        <ele>202</ele>
        <time>2018-08-04T16:21:18+02:00</time>
      </trkpt>
      <trkpt lat="44.48404" lon="1.84658">
        <ele>200</ele>
        <time>2018-08-04T16:21:25+02:00</time>
      </trkpt>
      <trkpt lat="44.48397" lon="1.84625">
        <ele>199</ele>
        <time>2018-08-04T16:21:33+02:00</time>
      </trkpt>
      <trkpt lat="44.48388" lon="1.84592">
        <ele>196</ele>
        <time>2018-08-04T16:21:44+02:00</time>
      </trkpt>
      <trkpt lat="44.48376" lon="1.8456">
        <ele>196</ele>
        <time>2018-08-04T16:21:54+02:00</time>
      </trkpt>
      <trkpt lat="44.48372" lon="1.84529">
        <ele>200</ele>
        <time>2018-08-04T16:22:03+02:00</time>
      </trkpt>
      <trkpt lat="44.48367" lon="1.84496">
        <ele>197</ele>
        <time>2018-08-04T16:22:18+02:00</time>
      </trkpt>
      <trkpt lat="44.48354" lon="1.84471">
        <ele>197</ele>
        <time>2018-08-04T16:22:32+02:00</time>
      </trkpt>
      <trkpt lat="44.48361" lon="1.84502">
        <ele>201</ele>
        <time>2018-08-04T16:23:29+02:00</time>
      </trkpt>
      <trkpt lat="44.48378" lon="1.84522">
        <ele>195</ele>
        <time>2018-08-04T16:23:48+02:00</time>
      </trkpt>
      <trkpt lat="44.484" lon="1.8453">
        <ele>196</ele>
        <time>2018-08-04T16:24:13+02:00</time>
      </trkpt>
      <trkpt lat="44.48408" lon="1.8456">
        <ele>199</ele>
        <time>2018-08-04T16:24:55+02:00</time>
      </trkpt>
      <trkpt lat="44.48419" lon="1.8459">
        <ele>204</ele>
        <time>2018-08-04T16:25:23+02:00</time>
      </trkpt>
      <trkpt lat="44.48411" lon="1.84559">
        <ele>203</ele>
        <time>2018-08-04T16:26:14+02:00</time>
      </trkpt>
      <trkpt lat="44.48395" lon="1.84532">
        <ele>203</ele>
        <time>2018-08-04T16:26:42+02:00</time>
      </trkpt>
      <trkpt lat="44.48372" lon="1.84534">
        <ele>201</ele>
        <time>2018-08-04T16:27:02+02:00</time>
      </trkpt>
      <trkpt lat="44.48358" lon="1.84507">
        <ele>193</ele>
        <time>2018-08-04T16:27:47+02:00</time>
      </trkpt>
      <trkpt lat="44.48352" lon="1.84476">
        <ele>191</ele>
        <time>2018-08-04T16:28:06+02:00</time>
      </trkpt>
      <trkpt lat="44.48371" lon="1.84454">
        <ele>196</ele>
        <time>2018-08-04T16:41:22+02:00</time>
      </trkpt>
      <trkpt lat="44.48352" lon="1.84432">
        <ele>205</ele>
        <time>2018-08-04T16:41:42+02:00</time>
      </trkpt>
      <trkpt lat="44.48347" lon="1.84402">
        <ele>204</ele>
        <time>2018-08-04T16:41:51+02:00</time>
      </trkpt>
      <trkpt lat="44.48334" lon="1.8437">
        <ele>201</ele>
        <time>2018-08-04T16:42:00+02:00</time>
      </trkpt>
      <trkpt lat="44.48324" lon="1.84339">
        <ele>204</ele>
        <time>2018-08-04T16:42:14+02:00</time>
      </trkpt>
      <trkpt lat="44.4831" lon="1.84314">
        <ele>199</ele>
        <time>2018-08-04T16:42:35+02:00</time>
      </trkpt>
      <trkpt lat="44.48304" lon="1.8432">
        <ele>198</ele>
        <time>2018-08-04T17:23:48+02:00</time>
      </trkpt>
      <trkpt lat="44.4832" lon="1.84296">
        <ele>202</ele>
        <time>2018-08-04T17:26:04+02:00</time>
      </trkpt>
      <trkpt lat="44.48345" lon="1.84291">
        <ele>202</ele>
        <time>2018-08-04T17:26:13+02:00</time>
      </trkpt>
      <trkpt lat="44.48367" lon="1.84278">
        <ele>200</ele>
        <time>2018-08-04T17:26:22+02:00</time>
      </trkpt>
      <trkpt lat="44.4839" lon="1.8427">
        <ele>201</ele>
        <time>2018-08-04T17:26:31+02:00</time>
      </trkpt>
      <trkpt lat="44.48414" lon="1.84267">
        <ele>201</ele>
        <time>2018-08-04T17:26:41+02:00</time>
      </trkpt>
      <trkpt lat="44.48436" lon="1.84257">
        <ele>198</ele>
        <time>2018-08-04T17:26:49+02:00</time>
      </trkpt>
      <trkpt lat="44.48459" lon="1.84253">
        <ele>202</ele>
        <time>2018-08-04T17:27:02+02:00</time>
      </trkpt>
      <trkpt lat="44.48476" lon="1.84231">
        <ele>208</ele>
        <time>2018-08-04T17:27:16+02:00</time>
      </trkpt>
      <trkpt lat="44.48491" lon="1.84208">
        <ele>206</ele>
        <time>2018-08-04T17:27:29+02:00</time>
      </trkpt>
      <trkpt lat="44.48509" lon="1.84187">
        <ele>215</ele>
        <time>2018-08-04T17:27:56+02:00</time>
      </trkpt>
      <trkpt lat="44.4853" lon="1.84176">
        <ele>219</ele>
        <time>2018-08-04T17:28:27+02:00</time>
      </trkpt>
      <trkpt lat="44.48552" lon="1.84168">
        <ele>208</ele>
        <time>2018-08-04T17:28:54+02:00</time>
      </trkpt>
      <trkpt lat="44.48574" lon="1.84178">
        <ele>203</ele>
        <time>2018-08-04T17:29:17+02:00</time>
      </trkpt>
      <trkpt lat="44.48596" lon="1.84187">
        <ele>203</ele>
        <time>2018-08-04T17:29:33+02:00</time>
      </trkpt>
      <trkpt lat="44.48619" lon="1.84194">
        <ele>207</ele>
        <time>2018-08-04T17:29:45+02:00</time>
      </trkpt>
      <trkpt lat="44.4864" lon="1.84209">
        <ele>203</ele>
        <time>2018-08-04T17:29:56+02:00</time>
      </trkpt>
      <trkpt lat="44.4866" lon="1.84223">
        <ele>201</ele>
        <time>2018-08-04T17:30:07+02:00</time>
      </trkpt>
      <trkpt lat="44.48678" lon="1.84248">
        <ele>207</ele>
        <time>2018-08-04T17:30:16+02:00</time>
      </trkpt>
      <trkpt lat="44.48672" lon="1.84279">
        <ele>211</ele>
        <time>2018-08-04T17:30:56+02:00</time>
      </trkpt>
      <trkpt lat="44.48658" lon="1.84304">
        <ele>207</ele>
        <time>2018-08-04T17:31:54+02:00</time>
      </trkpt>
      <trkpt lat="44.4868" lon="1.84293">
        <ele>205</ele>
        <time>2018-08-04T17:35:05+02:00</time>
      </trkpt>
      <trkpt lat="44.48692" lon="1.84262">
        <ele>207</ele>
        <time>2018-08-04T17:35:25+02:00</time>
      </trkpt>
      <trkpt lat="44.48686" lon="1.84232">
        <ele>202</ele>
        <time>2018-08-04T17:35:38+02:00</time>
      </trkpt>
      <trkpt lat="44.48676" lon="1.84203">
        <ele>198</ele>
        <time>2018-08-04T17:39:34+02:00</time>
      </trkpt>
      <trkpt lat="44.48652" lon="1.84193">
        <ele>201</ele>
        <time>2018-08-04T17:39:56+02:00</time>
      </trkpt>
      <trkpt lat="44.48631" lon="1.84178">
        <ele>204</ele>
        <time>2018-08-04T17:40:26+02:00</time>
      </trkpt>
      <trkpt lat="44.48607" lon="1.84169">
        <ele>204</ele>
        <time>2018-08-04T17:40:36+02:00</time>
      </trkpt>
      <trkpt lat="44.48594" lon="1.84142">
        <ele>201</ele>
        <time>2018-08-04T17:40:43+02:00</time>
      </trkpt>
      <trkpt lat="44.48593" lon="1.84109">
        <ele>203</ele>
        <time>2018-08-04T17:40:51+02:00</time>
      </trkpt>
      <trkpt lat="44.48589" lon="1.84078">
        <ele>205</ele>
        <time>2018-08-04T17:40:57+02:00</time>
      </trkpt>
      <trkpt lat="44.48592" lon="1.84043">
        <ele>203</ele>
        <time>2018-08-04T17:41:04+02:00</time>
      </trkpt>
      <trkpt lat="44.4859" lon="1.84009">
        <ele>205</ele>
        <time>2018-08-04T17:41:11+02:00</time>
      </trkpt>
      <trkpt lat="44.48589" lon="1.83975">
        <ele>210</ele>
        <time>2018-08-04T17:41:17+02:00</time>
      </trkpt>
      <trkpt lat="44.4859" lon="1.83941">
        <ele>209</ele>
        <time>2018-08-04T17:41:25+02:00</time>
      </trkpt>
      <trkpt lat="44.4859" lon="1.83908">
        <ele>215</ele>
        <time>2018-08-04T17:41:33+02:00</time>
      </trkpt>
      <trkpt lat="44.48575" lon="1.83882">
        <ele>212</ele>
        <time>2018-08-04T17:41:41+02:00</time>
      </trkpt>
      <trkpt lat="44.48556" lon="1.83862">
        <ele>211</ele>
        <time>2018-08-04T17:41:48+02:00</time>
      </trkpt>
      <trkpt lat="44.48535" lon="1.83845">
        <ele>214</ele>
        <time>2018-08-04T17:41:57+02:00</time>
      </trkpt>
      <trkpt lat="44.48512" lon="1.83837">
        <ele>216</ele>
        <time>2018-08-04T17:42:05+02:00</time>
      </trkpt>
      <trkpt lat="44.4849" lon="1.83825">
        <ele>217</ele>
        <time>2018-08-04T17:42:15+02:00</time>
      </trkpt>
      <trkpt lat="44.48468" lon="1.83814">
        <ele>212</ele>
        <time>2018-08-04T17:42:21+02:00</time>
      </trkpt>
      <trkpt lat="44.48444" lon="1.83803">
        <ele>212</ele>
        <time>2018-08-04T17:42:29+02:00</time>
      </trkpt>
      <trkpt lat="44.48419" lon="1.83793">
        <ele>212</ele>
        <time>2018-08-04T17:42:36+02:00</time>
      </trkpt>
      <trkpt lat="44.48396" lon="1.83782">
        <ele>214</ele>
        <time>2018-08-04T17:42:45+02:00</time>
      </trkpt>
      <trkpt lat="44.48374" lon="1.8377">
        <ele>215</ele>
        <time>2018-08-04T17:42:52+02:00</time>
      </trkpt>
      <trkpt lat="44.48352" lon="1.83762">
        <ele>214</ele>
        <time>2018-08-04T17:42:58+02:00</time>
      </trkpt>
      <trkpt lat="44.48327" lon="1.83752">
        <ele>218</ele>
        <time>2018-08-04T17:43:05+02:00</time>
      </trkpt>
      <trkpt lat="44.48305" lon="1.83739">
        <ele>224</ele>
        <time>2018-08-04T17:43:11+02:00</time>
      </trkpt>
      <trkpt lat="44.48282" lon="1.83728">
        <ele>223</ele>
        <time>2018-08-04T17:43:17+02:00</time>
      </trkpt>
      <trkpt lat="44.48257" lon="1.8372">
        <ele>220</ele>
        <time>2018-08-04T17:43:23+02:00</time>
      </trkpt>
      <trkpt lat="44.48231" lon="1.83714">
        <ele>222</ele>
        <time>2018-08-04T17:43:30+02:00</time>
      </trkpt>
      <trkpt lat="44.48205" lon="1.83707">
        <ele>223</ele>
        <time>2018-08-04T17:43:38+02:00</time>
      </trkpt>
      <trkpt lat="44.48181" lon="1.83701">
        <ele>221</ele>
        <time>2018-08-04T17:43:45+02:00</time>
      </trkpt>
      <trkpt lat="44.48158" lon="1.83695">
        <ele>213</ele>
        <time>2018-08-04T17:43:49+02:00</time>
      </trkpt>
      <trkpt lat="44.48135" lon="1.83686">
        <ele>214</ele>
        <time>2018-08-04T17:43:57+02:00</time>
      </trkpt>
      <trkpt lat="44.48113" lon="1.83675">
        <ele>218</ele>
        <time>2018-08-04T17:44:06+02:00</time>
      </trkpt>
      <trkpt lat="44.48091" lon="1.83665">
        <ele>219</ele>
        <time>2018-08-04T17:44:13+02:00</time>
      </trkpt>
      <trkpt lat="44.48066" lon="1.83661">
        <ele>222</ele>
        <time>2018-08-04T17:44:20+02:00</time>
      </trkpt>
      <trkpt lat="44.48042" lon="1.83655">
        <ele>222</ele>
        <time>2018-08-04T17:44:28+02:00</time>
      </trkpt>
      <trkpt lat="44.4802" lon="1.83644">
        <ele>224</ele>
        <time>2018-08-04T17:44:36+02:00</time>
      </trkpt>
      <trkpt lat="44.47998" lon="1.83631">
        <ele>226</ele>
        <time>2018-08-04T17:44:44+02:00</time>
      </trkpt>
      <trkpt lat="44.47974" lon="1.83624">
        <ele>226</ele>
        <time>2018-08-04T17:44:51+02:00</time>
      </trkpt>
      <trkpt lat="44.47951" lon="1.83622">
        <ele>218</ele>
        <time>2018-08-04T17:44:58+02:00</time>
      </trkpt>
      <trkpt lat="44.47926" lon="1.83615">
        <ele>219</ele>
        <time>2018-08-04T17:45:06+02:00</time>
      </trkpt>
      <trkpt lat="44.47903" lon="1.8361">
        <ele>221</ele>
        <time>2018-08-04T17:45:12+02:00</time>
      </trkpt>
      <trkpt lat="44.47878" lon="1.8361">
        <ele>222</ele>
        <time>2018-08-04T17:45:20+02:00</time>
      </trkpt>
      <trkpt lat="44.47853" lon="1.83611">
        <ele>221</ele>
        <time>2018-08-04T17:45:27+02:00</time>
      </trkpt>
      <trkpt lat="44.47829" lon="1.83612">
        <ele>223</ele>
        <time>2018-08-04T17:45:34+02:00</time>
      </trkpt>
      <trkpt lat="44.47804" lon="1.83616">
        <ele>225</ele>
        <time>2018-08-04T17:46:12+02:00</time>
      </trkpt>
      <trkpt lat="44.47769" lon="1.83624">
        <ele>227</ele>
        <time>2018-08-04T17:46:22+02:00</time>
      </trkpt>
      <trkpt lat="44.47745" lon="1.83633">
        <ele>229</ele>
        <time>2018-08-04T17:47:03+02:00</time>
      </trkpt>
      <trkpt lat="44.47721" lon="1.83629">
        <ele>225</ele>
        <time>2018-08-04T17:47:09+02:00</time>
      </trkpt>
      <trkpt lat="44.47694" lon="1.83631">
        <ele>225</ele>
        <time>2018-08-04T17:47:14+02:00</time>
      </trkpt>
      <trkpt lat="44.4767" lon="1.83625">
        <ele>227</ele>
        <time>2018-08-04T17:47:19+02:00</time>
      </trkpt>
      <trkpt lat="44.47651" lon="1.83602">
        <ele>229</ele>
        <time>2018-08-04T17:47:26+02:00</time>
      </trkpt>
      <trkpt lat="44.47628" lon="1.83587">
        <ele>231</ele>
        <time>2018-08-04T17:47:33+02:00</time>
      </trkpt>
      <trkpt lat="44.47611" lon="1.83562">
        <ele>233</ele>
        <time>2018-08-04T17:47:42+02:00</time>
      </trkpt>
      <trkpt lat="44.47592" lon="1.83537">
        <ele>233</ele>
        <time>2018-08-04T17:47:49+02:00</time>
      </trkpt>
      <trkpt lat="44.47578" lon="1.83504">
        <ele>237</ele>
        <time>2018-08-04T17:47:57+02:00</time>
      </trkpt>
      <trkpt lat="44.47562" lon="1.83474">
        <ele>238</ele>
        <time>2018-08-04T17:48:04+02:00</time>
      </trkpt>
      <trkpt lat="44.47546" lon="1.83449">
        <ele>237</ele>
        <time>2018-08-04T17:48:10+02:00</time>
      </trkpt>
      <trkpt lat="44.47535" lon="1.83418">
        <ele>233</ele>
        <time>2018-08-04T17:48:16+02:00</time>
      </trkpt>
      <trkpt lat="44.47542" lon="1.83387">
        <ele>234</ele>
        <time>2018-08-04T17:48:23+02:00</time>
      </trkpt>
      <trkpt lat="44.4756" lon="1.83368">
        <ele>235</ele>
        <time>2018-08-04T17:48:28+02:00</time>
      </trkpt>
      <trkpt lat="44.47577" lon="1.83345">
        <ele>230</ele>
        <time>2018-08-04T17:48:34+02:00</time>
      </trkpt>
      <trkpt lat="44.47597" lon="1.83324">
        <ele>228</ele>
        <time>2018-08-04T17:48:40+02:00</time>
      </trkpt>
      <trkpt lat="44.4762" lon="1.83306">
        <ele>230</ele>
        <time>2018-08-04T17:48:46+02:00</time>
      </trkpt>
      <trkpt lat="44.47644" lon="1.83298">
        <ele>229</ele>
        <time>2018-08-04T17:48:52+02:00</time>
      </trkpt>
      <trkpt lat="44.47668" lon="1.83297">
        <ele>231</ele>
        <time>2018-08-04T17:48:58+02:00</time>
      </trkpt>
      <trkpt lat="44.47693" lon="1.83299">
        <ele>230</ele>
        <time>2018-08-04T17:49:04+02:00</time>
      </trkpt>
      <trkpt lat="44.47718" lon="1.83302">
        <ele>232</ele>
        <time>2018-08-04T17:49:10+02:00</time>
      </trkpt>
      <trkpt lat="44.47741" lon="1.83294">
        <ele>232</ele>
        <time>2018-08-04T17:49:16+02:00</time>
      </trkpt>
      <trkpt lat="44.47762" lon="1.83274">
        <ele>232</ele>
        <time>2018-08-04T17:49:22+02:00</time>
      </trkpt>
      <trkpt lat="44.47776" lon="1.83248">
        <ele>232</ele>
        <time>2018-08-04T17:49:27+02:00</time>
      </trkpt>
      <trkpt lat="44.47784" lon="1.83215">
        <ele>231</ele>
        <time>2018-08-04T17:49:32+02:00</time>
      </trkpt>
      <trkpt lat="44.4779" lon="1.83181">
        <ele>232</ele>
        <time>2018-08-04T17:49:37+02:00</time>
      </trkpt>
      <trkpt lat="44.47798" lon="1.83149">
        <ele>236</ele>
        <time>2018-08-04T17:49:42+02:00</time>
      </trkpt>
      <trkpt lat="44.47804" lon="1.83116">
        <ele>236</ele>
        <time>2018-08-04T17:49:48+02:00</time>
      </trkpt>
      <trkpt lat="44.47803" lon="1.83084">
        <ele>234</ele>
        <time>2018-08-04T17:49:53+02:00</time>
      </trkpt>
      <trkpt lat="44.47804" lon="1.83052">
        <ele>235</ele>
        <time>2018-08-04T17:49:58+02:00</time>
      </trkpt>
      <trkpt lat="44.47806" lon="1.83016">
        <ele>238</ele>
        <time>2018-08-04T17:50:04+02:00</time>
      </trkpt>
      <trkpt lat="44.47806" lon="1.82978">
        <ele>237</ele>
        <time>2018-08-04T17:50:10+02:00</time>
      </trkpt>
      <trkpt lat="44.47812" lon="1.82939">
        <ele>238</ele>
        <time>2018-08-04T17:50:16+02:00</time>
      </trkpt>
      <trkpt lat="44.47817" lon="1.82904">
        <ele>238</ele>
        <time>2018-08-04T17:50:21+02:00</time>
      </trkpt>
      <trkpt lat="44.47821" lon="1.8287">
        <ele>236</ele>
        <time>2018-08-04T17:50:27+02:00</time>
      </trkpt>
      <trkpt lat="44.47822" lon="1.82835">
        <ele>235</ele>
        <time>2018-08-04T17:50:33+02:00</time>
      </trkpt>
      <trkpt lat="44.4782" lon="1.82802">
        <ele>231</ele>
        <time>2018-08-04T17:50:37+02:00</time>
      </trkpt>
      <trkpt lat="44.4782" lon="1.82768">
        <ele>227</ele>
        <time>2018-08-04T17:50:43+02:00</time>
      </trkpt>
      <trkpt lat="44.47824" lon="1.82735">
        <ele>226</ele>
        <time>2018-08-04T17:50:49+02:00</time>
      </trkpt>
      <trkpt lat="44.47822" lon="1.82701">
        <ele>226</ele>
        <time>2018-08-04T17:50:54+02:00</time>
      </trkpt>
      <trkpt lat="44.47822" lon="1.82669">
        <ele>225</ele>
        <time>2018-08-04T17:51:00+02:00</time>
      </trkpt>
      <trkpt lat="44.47814" lon="1.82639">
        <ele>228</ele>
        <time>2018-08-04T17:51:03+02:00</time>
      </trkpt>
      <trkpt lat="44.47814" lon="1.82606">
        <ele>230</ele>
        <time>2018-08-04T17:51:09+02:00</time>
      </trkpt>
      <trkpt lat="44.47811" lon="1.82566">
        <ele>227</ele>
        <time>2018-08-04T17:51:14+02:00</time>
      </trkpt>
      <trkpt lat="44.47806" lon="1.82531">
        <ele>227</ele>
        <time>2018-08-04T17:51:19+02:00</time>
      </trkpt>
      <trkpt lat="44.47799" lon="1.82496">
        <ele>228</ele>
        <time>2018-08-04T17:51:25+02:00</time>
      </trkpt>
      <trkpt lat="44.47802" lon="1.82464">
        <ele>227</ele>
        <time>2018-08-04T17:51:31+02:00</time>
      </trkpt>
      <trkpt lat="44.47791" lon="1.82432">
        <ele>230</ele>
        <time>2018-08-04T17:51:36+02:00</time>
      </trkpt>
      <trkpt lat="44.47785" lon="1.82398">
        <ele>229</ele>
        <time>2018-08-04T17:51:41+02:00</time>
      </trkpt>
      <trkpt lat="44.47787" lon="1.82366">
        <ele>230</ele>
        <time>2018-08-04T17:51:46+02:00</time>
      </trkpt>
      <trkpt lat="44.47781" lon="1.82332">
        <ele>233</ele>
        <time>2018-08-04T17:51:51+02:00</time>
      </trkpt>
      <trkpt lat="44.47778" lon="1.823">
        <ele>233</ele>
        <time>2018-08-04T17:51:56+02:00</time>
      </trkpt>
      <trkpt lat="44.47774" lon="1.82262">
        <ele>232</ele>
        <time>2018-08-04T17:52:02+02:00</time>
      </trkpt>
      <trkpt lat="44.47765" lon="1.82225">
        <ele>229</ele>
        <time>2018-08-04T17:52:07+02:00</time>
      </trkpt>
      <trkpt lat="44.47757" lon="1.82191">
        <ele>230</ele>
        <time>2018-08-04T17:52:13+02:00</time>
      </trkpt>
      <trkpt lat="44.47756" lon="1.82157">
        <ele>233</ele>
        <time>2018-08-04T17:52:19+02:00</time>
      </trkpt>
      <trkpt lat="44.47749" lon="1.82121">
        <ele>234</ele>
        <time>2018-08-04T17:52:25+02:00</time>
      </trkpt>
      <trkpt lat="44.47743" lon="1.82089">
        <ele>230</ele>
        <time>2018-08-04T17:52:30+02:00</time>
      </trkpt>
      <trkpt lat="44.4773" lon="1.82056">
        <ele>231</ele>
        <time>2018-08-04T17:52:36+02:00</time>
      </trkpt>
      <trkpt lat="44.47726" lon="1.82022">
        <ele>233</ele>
        <time>2018-08-04T17:52:41+02:00</time>
      </trkpt>
      <trkpt lat="44.4771" lon="1.81991">
        <ele>237</ele>
        <time>2018-08-04T17:52:47+02:00</time>
      </trkpt>
      <trkpt lat="44.47696" lon="1.81958">
        <ele>237</ele>
        <time>2018-08-04T17:52:53+02:00</time>
      </trkpt>
      <trkpt lat="44.47682" lon="1.81929">
        <ele>239</ele>
        <time>2018-08-04T17:52:59+02:00</time>
      </trkpt>
      <trkpt lat="44.47665" lon="1.81897">
        <ele>237</ele>
        <time>2018-08-04T17:53:05+02:00</time>
      </trkpt>
      <trkpt lat="44.47653" lon="1.81869">
        <ele>237</ele>
        <time>2018-08-04T17:53:10+02:00</time>
      </trkpt>
      <trkpt lat="44.47638" lon="1.8184">
        <ele>237</ele>
        <time>2018-08-04T17:53:15+02:00</time>
      </trkpt>
      <trkpt lat="44.4763" lon="1.81811">
        <ele>236</ele>
        <time>2018-08-04T17:53:21+02:00</time>
      </trkpt>
      <trkpt lat="44.47616" lon="1.81786">
        <ele>235</ele>
        <time>2018-08-04T17:53:26+02:00</time>
      </trkpt>
      <trkpt lat="44.47598" lon="1.81764">
        <ele>239</ele>
        <time>2018-08-04T17:53:30+02:00</time>
      </trkpt>
      <trkpt lat="44.47579" lon="1.81741">
        <ele>242</ele>
        <time>2018-08-04T17:53:35+02:00</time>
      </trkpt>
      <trkpt lat="44.47565" lon="1.81712">
        <ele>239</ele>
        <time>2018-08-04T17:53:40+02:00</time>
      </trkpt>
      <trkpt lat="44.47548" lon="1.81687">
        <ele>240</ele>
        <time>2018-08-04T17:53:46+02:00</time>
      </trkpt>
      <trkpt lat="44.47524" lon="1.81673">
        <ele>237</ele>
        <time>2018-08-04T17:53:51+02:00</time>
      </trkpt>
      <trkpt lat="44.47506" lon="1.81654">
        <ele>237</ele>
        <time>2018-08-04T17:53:56+02:00</time>
      </trkpt>
      <trkpt lat="44.47495" lon="1.81625">
        <ele>236</ele>
        <time>2018-08-04T17:54:01+02:00</time>
      </trkpt>
      <trkpt lat="44.47491" lon="1.81592">
        <ele>235</ele>
        <time>2018-08-04T17:54:06+02:00</time>
      </trkpt>
      <trkpt lat="44.47488" lon="1.81561">
        <ele>234</ele>
        <time>2018-08-04T17:54:11+02:00</time>
      </trkpt>
      <trkpt lat="44.47487" lon="1.81529">
        <ele>234</ele>
        <time>2018-08-04T17:54:16+02:00</time>
      </trkpt>
      <trkpt lat="44.47485" lon="1.81492">
        <ele>231</ele>
        <time>2018-08-04T17:54:22+02:00</time>
      </trkpt>
      <trkpt lat="44.47489" lon="1.81461">
        <ele>229</ele>
        <time>2018-08-04T17:54:27+02:00</time>
      </trkpt>
      <trkpt lat="44.47498" lon="1.81432">
        <ele>228</ele>
        <time>2018-08-04T17:54:32+02:00</time>
      </trkpt>
      <trkpt lat="44.47509" lon="1.81404">
        <ele>226</ele>
        <time>2018-08-04T17:54:37+02:00</time>
      </trkpt>
      <trkpt lat="44.47524" lon="1.81379">
        <ele>224</ele>
        <time>2018-08-04T17:54:42+02:00</time>
      </trkpt>
      <trkpt lat="44.47546" lon="1.81366">
        <ele>226</ele>
        <time>2018-08-04T17:54:48+02:00</time>
      </trkpt>
      <trkpt lat="44.4757" lon="1.81365">
        <ele>227</ele>
        <time>2018-08-04T17:54:53+02:00</time>
      </trkpt>
      <trkpt lat="44.47593" lon="1.81364">
        <ele>225</ele>
        <time>2018-08-04T17:54:58+02:00</time>
      </trkpt>
      <trkpt lat="44.47618" lon="1.81357">
        <ele>225</ele>
        <time>2018-08-04T17:55:04+02:00</time>
      </trkpt>
      <trkpt lat="44.47639" lon="1.81343">
        <ele>226</ele>
        <time>2018-08-04T17:55:09+02:00</time>
      </trkpt>
      <trkpt lat="44.47663" lon="1.81331">
        <ele>229</ele>
        <time>2018-08-04T17:55:15+02:00</time>
      </trkpt>
      <trkpt lat="44.47684" lon="1.81309">
        <ele>234</ele>
        <time>2018-08-04T17:55:22+02:00</time>
      </trkpt>
      <trkpt lat="44.47694" lon="1.81276">
        <ele>238</ele>
        <time>2018-08-04T17:55:28+02:00</time>
      </trkpt>
      <trkpt lat="44.47694" lon="1.81238">
        <ele>238</ele>
        <time>2018-08-04T17:55:34+02:00</time>
      </trkpt>
      <trkpt lat="44.47687" lon="1.81204">
        <ele>237</ele>
        <time>2018-08-04T17:55:39+02:00</time>
      </trkpt>
      <trkpt lat="44.47681" lon="1.81172">
        <ele>239</ele>
        <time>2018-08-04T17:55:44+02:00</time>
      </trkpt>
      <trkpt lat="44.47674" lon="1.81136">
        <ele>244</ele>
        <time>2018-08-04T17:55:50+02:00</time>
      </trkpt>
      <trkpt lat="44.47665" lon="1.81107">
        <ele>245</ele>
        <time>2018-08-04T17:55:55+02:00</time>
      </trkpt>
      <trkpt lat="44.4766" lon="1.81072">
        <ele>242</ele>
        <time>2018-08-04T17:56:00+02:00</time>
      </trkpt>
      <trkpt lat="44.47659" lon="1.81039">
        <ele>240</ele>
        <time>2018-08-04T17:56:06+02:00</time>
      </trkpt>
      <trkpt lat="44.47656" lon="1.81004">
        <ele>239</ele>
        <time>2018-08-04T17:56:12+02:00</time>
      </trkpt>
      <trkpt lat="44.47657" lon="1.8097">
        <ele>238</ele>
        <time>2018-08-04T17:56:18+02:00</time>
      </trkpt>
      <trkpt lat="44.47658" lon="1.80934">
        <ele>234</ele>
        <time>2018-08-04T17:56:24+02:00</time>
      </trkpt>
      <trkpt lat="44.4766" lon="1.80899">
        <ele>234</ele>
        <time>2018-08-04T17:56:30+02:00</time>
      </trkpt>
      <trkpt lat="44.47662" lon="1.80863">
        <ele>232</ele>
        <time>2018-08-04T17:56:36+02:00</time>
      </trkpt>
      <trkpt lat="44.47668" lon="1.80832">
        <ele>232</ele>
        <time>2018-08-04T17:56:41+02:00</time>
      </trkpt>
      <trkpt lat="44.47675" lon="1.808">
        <ele>232</ele>
        <time>2018-08-04T17:56:47+02:00</time>
      </trkpt>
      <trkpt lat="44.47684" lon="1.80769">
        <ele>230</ele>
        <time>2018-08-04T17:56:52+02:00</time>
      </trkpt>
      <trkpt lat="44.47697" lon="1.80743">
        <ele>228</ele>
        <time>2018-08-04T17:56:57+02:00</time>
      </trkpt>
      <trkpt lat="44.47709" lon="1.80713">
        <ele>227</ele>
        <time>2018-08-04T17:57:02+02:00</time>
      </trkpt>
      <trkpt lat="44.47723" lon="1.80687">
        <ele>226</ele>
        <time>2018-08-04T17:57:08+02:00</time>
      </trkpt>
      <trkpt lat="44.47739" lon="1.80664">
        <ele>225</ele>
        <time>2018-08-04T17:57:13+02:00</time>
      </trkpt>
      <trkpt lat="44.47757" lon="1.80641">
        <ele>225</ele>
        <time>2018-08-04T17:57:19+02:00</time>
      </trkpt>
      <trkpt lat="44.47775" lon="1.80619">
        <ele>229</ele>
        <time>2018-08-04T17:57:26+02:00</time>
      </trkpt>
      <trkpt lat="44.47794" lon="1.80594">
        <ele>232</ele>
        <time>2018-08-04T17:57:33+02:00</time>
      </trkpt>
      <trkpt lat="44.4781" lon="1.80567">
        <ele>232</ele>
        <time>2018-08-04T17:57:39+02:00</time>
      </trkpt>
      <trkpt lat="44.47824" lon="1.80542">
        <ele>230</ele>
        <time>2018-08-04T17:57:44+02:00</time>
      </trkpt>
      <trkpt lat="44.47843" lon="1.80516">
        <ele>229</ele>
        <time>2018-08-04T17:57:50+02:00</time>
      </trkpt>
      <trkpt lat="44.4786" lon="1.80492">
        <ele>231</ele>
        <time>2018-08-04T17:57:56+02:00</time>
      </trkpt>
      <trkpt lat="44.47875" lon="1.80468">
        <ele>233</ele>
        <time>2018-08-04T17:58:01+02:00</time>
      </trkpt>
      <trkpt lat="44.4789" lon="1.8044">
        <ele>229</ele>
        <time>2018-08-04T17:58:06+02:00</time>
      </trkpt>
      <trkpt lat="44.47904" lon="1.80411">
        <ele>232</ele>
        <time>2018-08-04T17:58:12+02:00</time>
      </trkpt>
      <trkpt lat="44.47917" lon="1.80383">
        <ele>239</ele>
        <time>2018-08-04T17:58:19+02:00</time>
      </trkpt>
      <trkpt lat="44.47929" lon="1.80351">
        <ele>238</ele>
        <time>2018-08-04T17:58:25+02:00</time>
      </trkpt>
      <trkpt lat="44.4794" lon="1.80321">
        <ele>235</ele>
        <time>2018-08-04T17:58:29+02:00</time>
      </trkpt>
      <trkpt lat="44.47951" lon="1.80294">
        <ele>234</ele>
        <time>2018-08-04T17:58:34+02:00</time>
      </trkpt>
      <trkpt lat="44.47962" lon="1.80263">
        <ele>234</ele>
        <time>2018-08-04T17:58:40+02:00</time>
      </trkpt>
      <trkpt lat="44.47974" lon="1.80231">
        <ele>234</ele>
        <time>2018-08-04T17:58:45+02:00</time>
      </trkpt>
      <trkpt lat="44.47985" lon="1.80201">
        <ele>236</ele>
        <time>2018-08-04T17:58:51+02:00</time>
      </trkpt>
      <trkpt lat="44.47997" lon="1.80169">
        <ele>235</ele>
        <time>2018-08-04T17:58:57+02:00</time>
      </trkpt>
      <trkpt lat="44.48014" lon="1.80145">
        <ele>230</ele>
        <time>2018-08-04T17:59:02+02:00</time>
      </trkpt>
      <trkpt lat="44.48022" lon="1.80114">
        <ele>232</ele>
        <time>2018-08-04T17:59:08+02:00</time>
      </trkpt>
      <trkpt lat="44.48031" lon="1.80078">
        <ele>230</ele>
        <time>2018-08-04T17:59:12+02:00</time>
      </trkpt>
      <trkpt lat="44.4804" lon="1.80044">
        <ele>231</ele>
        <time>2018-08-04T17:59:18+02:00</time>
      </trkpt>
      <trkpt lat="44.48046" lon="1.80008">
        <ele>231</ele>
        <time>2018-08-04T17:59:23+02:00</time>
      </trkpt>
      <trkpt lat="44.48048" lon="1.79973">
        <ele>231</ele>
        <time>2018-08-04T17:59:30+02:00</time>
      </trkpt>
      <trkpt lat="44.48042" lon="1.79943">
        <ele>227</ele>
        <time>2018-08-04T18:00:57+02:00</time>
      </trkpt>
      <trkpt lat="44.48037" lon="1.79909">
        <ele>223</ele>
        <time>2018-08-04T18:02:35+02:00</time>
      </trkpt>
      <trkpt lat="44.48031" lon="1.79876">
        <ele>229</ele>
        <time>2018-08-04T18:02:42+02:00</time>
      </trkpt>
      <trkpt lat="44.48029" lon="1.79842">
        <ele>230</ele>
        <time>2018-08-04T18:02:48+02:00</time>
      </trkpt>
      <trkpt lat="44.48024" lon="1.79809">
        <ele>229</ele>
        <time>2018-08-04T18:02:54+02:00</time>
      </trkpt>
      <trkpt lat="44.48022" lon="1.79772">
        <ele>226</ele>
        <time>2018-08-04T18:03:00+02:00</time>
      </trkpt>
      <trkpt lat="44.48012" lon="1.79739">
        <ele>234</ele>
        <time>2018-08-04T18:03:05+02:00</time>
      </trkpt>
      <trkpt lat="44.47994" lon="1.79709">
        <ele>234</ele>
        <time>2018-08-04T18:03:10+02:00</time>
      </trkpt>
      <trkpt lat="44.47986" lon="1.79676">
        <ele>230</ele>
        <time>2018-08-04T18:03:14+02:00</time>
      </trkpt>
      <trkpt lat="44.4797" lon="1.79648">
        <ele>229</ele>
        <time>2018-08-04T18:03:21+02:00</time>
      </trkpt>
      <trkpt lat="44.47952" lon="1.79627">
        <ele>231</ele>
        <time>2018-08-04T18:03:26+02:00</time>
      </trkpt>
      <trkpt lat="44.4793" lon="1.79603">
        <ele>227</ele>
        <time>2018-08-04T18:03:31+02:00</time>
      </trkpt>
      <trkpt lat="44.47912" lon="1.7958">
        <ele>227</ele>
        <time>2018-08-04T18:03:36+02:00</time>
      </trkpt>
      <trkpt lat="44.47897" lon="1.79555">
        <ele>228</ele>
        <time>2018-08-04T18:03:41+02:00</time>
      </trkpt>
      <trkpt lat="44.47881" lon="1.79526">
        <ele>227</ele>
        <time>2018-08-04T18:03:47+02:00</time>
      </trkpt>
      <trkpt lat="44.47873" lon="1.79495">
        <ele>221</ele>
        <time>2018-08-04T18:03:52+02:00</time>
      </trkpt>
      <trkpt lat="44.47849" lon="1.79481">
        <ele>223</ele>
        <time>2018-08-04T18:03:57+02:00</time>
      </trkpt>
      <trkpt lat="44.47827" lon="1.7947">
        <ele>221</ele>
        <time>2018-08-04T18:04:02+02:00</time>
      </trkpt>
      <trkpt lat="44.47801" lon="1.79466">
        <ele>217</ele>
        <time>2018-08-04T18:04:07+02:00</time>
      </trkpt>
      <trkpt lat="44.47779" lon="1.79455">
        <ele>217</ele>
        <time>2018-08-04T18:04:11+02:00</time>
      </trkpt>
      <trkpt lat="44.47757" lon="1.79438">
        <ele>220</ele>
        <time>2018-08-04T18:04:16+02:00</time>
      </trkpt>
      <trkpt lat="44.47737" lon="1.7942">
        <ele>221</ele>
        <time>2018-08-04T18:04:21+02:00</time>
      </trkpt>
      <trkpt lat="44.47718" lon="1.79402">
        <ele>224</ele>
        <time>2018-08-04T18:04:26+02:00</time>
      </trkpt>
      <trkpt lat="44.47693" lon="1.79385">
        <ele>223</ele>
        <time>2018-08-04T18:04:31+02:00</time>
      </trkpt>
      <trkpt lat="44.47672" lon="1.7937">
        <ele>222</ele>
        <time>2018-08-04T18:04:35+02:00</time>
      </trkpt>
      <trkpt lat="44.47653" lon="1.79352">
        <ele>224</ele>
        <time>2018-08-04T18:04:40+02:00</time>
      </trkpt>
      <trkpt lat="44.47628" lon="1.79343">
        <ele>228</ele>
        <time>2018-08-04T18:04:45+02:00</time>
      </trkpt>
      <trkpt lat="44.47604" lon="1.79332">
        <ele>225</ele>
        <time>2018-08-04T18:04:50+02:00</time>
      </trkpt>
      <trkpt lat="44.47576" lon="1.79326">
        <ele>225</ele>
        <time>2018-08-04T18:04:55+02:00</time>
      </trkpt>
      <trkpt lat="44.47553" lon="1.79315">
        <ele>220</ele>
        <time>2018-08-04T18:04:59+02:00</time>
      </trkpt>
      <trkpt lat="44.47531" lon="1.7931">
        <ele>221</ele>
        <time>2018-08-04T18:05:03+02:00</time>
      </trkpt>
      <trkpt lat="44.47508" lon="1.79304">
        <ele>222</ele>
        <time>2018-08-04T18:05:07+02:00</time>
      </trkpt>
      <trkpt lat="44.47481" lon="1.79296">
        <ele>222</ele>
        <time>2018-08-04T18:05:11+02:00</time>
      </trkpt>
      <trkpt lat="44.47454" lon="1.7928">
        <ele>223</ele>
        <time>2018-08-04T18:05:17+02:00</time>
      </trkpt>
      <trkpt lat="44.47428" lon="1.79273">
        <ele>221</ele>
        <time>2018-08-04T18:05:22+02:00</time>
      </trkpt>
      <trkpt lat="44.47402" lon="1.79271">
        <ele>222</ele>
        <time>2018-08-04T18:05:27+02:00</time>
      </trkpt>
      <trkpt lat="44.47378" lon="1.79268">
        <ele>221</ele>
        <time>2018-08-04T18:05:31+02:00</time>
      </trkpt>
      <trkpt lat="44.47352" lon="1.79266">
        <ele>220</ele>
        <time>2018-08-04T18:05:36+02:00</time>
      </trkpt>
      <trkpt lat="44.47323" lon="1.79265">
        <ele>218</ele>
        <time>2018-08-04T18:05:40+02:00</time>
      </trkpt>
      <trkpt lat="44.47295" lon="1.7926">
        <ele>209</ele>
        <time>2018-08-04T18:05:45+02:00</time>
      </trkpt>
      <trkpt lat="44.4727" lon="1.79257">
        <ele>209</ele>
        <time>2018-08-04T18:05:49+02:00</time>
      </trkpt>
      <trkpt lat="44.47246" lon="1.79243">
        <ele>211</ele>
        <time>2018-08-04T18:05:54+02:00</time>
      </trkpt>
      <trkpt lat="44.47222" lon="1.79231">
        <ele>211</ele>
        <time>2018-08-04T18:05:58+02:00</time>
      </trkpt>
      <trkpt lat="44.472" lon="1.79235">
        <ele>210</ele>
        <time>2018-08-04T18:06:01+02:00</time>
      </trkpt>
      <trkpt lat="44.47173" lon="1.79228">
        <ele>210</ele>
        <time>2018-08-04T18:06:06+02:00</time>
      </trkpt>
      <trkpt lat="44.47148" lon="1.79223">
        <ele>211</ele>
        <time>2018-08-04T18:06:10+02:00</time>
      </trkpt>
      <trkpt lat="44.47126" lon="1.79217">
        <ele>209</ele>
        <time>2018-08-04T18:06:14+02:00</time>
      </trkpt>
      <trkpt lat="44.47098" lon="1.79213">
        <ele>213</ele>
        <time>2018-08-04T18:06:18+02:00</time>
      </trkpt>
      <trkpt lat="44.47075" lon="1.79201">
        <ele>210</ele>
        <time>2018-08-04T18:06:22+02:00</time>
      </trkpt>
      <trkpt lat="44.47048" lon="1.79195">
        <ele>209</ele>
        <time>2018-08-04T18:06:26+02:00</time>
      </trkpt>
      <trkpt lat="44.47028" lon="1.79181">
        <ele>207</ele>
        <time>2018-08-04T18:06:30+02:00</time>
      </trkpt>
      <trkpt lat="44.47006" lon="1.79159">
        <ele>207</ele>
        <time>2018-08-04T18:06:35+02:00</time>
      </trkpt>
      <trkpt lat="44.46978" lon="1.79152">
        <ele>210</ele>
        <time>2018-08-04T18:06:39+02:00</time>
      </trkpt>
      <trkpt lat="44.46959" lon="1.79131">
        <ele>210</ele>
        <time>2018-08-04T18:06:43+02:00</time>
      </trkpt>
      <trkpt lat="44.4694" lon="1.79115">
        <ele>213</ele>
        <time>2018-08-04T18:06:47+02:00</time>
      </trkpt>
      <trkpt lat="44.46915" lon="1.79101">
        <ele>214</ele>
        <time>2018-08-04T18:06:52+02:00</time>
      </trkpt>
      <trkpt lat="44.46893" lon="1.79091">
        <ele>213</ele>
        <time>2018-08-04T18:06:56+02:00</time>
      </trkpt>
      <trkpt lat="44.4687" lon="1.7907">
        <ele>217</ele>
        <time>2018-08-04T18:07:02+02:00</time>
      </trkpt>
      <trkpt lat="44.46844" lon="1.79065">
        <ele>215</ele>
        <time>2018-08-04T18:07:06+02:00</time>
      </trkpt>
      <trkpt lat="44.46824" lon="1.79045">
        <ele>214</ele>
        <time>2018-08-04T18:07:12+02:00</time>
      </trkpt>
      <trkpt lat="44.46799" lon="1.79034">
        <ele>214</ele>
        <time>2018-08-04T18:07:18+02:00</time>
      </trkpt>
      <trkpt lat="44.46777" lon="1.79021">
        <ele>213</ele>
        <time>2018-08-04T18:07:23+02:00</time>
      </trkpt>
      <trkpt lat="44.46752" lon="1.7901">
        <ele>213</ele>
        <time>2018-08-04T18:07:28+02:00</time>
      </trkpt>
      <trkpt lat="44.46729" lon="1.78996">
        <ele>220</ele>
        <time>2018-08-04T18:07:35+02:00</time>
      </trkpt>
      <trkpt lat="44.46705" lon="1.78987">
        <ele>218</ele>
        <time>2018-08-04T18:07:40+02:00</time>
      </trkpt>
      <trkpt lat="44.46677" lon="1.7898">
        <ele>215</ele>
        <time>2018-08-04T18:07:44+02:00</time>
      </trkpt>
      <trkpt lat="44.46655" lon="1.78975">
        <ele>214</ele>
        <time>2018-08-04T18:07:48+02:00</time>
      </trkpt>
      <trkpt lat="44.46631" lon="1.7897">
        <ele>215</ele>
        <time>2018-08-04T18:07:53+02:00</time>
      </trkpt>
      <trkpt lat="44.46609" lon="1.78963">
        <ele>216</ele>
        <time>2018-08-04T18:07:57+02:00</time>
      </trkpt>
      <trkpt lat="44.46584" lon="1.78957">
        <ele>217</ele>
        <time>2018-08-04T18:08:01+02:00</time>
      </trkpt>
      <trkpt lat="44.46561" lon="1.78952">
        <ele>215</ele>
        <time>2018-08-04T18:08:05+02:00</time>
      </trkpt>
      <trkpt lat="44.46534" lon="1.78948">
        <ele>211</ele>
        <time>2018-08-04T18:08:09+02:00</time>
      </trkpt>
      <trkpt lat="44.4651" lon="1.78947">
        <ele>208</ele>
        <time>2018-08-04T18:08:13+02:00</time>
      </trkpt>
      <trkpt lat="44.46486" lon="1.78942">
        <ele>208</ele>
        <time>2018-08-04T18:08:17+02:00</time>
      </trkpt>
      <trkpt lat="44.46463" lon="1.78938">
        <ele>207</ele>
        <time>2018-08-04T18:08:21+02:00</time>
      </trkpt>
      <trkpt lat="44.46436" lon="1.78931">
        <ele>210</ele>
        <time>2018-08-04T18:08:26+02:00</time>
      </trkpt>
      <trkpt lat="44.46411" lon="1.78923">
        <ele>210</ele>
        <time>2018-08-04T18:08:31+02:00</time>
      </trkpt>
      <trkpt lat="44.46387" lon="1.78913">
        <ele>207</ele>
        <time>2018-08-04T18:08:35+02:00</time>
      </trkpt>
      <trkpt lat="44.46367" lon="1.78894">
        <ele>208</ele>
        <time>2018-08-04T18:08:39+02:00</time>
      </trkpt>
      <trkpt lat="44.46347" lon="1.78866">
        <ele>209</ele>
        <time>2018-08-04T18:08:44+02:00</time>
      </trkpt>
      <trkpt lat="44.46346" lon="1.78834">
        <ele>208</ele>
        <time>2018-08-04T18:08:48+02:00</time>
      </trkpt>
      <trkpt lat="44.46342" lon="1.78795">
        <ele>210</ele>
        <time>2018-08-04T18:08:53+02:00</time>
      </trkpt>
      <trkpt lat="44.46345" lon="1.78758">
        <ele>207</ele>
        <time>2018-08-04T18:08:58+02:00</time>
      </trkpt>
      <trkpt lat="44.46352" lon="1.78719">
        <ele>205</ele>
        <time>2018-08-04T18:09:03+02:00</time>
      </trkpt>
      <trkpt lat="44.46363" lon="1.78685">
        <ele>204</ele>
        <time>2018-08-04T18:09:08+02:00</time>
      </trkpt>
      <trkpt lat="44.4638" lon="1.78662">
        <ele>203</ele>
        <time>2018-08-04T18:09:13+02:00</time>
      </trkpt>
      <trkpt lat="44.46401" lon="1.78647">
        <ele>202</ele>
        <time>2018-08-04T18:09:18+02:00</time>
      </trkpt>
      <trkpt lat="44.46426" lon="1.78637">
        <ele>201</ele>
        <time>2018-08-04T18:09:24+02:00</time>
      </trkpt>
      <trkpt lat="44.46449" lon="1.78623">
        <ele>201</ele>
        <time>2018-08-04T18:09:29+02:00</time>
      </trkpt>
      <trkpt lat="44.4647" lon="1.78611">
        <ele>202</ele>
        <time>2018-08-04T18:09:34+02:00</time>
      </trkpt>
      <trkpt lat="44.46493" lon="1.78599">
        <ele>200</ele>
        <time>2018-08-04T18:09:40+02:00</time>
      </trkpt>
      <trkpt lat="44.46513" lon="1.78578">
        <ele>198</ele>
        <time>2018-08-04T18:09:45+02:00</time>
      </trkpt>
      <trkpt lat="44.46532" lon="1.78559">
        <ele>198</ele>
        <time>2018-08-04T18:09:51+02:00</time>
      </trkpt>
      <trkpt lat="44.46546" lon="1.78535">
        <ele>201</ele>
        <time>2018-08-04T18:11:48+02:00</time>
      </trkpt>
      <trkpt lat="44.46572" lon="1.78537">
        <ele>202</ele>
        <time>2018-08-04T18:12:00+02:00</time>
      </trkpt>
      <trkpt lat="44.46595" lon="1.78527">
        <ele>200</ele>
        <time>2018-08-04T18:12:07+02:00</time>
      </trkpt>
      <trkpt lat="44.46617" lon="1.78518">
        <ele>200</ele>
        <time>2018-08-04T18:12:13+02:00</time>
      </trkpt>
      <trkpt lat="44.4664" lon="1.78502">
        <ele>201</ele>
        <time>2018-08-04T18:12:18+02:00</time>
      </trkpt>
      <trkpt lat="44.46662" lon="1.78485">
        <ele>200</ele>
        <time>2018-08-04T18:12:23+02:00</time>
      </trkpt>
      <trkpt lat="44.46688" lon="1.78473">
        <ele>197</ele>
        <time>2018-08-04T18:12:28+02:00</time>
      </trkpt>
      <trkpt lat="44.46714" lon="1.78469">
        <ele>198</ele>
        <time>2018-08-04T18:12:33+02:00</time>
      </trkpt>
      <trkpt lat="44.46742" lon="1.78468">
        <ele>199</ele>
        <time>2018-08-04T18:12:38+02:00</time>
      </trkpt>
      <trkpt lat="44.46766" lon="1.78464">
        <ele>199</ele>
        <time>2018-08-04T18:12:42+02:00</time>
      </trkpt>
      <trkpt lat="44.46791" lon="1.78467">
        <ele>202</ele>
        <time>2018-08-04T18:12:47+02:00</time>
      </trkpt>
      <trkpt lat="44.46816" lon="1.78465">
        <ele>200</ele>
        <time>2018-08-04T18:12:53+02:00</time>
      </trkpt>
      <trkpt lat="44.46838" lon="1.78459">
        <ele>200</ele>
        <time>2018-08-04T18:14:03+02:00</time>
      </trkpt>
      <trkpt lat="44.46862" lon="1.78461">
        <ele>200</ele>
        <time>2018-08-04T18:14:11+02:00</time>
      </trkpt>
      <trkpt lat="44.46886" lon="1.78459">
        <ele>199</ele>
        <time>2018-08-04T18:14:16+02:00</time>
      </trkpt>
      <trkpt lat="44.46913" lon="1.7846">
        <ele>199</ele>
        <time>2018-08-04T18:14:22+02:00</time>
      </trkpt>
      <trkpt lat="44.4694" lon="1.78457">
        <ele>201</ele>
        <time>2018-08-04T18:14:27+02:00</time>
      </trkpt>
      <trkpt lat="44.46966" lon="1.78458">
        <ele>199</ele>
        <time>2018-08-04T18:14:32+02:00</time>
      </trkpt>
      <trkpt lat="44.46988" lon="1.78457">
        <ele>200</ele>
        <time>2018-08-04T18:14:37+02:00</time>
      </trkpt>
      <trkpt lat="44.47015" lon="1.78449">
        <ele>201</ele>
        <time>2018-08-04T18:14:42+02:00</time>
      </trkpt>
      <trkpt lat="44.4704" lon="1.78445">
        <ele>200</ele>
        <time>2018-08-04T18:14:47+02:00</time>
      </trkpt>
      <trkpt lat="44.47064" lon="1.78438">
        <ele>196</ele>
        <time>2018-08-04T18:14:52+02:00</time>
      </trkpt>
      <trkpt lat="44.47091" lon="1.7843">
        <ele>197</ele>
        <time>2018-08-04T18:14:59+02:00</time>
      </trkpt>
      <trkpt lat="44.47119" lon="1.78412">
        <ele>198</ele>
        <time>2018-08-04T18:15:04+02:00</time>
      </trkpt>
      <trkpt lat="44.47142" lon="1.78396">
        <ele>196</ele>
        <time>2018-08-04T18:15:08+02:00</time>
      </trkpt>
      <trkpt lat="44.47167" lon="1.78386">
        <ele>193</ele>
        <time>2018-08-04T18:15:13+02:00</time>
      </trkpt>
      <trkpt lat="44.47192" lon="1.7837">
        <ele>194</ele>
        <time>2018-08-04T18:15:19+02:00</time>
      </trkpt>
      <trkpt lat="44.47214" lon="1.78357">
        <ele>196</ele>
        <time>2018-08-04T18:15:25+02:00</time>
      </trkpt>
      <trkpt lat="44.47238" lon="1.78345">
        <ele>197</ele>
        <time>2018-08-04T18:15:32+02:00</time>
      </trkpt>
      <trkpt lat="44.47262" lon="1.78351">
        <ele>198</ele>
        <time>2018-08-04T18:15:40+02:00</time>
      </trkpt>
      <trkpt lat="44.47283" lon="1.78336">
        <ele>197</ele>
        <time>2018-08-04T18:15:48+02:00</time>
      </trkpt>
      <trkpt lat="44.47293" lon="1.78303">
        <ele>198</ele>
        <time>2018-08-04T18:16:05+02:00</time>
      </trkpt>
      <trkpt lat="44.473" lon="1.78272">
        <ele>196</ele>
        <time>2018-08-04T18:16:12+02:00</time>
      </trkpt>
      <trkpt lat="44.47312" lon="1.78242">
        <ele>195</ele>
        <time>2018-08-04T18:16:17+02:00</time>
      </trkpt>
      <trkpt lat="44.47329" lon="1.78215">
        <ele>197</ele>
        <time>2018-08-04T18:16:22+02:00</time>
      </trkpt>
      <trkpt lat="44.47348" lon="1.78193">
        <ele>195</ele>
        <time>2018-08-04T18:16:26+02:00</time>
      </trkpt>
      <trkpt lat="44.47367" lon="1.78173">
        <ele>195</ele>
        <time>2018-08-04T18:16:30+02:00</time>
      </trkpt>
      <trkpt lat="44.47381" lon="1.78145">
        <ele>195</ele>
        <time>2018-08-04T18:16:35+02:00</time>
      </trkpt>
      <trkpt lat="44.47399" lon="1.7812">
        <ele>197</ele>
        <time>2018-08-04T18:16:40+02:00</time>
      </trkpt>
      <trkpt lat="44.47415" lon="1.78096">
        <ele>194</ele>
        <time>2018-08-04T18:16:45+02:00</time>
      </trkpt>
      <trkpt lat="44.47437" lon="1.78078">
        <ele>189</ele>
        <time>2018-08-04T18:16:51+02:00</time>
      </trkpt>
      <trkpt lat="44.47426" lon="1.78047">
        <ele>189</ele>
        <time>2018-08-04T18:16:58+02:00</time>
      </trkpt>
      <trkpt lat="44.4741" lon="1.78023">
        <ele>190</ele>
        <time>2018-08-04T18:17:03+02:00</time>
      </trkpt>
      <trkpt lat="44.47387" lon="1.77997">
        <ele>189</ele>
        <time>2018-08-04T18:17:28+02:00</time>
      </trkpt>
      <trkpt lat="44.47367" lon="1.77975">
        <ele>187</ele>
        <time>2018-08-04T18:17:33+02:00</time>
      </trkpt>
      <trkpt lat="44.47349" lon="1.77955">
        <ele>185</ele>
        <time>2018-08-04T18:17:37+02:00</time>
      </trkpt>
      <trkpt lat="44.47329" lon="1.77933">
        <ele>188</ele>
        <time>2018-08-04T18:17:42+02:00</time>
      </trkpt>
      <trkpt lat="44.47308" lon="1.77919">
        <ele>181</ele>
        <time>2018-08-04T18:18:00+02:00</time>
      </trkpt>
      <trkpt lat="44.47283" lon="1.77908">
        <ele>185</ele>
        <time>2018-08-04T18:18:24+02:00</time>
      </trkpt>
      <trkpt lat="44.47254" lon="1.77908">
        <ele>185</ele>
        <time>2018-08-04T18:18:30+02:00</time>
      </trkpt>
      <trkpt lat="44.4723" lon="1.77913">
        <ele>187</ele>
        <time>2018-08-04T18:18:35+02:00</time>
      </trkpt>
      <trkpt lat="44.47206" lon="1.77922">
        <ele>190</ele>
        <time>2018-08-04T18:18:42+02:00</time>
      </trkpt>
      <trkpt lat="44.47181" lon="1.77931">
        <ele>184</ele>
        <time>2018-08-04T18:18:48+02:00</time>
      </trkpt>
      <trkpt lat="44.47157" lon="1.77941">
        <ele>189</ele>
        <time>2018-08-04T18:18:55+02:00</time>
      </trkpt>
      <trkpt lat="44.47135" lon="1.77947">
        <ele>193</ele>
        <time>2018-08-04T18:19:02+02:00</time>
      </trkpt>
      <trkpt lat="44.47109" lon="1.77943">
        <ele>199</ele>
        <time>2018-08-04T18:19:11+02:00</time>
      </trkpt>
      <trkpt lat="44.47104" lon="1.7791">
        <ele>198</ele>
        <time>2018-08-04T18:19:19+02:00</time>
      </trkpt>
      <trkpt lat="44.4712" lon="1.77886">
        <ele>199</ele>
        <time>2018-08-04T18:19:28+02:00</time>
      </trkpt>
      <trkpt lat="44.47134" lon="1.7786">
        <ele>200</ele>
        <time>2018-08-04T18:19:35+02:00</time>
      </trkpt>
      <trkpt lat="44.47147" lon="1.77835">
        <ele>199</ele>
        <time>2018-08-04T18:19:41+02:00</time>
      </trkpt>
      <trkpt lat="44.47158" lon="1.77806">
        <ele>197</ele>
        <time>2018-08-04T18:19:47+02:00</time>
      </trkpt>
      <trkpt lat="44.47161" lon="1.77772">
        <ele>196</ele>
        <time>2018-08-04T18:19:54+02:00</time>
      </trkpt>
      <trkpt lat="44.47158" lon="1.7774">
        <ele>198</ele>
        <time>2018-08-04T18:20:01+02:00</time>
      </trkpt>
      <trkpt lat="44.47148" lon="1.77705">
        <ele>194</ele>
        <time>2018-08-04T18:20:07+02:00</time>
      </trkpt>
      <trkpt lat="44.47135" lon="1.77679">
        <ele>194</ele>
        <time>2018-08-04T18:20:12+02:00</time>
      </trkpt>
      <trkpt lat="44.47119" lon="1.7765">
        <ele>196</ele>
        <time>2018-08-04T18:20:18+02:00</time>
      </trkpt>
      <trkpt lat="44.47104" lon="1.77619">
        <ele>200</ele>
        <time>2018-08-04T18:20:24+02:00</time>
      </trkpt>
      <trkpt lat="44.47084" lon="1.77605">
        <ele>197</ele>
        <time>2018-08-04T18:20:28+02:00</time>
      </trkpt>
      <trkpt lat="44.47062" lon="1.7759">
        <ele>196</ele>
        <time>2018-08-04T18:20:32+02:00</time>
      </trkpt>
      <trkpt lat="44.47038" lon="1.77578">
        <ele>195</ele>
        <time>2018-08-04T18:20:36+02:00</time>
      </trkpt>
      <trkpt lat="44.47016" lon="1.77569">
        <ele>195</ele>
        <time>2018-08-04T18:20:40+02:00</time>
      </trkpt>
      <trkpt lat="44.46989" lon="1.77559">
        <ele>197</ele>
        <time>2018-08-04T18:20:45+02:00</time>
      </trkpt>
      <trkpt lat="44.46962" lon="1.7755">
        <ele>196</ele>
        <time>2018-08-04T18:20:49+02:00</time>
      </trkpt>
      <trkpt lat="44.46936" lon="1.77548">
        <ele>197</ele>
        <time>2018-08-04T18:20:53+02:00</time>
      </trkpt>
      <trkpt lat="44.46911" lon="1.77551">
        <ele>196</ele>
        <time>2018-08-04T18:20:57+02:00</time>
      </trkpt>
      <trkpt lat="44.46885" lon="1.77554">
        <ele>196</ele>
        <time>2018-08-04T18:21:01+02:00</time>
      </trkpt>
      <trkpt lat="44.46857" lon="1.77561">
        <ele>192</ele>
        <time>2018-08-04T18:21:05+02:00</time>
      </trkpt>
      <trkpt lat="44.46834" lon="1.77568">
        <ele>192</ele>
        <time>2018-08-04T18:21:09+02:00</time>
      </trkpt>
      <trkpt lat="44.46811" lon="1.77568">
        <ele>194</ele>
        <time>2018-08-04T18:21:13+02:00</time>
      </trkpt>
      <trkpt lat="44.46786" lon="1.77568">
        <ele>192</ele>
        <time>2018-08-04T18:21:17+02:00</time>
      </trkpt>
      <trkpt lat="44.46761" lon="1.77566">
        <ele>185</ele>
        <time>2018-08-04T18:21:21+02:00</time>
      </trkpt>
      <trkpt lat="44.46732" lon="1.77559">
        <ele>182</ele>
        <time>2018-08-04T18:21:26+02:00</time>
      </trkpt>
      <trkpt lat="44.46707" lon="1.77554">
        <ele>178</ele>
        <time>2018-08-04T18:21:31+02:00</time>
      </trkpt>
      <trkpt lat="44.46682" lon="1.77547">
        <ele>179</ele>
        <time>2018-08-04T18:21:36+02:00</time>
      </trkpt>
      <trkpt lat="44.46658" lon="1.7754">
        <ele>187</ele>
        <time>2018-08-04T18:22:02+02:00</time>
      </trkpt>
      <trkpt lat="44.46633" lon="1.77542">
        <ele>187</ele>
        <time>2018-08-04T18:22:08+02:00</time>
      </trkpt>
      <trkpt lat="44.46606" lon="1.77546">
        <ele>189</ele>
        <time>2018-08-04T18:22:14+02:00</time>
      </trkpt>
      <trkpt lat="44.46584" lon="1.77554">
        <ele>190</ele>
        <time>2018-08-04T18:22:19+02:00</time>
      </trkpt>
      <trkpt lat="44.4656" lon="1.77562">
        <ele>192</ele>
        <time>2018-08-04T18:22:24+02:00</time>
      </trkpt>
      <trkpt lat="44.46539" lon="1.77573">
        <ele>188</ele>
        <time>2018-08-04T18:22:28+02:00</time>
      </trkpt>
      <trkpt lat="44.46515" lon="1.77579">
        <ele>185</ele>
        <time>2018-08-04T18:22:33+02:00</time>
      </trkpt>
      <trkpt lat="44.46492" lon="1.77587">
        <ele>185</ele>
        <time>2018-08-04T18:22:38+02:00</time>
      </trkpt>
      <trkpt lat="44.46465" lon="1.77598">
        <ele>185</ele>
        <time>2018-08-04T18:22:43+02:00</time>
      </trkpt>
      <trkpt lat="44.46442" lon="1.77601">
        <ele>184</ele>
        <time>2018-08-04T18:22:48+02:00</time>
      </trkpt>
      <trkpt lat="44.46421" lon="1.77591">
        <ele>206</ele>
        <time>2018-08-04T18:22:54+02:00</time>
      </trkpt>
      <trkpt lat="44.46395" lon="1.7758">
        <ele>190</ele>
        <time>2018-08-04T18:23:00+02:00</time>
      </trkpt>
      <trkpt lat="44.46372" lon="1.77568">
        <ele>188</ele>
        <time>2018-08-04T18:23:05+02:00</time>
      </trkpt>
      <trkpt lat="44.46348" lon="1.77554">
        <ele>190</ele>
        <time>2018-08-04T18:23:11+02:00</time>
      </trkpt>
      <trkpt lat="44.46326" lon="1.77545">
        <ele>192</ele>
        <time>2018-08-04T18:23:17+02:00</time>
      </trkpt>
      <trkpt lat="44.46304" lon="1.77534">
        <ele>194</ele>
        <time>2018-08-04T18:23:22+02:00</time>
      </trkpt>
      <trkpt lat="44.46282" lon="1.77523">
        <ele>190</ele>
        <time>2018-08-04T18:23:27+02:00</time>
      </trkpt>
      <trkpt lat="44.46259" lon="1.77511">
        <ele>189</ele>
        <time>2018-08-04T18:23:32+02:00</time>
      </trkpt>
      <trkpt lat="44.46236" lon="1.77493">
        <ele>192</ele>
        <time>2018-08-04T18:23:38+02:00</time>
      </trkpt>
      <trkpt lat="44.46214" lon="1.7748">
        <ele>188</ele>
        <time>2018-08-04T18:23:43+02:00</time>
      </trkpt>
      <trkpt lat="44.46193" lon="1.77465">
        <ele>187</ele>
        <time>2018-08-04T18:23:48+02:00</time>
      </trkpt>
      <trkpt lat="44.46174" lon="1.77446">
        <ele>186</ele>
        <time>2018-08-04T18:23:54+02:00</time>
      </trkpt>
      <trkpt lat="44.46161" lon="1.77418">
        <ele>184</ele>
        <time>2018-08-04T18:24:00+02:00</time>
      </trkpt>
      <trkpt lat="44.46155" lon="1.77387">
        <ele>190</ele>
        <time>2018-08-04T18:24:06+02:00</time>
      </trkpt>
      <trkpt lat="44.46148" lon="1.77351">
        <ele>192</ele>
        <time>2018-08-04T18:24:12+02:00</time>
      </trkpt>
      <trkpt lat="44.46139" lon="1.77321">
        <ele>193</ele>
        <time>2018-08-04T18:24:17+02:00</time>
      </trkpt>
      <trkpt lat="44.46125" lon="1.77289">
        <ele>196</ele>
        <time>2018-08-04T18:24:23+02:00</time>
      </trkpt>
      <trkpt lat="44.46112" lon="1.77258">
        <ele>194</ele>
        <time>2018-08-04T18:24:29+02:00</time>
      </trkpt>
      <trkpt lat="44.46096" lon="1.77232">
        <ele>196</ele>
        <time>2018-08-04T18:24:35+02:00</time>
      </trkpt>
      <trkpt lat="44.46085" lon="1.77202">
        <ele>200</ele>
        <time>2018-08-04T18:24:41+02:00</time>
      </trkpt>
      <trkpt lat="44.4607" lon="1.77175">
        <ele>199</ele>
        <time>2018-08-04T18:24:47+02:00</time>
      </trkpt>
      <trkpt lat="44.46055" lon="1.77145">
        <ele>199</ele>
        <time>2018-08-04T18:24:53+02:00</time>
      </trkpt>
      <trkpt lat="44.46049" lon="1.77109">
        <ele>196</ele>
        <time>2018-08-04T18:24:59+02:00</time>
      </trkpt>
      <trkpt lat="44.46039" lon="1.77074">
        <ele>194</ele>
        <time>2018-08-04T18:25:05+02:00</time>
      </trkpt>
      <trkpt lat="44.46032" lon="1.77044">
        <ele>192</ele>
        <time>2018-08-04T18:25:10+02:00</time>
      </trkpt>
      <trkpt lat="44.46028" lon="1.77012">
        <ele>192</ele>
        <time>2018-08-04T18:25:15+02:00</time>
      </trkpt>
      <trkpt lat="44.46019" lon="1.76983">
        <ele>187</ele>
        <time>2018-08-04T18:25:20+02:00</time>
      </trkpt>
      <trkpt lat="44.46009" lon="1.76951">
        <ele>184</ele>
        <time>2018-08-04T18:25:26+02:00</time>
      </trkpt>
      <trkpt lat="44.46003" lon="1.76918">
        <ele>184</ele>
        <time>2018-08-04T18:25:32+02:00</time>
      </trkpt>
      <trkpt lat="44.45998" lon="1.76884">
        <ele>186</ele>
        <time>2018-08-04T18:25:38+02:00</time>
      </trkpt>
      <trkpt lat="44.45992" lon="1.76853">
        <ele>186</ele>
        <time>2018-08-04T18:25:44+02:00</time>
      </trkpt>
      <trkpt lat="44.45991" lon="1.76818">
        <ele>188</ele>
        <time>2018-08-04T18:25:51+02:00</time>
      </trkpt>
      <trkpt lat="44.45986" lon="1.76785">
        <ele>187</ele>
        <time>2018-08-04T18:25:57+02:00</time>
      </trkpt>
      <trkpt lat="44.45981" lon="1.76754">
        <ele>189</ele>
        <time>2018-08-04T18:26:03+02:00</time>
      </trkpt>
      <trkpt lat="44.45977" lon="1.76719">
        <ele>188</ele>
        <time>2018-08-04T18:26:09+02:00</time>
      </trkpt>
      <trkpt lat="44.4597" lon="1.76688">
        <ele>190</ele>
        <time>2018-08-04T18:26:15+02:00</time>
      </trkpt>
      <trkpt lat="44.45962" lon="1.76656">
        <ele>187</ele>
        <time>2018-08-04T18:26:20+02:00</time>
      </trkpt>
      <trkpt lat="44.45957" lon="1.76625">
        <ele>184</ele>
        <time>2018-08-04T18:26:25+02:00</time>
      </trkpt>
      <trkpt lat="44.45957" lon="1.76592">
        <ele>186</ele>
        <time>2018-08-04T18:26:30+02:00</time>
      </trkpt>
      <trkpt lat="44.45961" lon="1.76558">
        <ele>188</ele>
        <time>2018-08-04T18:26:36+02:00</time>
      </trkpt>
      <trkpt lat="44.45965" lon="1.76521">
        <ele>189</ele>
        <time>2018-08-04T18:26:42+02:00</time>
      </trkpt>
      <trkpt lat="44.45969" lon="1.76483">
        <ele>188</ele>
        <time>2018-08-04T18:26:48+02:00</time>
      </trkpt>
      <trkpt lat="44.45973" lon="1.76449">
        <ele>188</ele>
        <time>2018-08-04T18:26:54+02:00</time>
      </trkpt>
      <trkpt lat="44.45979" lon="1.76415">
        <ele>188</ele>
        <time>2018-08-04T18:27:00+02:00</time>
      </trkpt>
      <trkpt lat="44.45983" lon="1.76381">
        <ele>187</ele>
        <time>2018-08-04T18:27:06+02:00</time>
      </trkpt>
      <trkpt lat="44.45986" lon="1.76347">
        <ele>187</ele>
        <time>2018-08-04T18:27:12+02:00</time>
      </trkpt>
      <trkpt lat="44.45992" lon="1.76314">
        <ele>188</ele>
        <time>2018-08-04T18:27:18+02:00</time>
      </trkpt>
      <trkpt lat="44.46" lon="1.76282">
        <ele>188</ele>
        <time>2018-08-04T18:27:24+02:00</time>
      </trkpt>
      <trkpt lat="44.46008" lon="1.7625">
        <ele>187</ele>
        <time>2018-08-04T18:27:29+02:00</time>
      </trkpt>
      <trkpt lat="44.46014" lon="1.76217">
        <ele>189</ele>
        <time>2018-08-04T18:27:35+02:00</time>
      </trkpt>
      <trkpt lat="44.46013" lon="1.76183">
        <ele>188</ele>
        <time>2018-08-04T18:27:41+02:00</time>
      </trkpt>
      <trkpt lat="44.46015" lon="1.76146">
        <ele>188</ele>
        <time>2018-08-04T18:27:47+02:00</time>
      </trkpt>
      <trkpt lat="44.46014" lon="1.7611">
        <ele>186</ele>
        <time>2018-08-04T18:27:53+02:00</time>
      </trkpt>
      <trkpt lat="44.46013" lon="1.76074">
        <ele>185</ele>
        <time>2018-08-04T18:27:59+02:00</time>
      </trkpt>
      <trkpt lat="44.46013" lon="1.7604">
        <ele>184</ele>
        <time>2018-08-04T18:28:05+02:00</time>
      </trkpt>
      <trkpt lat="44.46017" lon="1.76008">
        <ele>185</ele>
        <time>2018-08-04T18:28:10+02:00</time>
      </trkpt>
      <trkpt lat="44.46017" lon="1.75976">
        <ele>185</ele>
        <time>2018-08-04T18:28:15+02:00</time>
      </trkpt>
      <trkpt lat="44.46017" lon="1.75937">
        <ele>186</ele>
        <time>2018-08-04T18:28:21+02:00</time>
      </trkpt>
      <trkpt lat="44.46014" lon="1.759">
        <ele>184</ele>
        <time>2018-08-04T18:28:26+02:00</time>
      </trkpt>
      <trkpt lat="44.46012" lon="1.75867">
        <ele>185</ele>
        <time>2018-08-04T18:28:31+02:00</time>
      </trkpt>
      <trkpt lat="44.46008" lon="1.75834">
        <ele>183</ele>
        <time>2018-08-04T18:28:36+02:00</time>
      </trkpt>
      <trkpt lat="44.46003" lon="1.75799">
        <ele>184</ele>
        <time>2018-08-04T18:28:41+02:00</time>
      </trkpt>
      <trkpt lat="44.45997" lon="1.75766">
        <ele>186</ele>
        <time>2018-08-04T18:28:47+02:00</time>
      </trkpt>
      <trkpt lat="44.45995" lon="1.75733">
        <ele>188</ele>
        <time>2018-08-04T18:28:53+02:00</time>
      </trkpt>
      <trkpt lat="44.46001" lon="1.757">
        <ele>190</ele>
        <time>2018-08-04T18:29:02+02:00</time>
      </trkpt>
      <trkpt lat="44.46017" lon="1.75678">
        <ele>189</ele>
        <time>2018-08-04T18:29:06+02:00</time>
      </trkpt>
      <trkpt lat="44.46035" lon="1.75654">
        <ele>185</ele>
        <time>2018-08-04T18:29:12+02:00</time>
      </trkpt>
      <trkpt lat="44.46055" lon="1.75637">
        <ele>190</ele>
        <time>2018-08-04T18:29:19+02:00</time>
      </trkpt>
      <trkpt lat="44.46076" lon="1.75626">
        <ele>196</ele>
        <time>2018-08-04T18:29:26+02:00</time>
      </trkpt>
      <trkpt lat="44.46098" lon="1.75609">
        <ele>197</ele>
        <time>2018-08-04T18:29:34+02:00</time>
      </trkpt>
      <trkpt lat="44.46118" lon="1.7559">
        <ele>197</ele>
        <time>2018-08-04T18:29:41+02:00</time>
      </trkpt>
      <trkpt lat="44.46138" lon="1.75573">
        <ele>196</ele>
        <time>2018-08-04T18:29:47+02:00</time>
      </trkpt>
      <trkpt lat="44.4616" lon="1.75553">
        <ele>195</ele>
        <time>2018-08-04T18:29:53+02:00</time>
      </trkpt>
      <trkpt lat="44.46182" lon="1.75538">
        <ele>193</ele>
        <time>2018-08-04T18:29:58+02:00</time>
      </trkpt>
      <trkpt lat="44.46205" lon="1.75524">
        <ele>192</ele>
        <time>2018-08-04T18:30:03+02:00</time>
      </trkpt>
      <trkpt lat="44.46226" lon="1.75502">
        <ele>191</ele>
        <time>2018-08-04T18:30:08+02:00</time>
      </trkpt>
      <trkpt lat="44.46247" lon="1.75483">
        <ele>191</ele>
        <time>2018-08-04T18:30:14+02:00</time>
      </trkpt>
      <trkpt lat="44.46269" lon="1.75466">
        <ele>190</ele>
        <time>2018-08-04T18:30:19+02:00</time>
      </trkpt>
      <trkpt lat="44.46288" lon="1.75442">
        <ele>186</ele>
        <time>2018-08-04T18:30:25+02:00</time>
      </trkpt>
      <trkpt lat="44.4631" lon="1.75423">
        <ele>189</ele>
        <time>2018-08-04T18:30:31+02:00</time>
      </trkpt>
      <trkpt lat="44.46332" lon="1.75404">
        <ele>190</ele>
        <time>2018-08-04T18:30:38+02:00</time>
      </trkpt>
      <trkpt lat="44.46352" lon="1.75386">
        <ele>190</ele>
        <time>2018-08-04T18:30:44+02:00</time>
      </trkpt>
      <trkpt lat="44.46373" lon="1.7536">
        <ele>185</ele>
        <time>2018-08-04T18:30:50+02:00</time>
      </trkpt>
      <trkpt lat="44.46397" lon="1.75349">
        <ele>191</ele>
        <time>2018-08-04T18:30:56+02:00</time>
      </trkpt>
      <trkpt lat="44.46416" lon="1.75325">
        <ele>192</ele>
        <time>2018-08-04T18:31:03+02:00</time>
      </trkpt>
      <trkpt lat="44.46434" lon="1.75297">
        <ele>188</ele>
        <time>2018-08-04T18:31:08+02:00</time>
      </trkpt>
      <trkpt lat="44.4645" lon="1.7527">
        <ele>188</ele>
        <time>2018-08-04T18:31:15+02:00</time>
      </trkpt>
      <trkpt lat="44.4647" lon="1.7525">
        <ele>194</ele>
        <time>2018-08-04T18:31:25+02:00</time>
      </trkpt>
      <trkpt lat="44.46491" lon="1.75233">
        <ele>194</ele>
        <time>2018-08-04T18:31:32+02:00</time>
      </trkpt>
      <trkpt lat="44.46513" lon="1.75218">
        <ele>199</ele>
        <time>2018-08-04T18:31:39+02:00</time>
      </trkpt>
      <trkpt lat="44.46536" lon="1.752">
        <ele>203</ele>
        <time>2018-08-04T18:31:46+02:00</time>
      </trkpt>
      <trkpt lat="44.46553" lon="1.75176">
        <ele>194</ele>
        <time>2018-08-04T18:31:52+02:00</time>
      </trkpt>
      <trkpt lat="44.46576" lon="1.75157">
        <ele>195</ele>
        <time>2018-08-04T18:31:57+02:00</time>
      </trkpt>
      <trkpt lat="44.46598" lon="1.75142">
        <ele>195</ele>
        <time>2018-08-04T18:32:01+02:00</time>
      </trkpt>
      <trkpt lat="44.46617" lon="1.75117">
        <ele>192</ele>
        <time>2018-08-04T18:32:05+02:00</time>
      </trkpt>
      <trkpt lat="44.46635" lon="1.75087">
        <ele>191</ele>
        <time>2018-08-04T18:32:09+02:00</time>
      </trkpt>
      <trkpt lat="44.46642" lon="1.75055">
        <ele>190</ele>
        <time>2018-08-04T18:32:13+02:00</time>
      </trkpt>
      <trkpt lat="44.46644" lon="1.75018">
        <ele>191</ele>
        <time>2018-08-04T18:32:18+02:00</time>
      </trkpt>
      <trkpt lat="44.46643" lon="1.74983">
        <ele>185</ele>
        <time>2018-08-04T18:32:23+02:00</time>
      </trkpt>
      <trkpt lat="44.46641" lon="1.7495">
        <ele>186</ele>
        <time>2018-08-04T18:32:30+02:00</time>
      </trkpt>
      <trkpt lat="44.46629" lon="1.74923">
        <ele>184</ele>
        <time>2018-08-04T18:32:37+02:00</time>
      </trkpt>
      <trkpt lat="44.46615" lon="1.74897">
        <ele>185</ele>
        <time>2018-08-04T18:32:45+02:00</time>
      </trkpt>
      <trkpt lat="44.46602" lon="1.7487">
        <ele>187</ele>
        <time>2018-08-04T18:32:52+02:00</time>
      </trkpt>
      <trkpt lat="44.46587" lon="1.74839">
        <ele>193</ele>
        <time>2018-08-04T18:33:00+02:00</time>
      </trkpt>
      <trkpt lat="44.46571" lon="1.74815">
        <ele>197</ele>
        <time>2018-08-04T18:33:07+02:00</time>
      </trkpt>
      <trkpt lat="44.46551" lon="1.748">
        <ele>196</ele>
        <time>2018-08-04T18:33:13+02:00</time>
      </trkpt>
      <trkpt lat="44.46528" lon="1.74789">
        <ele>198</ele>
        <time>2018-08-04T18:33:20+02:00</time>
      </trkpt>
      <trkpt lat="44.46505" lon="1.74791">
        <ele>195</ele>
        <time>2018-08-04T18:33:26+02:00</time>
      </trkpt>
      <trkpt lat="44.46481" lon="1.74803">
        <ele>195</ele>
        <time>2018-08-04T18:33:34+02:00</time>
      </trkpt>
      <trkpt lat="44.46462" lon="1.74821">
        <ele>197</ele>
        <time>2018-08-04T18:33:44+02:00</time>
      </trkpt>
      <trkpt lat="44.46446" lon="1.74844">
        <ele>194</ele>
        <time>2018-08-04T18:35:54+02:00</time>
      </trkpt>
      <trkpt lat="44.46423" lon="1.74851">
        <ele>193</ele>
        <time>2018-08-04T18:36:02+02:00</time>
      </trkpt>
      <trkpt lat="44.464" lon="1.7486">
        <ele>194</ele>
        <time>2018-08-04T18:36:08+02:00</time>
      </trkpt>
      <trkpt lat="44.46374" lon="1.74866">
        <ele>195</ele>
        <time>2018-08-04T18:36:15+02:00</time>
      </trkpt>
      <trkpt lat="44.4635" lon="1.74871">
        <ele>197</ele>
        <time>2018-08-04T18:36:22+02:00</time>
      </trkpt>
      <trkpt lat="44.46329" lon="1.74881">
        <ele>197</ele>
        <time>2018-08-04T18:36:29+02:00</time>
      </trkpt>
      <trkpt lat="44.46305" lon="1.74893">
        <ele>199</ele>
        <time>2018-08-04T18:36:37+02:00</time>
      </trkpt>
      <trkpt lat="44.46282" lon="1.74902">
        <ele>198</ele>
        <time>2018-08-04T18:36:44+02:00</time>
      </trkpt>
      <trkpt lat="44.4626" lon="1.74898">
        <ele>197</ele>
        <time>2018-08-04T18:36:51+02:00</time>
      </trkpt>
      <trkpt lat="44.46245" lon="1.7487">
        <ele>196</ele>
        <time>2018-08-04T18:36:58+02:00</time>
      </trkpt>
      <trkpt lat="44.46229" lon="1.74841">
        <ele>198</ele>
        <time>2018-08-04T18:37:04+02:00</time>
      </trkpt>
      <trkpt lat="44.46235" lon="1.74807">
        <ele>196</ele>
        <time>2018-08-04T18:37:11+02:00</time>
      </trkpt>
      <trkpt lat="44.46252" lon="1.74783">
        <ele>195</ele>
        <time>2018-08-04T18:37:17+02:00</time>
      </trkpt>
      <trkpt lat="44.46271" lon="1.74758">
        <ele>193</ele>
        <time>2018-08-04T18:37:23+02:00</time>
      </trkpt>
      <trkpt lat="44.46286" lon="1.74727">
        <ele>194</ele>
        <time>2018-08-04T18:37:29+02:00</time>
      </trkpt>
      <trkpt lat="44.46292" lon="1.74696">
        <ele>194</ele>
        <time>2018-08-04T18:37:34+02:00</time>
      </trkpt>
      <trkpt lat="44.46292" lon="1.74662">
        <ele>193</ele>
        <time>2018-08-04T18:37:39+02:00</time>
      </trkpt>
      <trkpt lat="44.46282" lon="1.74629">
        <ele>191</ele>
        <time>2018-08-04T18:37:44+02:00</time>
      </trkpt>
      <trkpt lat="44.46273" lon="1.74594">
        <ele>191</ele>
        <time>2018-08-04T18:37:49+02:00</time>
      </trkpt>
      <trkpt lat="44.46264" lon="1.74561">
        <ele>191</ele>
        <time>2018-08-04T18:37:54+02:00</time>
      </trkpt>
      <trkpt lat="44.46257" lon="1.7453">
        <ele>189</ele>
        <time>2018-08-04T18:37:59+02:00</time>
      </trkpt>
      <trkpt lat="44.46248" lon="1.74497">
        <ele>187</ele>
        <time>2018-08-04T18:38:04+02:00</time>
      </trkpt>
      <trkpt lat="44.4624" lon="1.74463">
        <ele>188</ele>
        <time>2018-08-04T18:38:09+02:00</time>
      </trkpt>
      <trkpt lat="44.46236" lon="1.74431">
        <ele>188</ele>
        <time>2018-08-04T18:38:13+02:00</time>
      </trkpt>
      <trkpt lat="44.4623" lon="1.74399">
        <ele>185</ele>
        <time>2018-08-04T18:38:17+02:00</time>
      </trkpt>
      <trkpt lat="44.46229" lon="1.74361">
        <ele>185</ele>
        <time>2018-08-04T18:38:22+02:00</time>
      </trkpt>
      <trkpt lat="44.46223" lon="1.74326">
        <ele>183</ele>
        <time>2018-08-04T18:38:27+02:00</time>
      </trkpt>
      <trkpt lat="44.46219" lon="1.74292">
        <ele>184</ele>
        <time>2018-08-04T18:38:32+02:00</time>
      </trkpt>
      <trkpt lat="44.46211" lon="1.74258">
        <ele>184</ele>
        <time>2018-08-04T18:38:38+02:00</time>
      </trkpt>
      <trkpt lat="44.46206" lon="1.74225">
        <ele>186</ele>
        <time>2018-08-04T18:38:45+02:00</time>
      </trkpt>
      <trkpt lat="44.46212" lon="1.74192">
        <ele>191</ele>
        <time>2018-08-04T18:38:53+02:00</time>
      </trkpt>
      <trkpt lat="44.4622" lon="1.74163">
        <ele>192</ele>
        <time>2018-08-04T18:39:00+02:00</time>
      </trkpt>
      <trkpt lat="44.46226" lon="1.74132">
        <ele>194</ele>
        <time>2018-08-04T18:39:31+02:00</time>
      </trkpt>
      <trkpt lat="44.46236" lon="1.741">
        <ele>195</ele>
        <time>2018-08-04T18:39:38+02:00</time>
      </trkpt>
      <trkpt lat="44.46246" lon="1.74069">
        <ele>193</ele>
        <time>2018-08-04T18:39:44+02:00</time>
      </trkpt>
      <trkpt lat="44.46255" lon="1.74037">
        <ele>191</ele>
        <time>2018-08-04T18:39:50+02:00</time>
      </trkpt>
      <trkpt lat="44.4627" lon="1.74011">
        <ele>193</ele>
        <time>2018-08-04T18:39:58+02:00</time>
      </trkpt>
      <trkpt lat="44.46265" lon="1.73977">
        <ele>191</ele>
        <time>2018-08-04T18:40:05+02:00</time>
      </trkpt>
      <trkpt lat="44.46258" lon="1.73944">
        <ele>193</ele>
        <time>2018-08-04T18:40:11+02:00</time>
      </trkpt>
      <trkpt lat="44.46256" lon="1.73912">
        <ele>195</ele>
        <time>2018-08-04T18:40:17+02:00</time>
      </trkpt>
      <trkpt lat="44.46258" lon="1.73878">
        <ele>192</ele>
        <time>2018-08-04T18:40:23+02:00</time>
      </trkpt>
      <trkpt lat="44.46262" lon="1.73845">
        <ele>192</ele>
        <time>2018-08-04T18:40:29+02:00</time>
      </trkpt>
      <trkpt lat="44.46268" lon="1.73812">
        <ele>189</ele>
        <time>2018-08-04T18:40:35+02:00</time>
      </trkpt>
      <trkpt lat="44.46276" lon="1.73779">
        <ele>188</ele>
        <time>2018-08-04T18:40:41+02:00</time>
      </trkpt>
      <trkpt lat="44.46285" lon="1.73747">
        <ele>188</ele>
        <time>2018-08-04T18:40:47+02:00</time>
      </trkpt>
      <trkpt lat="44.46294" lon="1.73717">
        <ele>188</ele>
        <time>2018-08-04T18:40:53+02:00</time>
      </trkpt>
      <trkpt lat="44.46306" lon="1.73687">
        <ele>187</ele>
        <time>2018-08-04T18:40:59+02:00</time>
      </trkpt>
      <trkpt lat="44.46324" lon="1.73662">
        <ele>188</ele>
        <time>2018-08-04T18:41:05+02:00</time>
      </trkpt>
      <trkpt lat="44.46342" lon="1.73638">
        <ele>190</ele>
        <time>2018-08-04T18:41:11+02:00</time>
      </trkpt>
      <trkpt lat="44.46361" lon="1.73617">
        <ele>192</ele>
        <time>2018-08-04T18:41:17+02:00</time>
      </trkpt>
      <trkpt lat="44.46378" lon="1.73591">
        <ele>191</ele>
        <time>2018-08-04T18:41:23+02:00</time>
      </trkpt>
      <trkpt lat="44.46396" lon="1.73568">
        <ele>191</ele>
        <time>2018-08-04T18:41:29+02:00</time>
      </trkpt>
      <trkpt lat="44.46413" lon="1.73544">
        <ele>193</ele>
        <time>2018-08-04T18:41:35+02:00</time>
      </trkpt>
      <trkpt lat="44.4643" lon="1.73522">
        <ele>191</ele>
        <time>2018-08-04T18:41:40+02:00</time>
      </trkpt>
      <trkpt lat="44.46447" lon="1.73497">
        <ele>188</ele>
        <time>2018-08-04T18:41:46+02:00</time>
      </trkpt>
      <trkpt lat="44.46464" lon="1.73469">
        <ele>187</ele>
        <time>2018-08-04T18:41:52+02:00</time>
      </trkpt>
      <trkpt lat="44.46481" lon="1.73442">
        <ele>185</ele>
        <time>2018-08-04T18:41:58+02:00</time>
      </trkpt>
      <trkpt lat="44.46499" lon="1.7342">
        <ele>185</ele>
        <time>2018-08-04T18:42:04+02:00</time>
      </trkpt>
      <trkpt lat="44.46524" lon="1.7342">
        <ele>187</ele>
        <time>2018-08-04T18:42:11+02:00</time>
      </trkpt>
      <trkpt lat="44.46548" lon="1.73419">
        <ele>192</ele>
        <time>2018-08-04T18:42:19+02:00</time>
      </trkpt>
      <trkpt lat="44.46569" lon="1.73403">
        <ele>193</ele>
        <time>2018-08-04T18:42:27+02:00</time>
      </trkpt>
      <trkpt lat="44.46592" lon="1.73393">
        <ele>194</ele>
        <time>2018-08-04T18:42:37+02:00</time>
      </trkpt>
      <trkpt lat="44.46611" lon="1.7341">
        <ele>197</ele>
        <time>2018-08-04T18:42:46+02:00</time>
      </trkpt>
      <trkpt lat="44.46605" lon="1.73443">
        <ele>197</ele>
        <time>2018-08-04T18:42:55+02:00</time>
      </trkpt>
      <trkpt lat="44.46591" lon="1.73472">
        <ele>195</ele>
        <time>2018-08-04T18:43:02+02:00</time>
      </trkpt>
      <trkpt lat="44.46577" lon="1.73498">
        <ele>195</ele>
        <time>2018-08-04T18:43:08+02:00</time>
      </trkpt>
      <trkpt lat="44.46566" lon="1.73527">
        <ele>196</ele>
        <time>2018-08-04T18:43:14+02:00</time>
      </trkpt>
      <trkpt lat="44.46553" lon="1.73557">
        <ele>194</ele>
        <time>2018-08-04T18:43:20+02:00</time>
      </trkpt>
      <trkpt lat="44.4654" lon="1.73583">
        <ele>194</ele>
        <time>2018-08-04T18:43:26+02:00</time>
      </trkpt>
      <trkpt lat="44.46526" lon="1.73608">
        <ele>196</ele>
        <time>2018-08-04T18:43:32+02:00</time>
      </trkpt>
      <trkpt lat="44.46512" lon="1.73637">
        <ele>198</ele>
        <time>2018-08-04T18:43:38+02:00</time>
      </trkpt>
      <trkpt lat="44.46497" lon="1.73666">
        <ele>198</ele>
        <time>2018-08-04T18:43:44+02:00</time>
      </trkpt>
      <trkpt lat="44.46484" lon="1.73696">
        <ele>198</ele>
        <time>2018-08-04T18:43:50+02:00</time>
      </trkpt>
      <trkpt lat="44.4647" lon="1.73723">
        <ele>198</ele>
        <time>2018-08-04T18:43:56+02:00</time>
      </trkpt>
      <trkpt lat="44.46456" lon="1.73751">
        <ele>198</ele>
        <time>2018-08-04T18:44:02+02:00</time>
      </trkpt>
      <trkpt lat="44.46446" lon="1.73784">
        <ele>198</ele>
        <time>2018-08-04T18:44:09+02:00</time>
      </trkpt>
      <trkpt lat="44.46444" lon="1.73819">
        <ele>201</ele>
        <time>2018-08-04T18:44:17+02:00</time>
      </trkpt>
      <trkpt lat="44.46452" lon="1.7385">
        <ele>203</ele>
        <time>2018-08-04T18:44:25+02:00</time>
      </trkpt>
      <trkpt lat="44.46467" lon="1.73872">
        <ele>203</ele>
        <time>2018-08-04T18:44:34+02:00</time>
      </trkpt>
      <trkpt lat="44.46487" lon="1.7389">
        <ele>207</ele>
        <time>2018-08-04T18:44:46+02:00</time>
      </trkpt>
      <trkpt lat="44.46505" lon="1.7391">
        <ele>207</ele>
        <time>2018-08-04T18:44:56+02:00</time>
      </trkpt>
      <trkpt lat="44.46524" lon="1.73929">
        <ele>208</ele>
        <time>2018-08-04T18:45:06+02:00</time>
      </trkpt>
      <trkpt lat="44.46541" lon="1.73952">
        <ele>213</ele>
        <time>2018-08-04T18:45:17+02:00</time>
      </trkpt>
      <trkpt lat="44.46556" lon="1.73977">
        <ele>212</ele>
        <time>2018-08-04T18:45:27+02:00</time>
      </trkpt>
      <trkpt lat="44.46567" lon="1.74005">
        <ele>207</ele>
        <time>2018-08-04T18:45:37+02:00</time>
      </trkpt>
      <trkpt lat="44.46577" lon="1.74033">
        <ele>207</ele>
        <time>2018-08-04T18:45:47+02:00</time>
      </trkpt>
      <trkpt lat="44.46587" lon="1.74062">
        <ele>209</ele>
        <time>2018-08-04T18:45:57+02:00</time>
      </trkpt>
      <trkpt lat="44.46599" lon="1.7409">
        <ele>214</ele>
        <time>2018-08-04T18:46:08+02:00</time>
      </trkpt>
      <trkpt lat="44.46615" lon="1.74116">
        <ele>217</ele>
        <time>2018-08-04T18:46:20+02:00</time>
      </trkpt>
      <trkpt lat="44.46635" lon="1.74135">
        <ele>215</ele>
        <time>2018-08-04T18:46:31+02:00</time>
      </trkpt>
      <trkpt lat="44.46655" lon="1.74155">
        <ele>221</ele>
        <time>2018-08-04T18:46:42+02:00</time>
      </trkpt>
      <trkpt lat="44.46675" lon="1.74171">
        <ele>214</ele>
        <time>2018-08-04T18:46:52+02:00</time>
      </trkpt>
      <trkpt lat="44.46698" lon="1.74173">
        <ele>213</ele>
        <time>2018-08-04T18:47:03+02:00</time>
      </trkpt>
      <trkpt lat="44.46712" lon="1.74199">
        <ele>222</ele>
        <time>2018-08-04T18:47:19+02:00</time>
      </trkpt>
      <trkpt lat="44.46723" lon="1.74229">
        <ele>231</ele>
        <time>2018-08-04T18:47:38+02:00</time>
      </trkpt>
      <trkpt lat="44.46733" lon="1.74257">
        <ele>233</ele>
        <time>2018-08-04T18:47:52+02:00</time>
      </trkpt>
      <trkpt lat="44.46746" lon="1.74286">
        <ele>232</ele>
        <time>2018-08-04T18:48:05+02:00</time>
      </trkpt>
      <trkpt lat="44.46763" lon="1.74308">
        <ele>234</ele>
        <time>2018-08-04T18:48:17+02:00</time>
      </trkpt>
      <trkpt lat="44.46783" lon="1.74322">
        <ele>233</ele>
        <time>2018-08-04T18:48:30+02:00</time>
      </trkpt>
      <trkpt lat="44.46805" lon="1.74338">
        <ele>235</ele>
        <time>2018-08-04T18:48:45+02:00</time>
      </trkpt>
      <trkpt lat="44.46826" lon="1.7435">
        <ele>238</ele>
        <time>2018-08-04T18:48:58+02:00</time>
      </trkpt>
      <trkpt lat="44.46844" lon="1.74369">
        <ele>240</ele>
        <time>2018-08-04T18:49:13+02:00</time>
      </trkpt>
      <trkpt lat="44.46864" lon="1.74388">
        <ele>243</ele>
        <time>2018-08-04T18:49:28+02:00</time>
      </trkpt>
      <trkpt lat="44.46886" lon="1.74388">
        <ele>245</ele>
        <time>2018-08-04T18:49:42+02:00</time>
      </trkpt>
      <trkpt lat="44.46909" lon="1.74377">
        <ele>248</ele>
        <time>2018-08-04T18:49:57+02:00</time>
      </trkpt>
      <trkpt lat="44.46931" lon="1.74364">
        <ele>251</ele>
        <time>2018-08-04T18:50:11+02:00</time>
      </trkpt>
      <trkpt lat="44.46949" lon="1.74342">
        <ele>248</ele>
        <time>2018-08-04T18:53:57+02:00</time>
      </trkpt>
      <trkpt lat="44.4697" lon="1.74329">
        <ele>261</ele>
        <time>2018-08-04T18:54:20+02:00</time>
      </trkpt>
      <trkpt lat="44.46991" lon="1.74316">
        <ele>271</ele>
        <time>2018-08-04T18:54:43+02:00</time>
      </trkpt>
      <trkpt lat="44.47012" lon="1.74301">
        <ele>276</ele>
        <time>2018-08-04T18:55:02+02:00</time>
      </trkpt>
      <trkpt lat="44.47034" lon="1.74289">
        <ele>275</ele>
        <time>2018-08-04T18:55:25+02:00</time>
      </trkpt>
      <trkpt lat="44.47058" lon="1.74282">
        <ele>269</ele>
        <time>2018-08-04T18:55:44+02:00</time>
      </trkpt>
      <trkpt lat="44.47079" lon="1.74271">
        <ele>276</ele>
        <time>2018-08-04T18:56:02+02:00</time>
      </trkpt>
      <trkpt lat="44.47101" lon="1.74261">
        <ele>277</ele>
        <time>2018-08-04T18:56:22+02:00</time>
      </trkpt>
      <trkpt lat="44.47122" lon="1.74249">
        <ele>277</ele>
        <time>2018-08-04T18:56:40+02:00</time>
      </trkpt>
      <trkpt lat="44.47145" lon="1.7424">
        <ele>277</ele>
        <time>2018-08-04T18:57:00+02:00</time>
      </trkpt>
      <trkpt lat="44.47167" lon="1.74233">
        <ele>284</ele>
        <time>2018-08-04T18:57:23+02:00</time>
      </trkpt>
      <trkpt lat="44.47187" lon="1.74217">
        <ele>284</ele>
        <time>2018-08-04T18:57:41+02:00</time>
      </trkpt>
      <trkpt lat="44.47208" lon="1.74202">
        <ele>280</ele>
        <time>2018-08-04T18:58:05+02:00</time>
      </trkpt>
      <trkpt lat="44.4723" lon="1.74196">
        <ele>281</ele>
        <time>2018-08-04T18:58:28+02:00</time>
      </trkpt>
      <trkpt lat="44.47251" lon="1.74183">
        <ele>282</ele>
        <time>2018-08-04T18:58:57+02:00</time>
      </trkpt>
      <trkpt lat="44.47269" lon="1.74162">
        <ele>280</ele>
        <time>2018-08-04T18:59:16+02:00</time>
      </trkpt>
      <trkpt lat="44.47289" lon="1.74146">
        <ele>279</ele>
        <time>2018-08-04T18:59:40+02:00</time>
      </trkpt>
      <trkpt lat="44.47312" lon="1.7414">
        <ele>280</ele>
        <time>2018-08-04T19:00:58+02:00</time>
      </trkpt>
      <trkpt lat="44.47335" lon="1.74135">
        <ele>281</ele>
        <time>2018-08-04T19:01:17+02:00</time>
      </trkpt>
      <trkpt lat="44.47357" lon="1.74124">
        <ele>283</ele>
        <time>2018-08-04T19:02:04+02:00</time>
      </trkpt>
      <trkpt lat="44.47377" lon="1.74107">
        <ele>286</ele>
        <time>2018-08-04T19:02:27+02:00</time>
      </trkpt>
      <trkpt lat="44.47398" lon="1.74093">
        <ele>285</ele>
        <time>2018-08-04T19:02:47+02:00</time>
      </trkpt>
      <trkpt lat="44.47418" lon="1.74078">
        <ele>289</ele>
        <time>2018-08-04T19:03:09+02:00</time>
      </trkpt>
      <trkpt lat="44.47438" lon="1.74062">
        <ele>293</ele>
        <time>2018-08-04T19:03:27+02:00</time>
      </trkpt>
      <trkpt lat="44.47459" lon="1.74049">
        <ele>288</ele>
        <time>2018-08-04T19:04:35+02:00</time>
      </trkpt>
      <trkpt lat="44.47482" lon="1.74043">
        <ele>289</ele>
        <time>2018-08-04T19:04:54+02:00</time>
      </trkpt>
      <trkpt lat="44.47506" lon="1.74042">
        <ele>286</ele>
        <time>2018-08-04T19:05:14+02:00</time>
      </trkpt>
      <trkpt lat="44.47529" lon="1.7404">
        <ele>291</ele>
        <time>2018-08-04T19:05:31+02:00</time>
      </trkpt>
      <trkpt lat="44.47551" lon="1.74046">
        <ele>294</ele>
        <time>2018-08-04T19:05:49+02:00</time>
      </trkpt>
      <trkpt lat="44.47574" lon="1.74045">
        <ele>296</ele>
        <time>2018-08-04T19:06:08+02:00</time>
      </trkpt>
      <trkpt lat="44.47598" lon="1.74046">
        <ele>302</ele>
        <time>2018-08-04T19:06:25+02:00</time>
      </trkpt>
      <trkpt lat="44.47621" lon="1.74048">
        <ele>302</ele>
        <time>2018-08-04T19:06:46+02:00</time>
      </trkpt>
      <trkpt lat="44.47644" lon="1.74042">
        <ele>304</ele>
        <time>2018-08-04T19:07:04+02:00</time>
      </trkpt>
      <trkpt lat="44.47667" lon="1.74045">
        <ele>304</ele>
        <time>2018-08-04T19:07:25+02:00</time>
      </trkpt>
      <trkpt lat="44.4769" lon="1.74045">
        <ele>312</ele>
        <time>2018-08-04T19:07:39+02:00</time>
      </trkpt>
      <trkpt lat="44.47713" lon="1.74049">
        <ele>312</ele>
        <time>2018-08-04T19:07:55+02:00</time>
      </trkpt>
      <trkpt lat="44.47736" lon="1.74051">
        <ele>312</ele>
        <time>2018-08-04T19:08:11+02:00</time>
      </trkpt>
      <trkpt lat="44.4776" lon="1.74052">
        <ele>310</ele>
        <time>2018-08-04T19:08:28+02:00</time>
      </trkpt>
      <trkpt lat="44.47783" lon="1.74052">
        <ele>311</ele>
        <time>2018-08-04T19:08:43+02:00</time>
      </trkpt>
      <trkpt lat="44.47807" lon="1.74053">
        <ele>315</ele>
        <time>2018-08-04T19:09:02+02:00</time>
      </trkpt>
      <trkpt lat="44.47829" lon="1.74045">
        <ele>319</ele>
        <time>2018-08-04T19:09:18+02:00</time>
      </trkpt>
      <trkpt lat="44.4785" lon="1.74031">
        <ele>319</ele>
        <time>2018-08-04T19:09:34+02:00</time>
      </trkpt>
      <trkpt lat="44.47871" lon="1.74015">
        <ele>320</ele>
        <time>2018-08-04T19:09:51+02:00</time>
      </trkpt>
      <trkpt lat="44.47894" lon="1.74005">
        <ele>321</ele>
        <time>2018-08-04T19:10:07+02:00</time>
      </trkpt>
      <trkpt lat="44.47917" lon="1.74013">
        <ele>321</ele>
        <time>2018-08-04T19:10:21+02:00</time>
      </trkpt>
      <trkpt lat="44.4793" lon="1.74039">
        <ele>324</ele>
        <time>2018-08-04T19:10:34+02:00</time>
      </trkpt>
      <trkpt lat="44.47946" lon="1.74067">
        <ele>322</ele>
        <time>2018-08-04T19:10:48+02:00</time>
      </trkpt>
      <trkpt lat="44.4796" lon="1.74091">
        <ele>327</ele>
        <time>2018-08-04T19:11:03+02:00</time>
      </trkpt>
      <trkpt lat="44.47977" lon="1.74114">
        <ele>328</ele>
        <time>2018-08-04T19:11:16+02:00</time>
      </trkpt>
      <trkpt lat="44.47991" lon="1.74139">
        <ele>330</ele>
        <time>2018-08-04T19:11:31+02:00</time>
      </trkpt>
      <trkpt lat="44.48008" lon="1.7416">
        <ele>331</ele>
        <time>2018-08-04T19:11:43+02:00</time>
      </trkpt>
      <trkpt lat="44.48022" lon="1.74185">
        <ele>333</ele>
        <time>2018-08-04T19:11:56+02:00</time>
      </trkpt>
      <trkpt lat="44.48037" lon="1.7421">
        <ele>334</ele>
        <time>2018-08-04T19:12:09+02:00</time>
      </trkpt>
      <trkpt lat="44.48049" lon="1.74237">
        <ele>335</ele>
        <time>2018-08-04T19:12:22+02:00</time>
      </trkpt>
      <trkpt lat="44.48062" lon="1.74263">
        <ele>338</ele>
        <time>2018-08-04T19:12:32+02:00</time>
      </trkpt>
      <trkpt lat="44.4807" lon="1.74294">
        <ele>328</ele>
        <time>2018-08-04T19:12:44+02:00</time>
      </trkpt>
      <trkpt lat="44.48076" lon="1.74325">
        <ele>350</ele>
        <time>2018-08-04T19:18:41+02:00</time>
      </trkpt>
      <trkpt lat="44.48078" lon="1.74358">
        <ele>359</ele>
        <time>2018-08-04T19:19:01+02:00</time>
      </trkpt>
      <trkpt lat="44.4808" lon="1.7439">
        <ele>350</ele>
        <time>2018-08-04T19:19:20+02:00</time>
      </trkpt>
      <trkpt lat="44.48076" lon="1.74422">
        <ele>348</ele>
        <time>2018-08-04T19:19:44+02:00</time>
      </trkpt>
      <trkpt lat="44.48059" lon="1.74442">
        <ele>357</ele>
        <time>2018-08-04T19:20:10+02:00</time>
      </trkpt>
      <trkpt lat="44.48035" lon="1.74442">
        <ele>362</ele>
        <time>2018-08-04T19:20:33+02:00</time>
      </trkpt>
      <trkpt lat="44.48011" lon="1.74446">
        <ele>363</ele>
        <time>2018-08-04T19:20:51+02:00</time>
      </trkpt>
      <trkpt lat="44.47989" lon="1.74445">
        <ele>364</ele>
        <time>2018-08-04T19:21:12+02:00</time>
      </trkpt>
      <trkpt lat="44.47966" lon="1.74441">
        <ele>368</ele>
        <time>2018-08-04T19:21:32+02:00</time>
      </trkpt>
      <trkpt lat="44.47942" lon="1.74441">
        <ele>363</ele>
        <time>2018-08-04T19:21:50+02:00</time>
      </trkpt>
      <trkpt lat="44.4792" lon="1.74436">
        <ele>366</ele>
        <time>2018-08-04T19:22:08+02:00</time>
      </trkpt>
      <trkpt lat="44.47897" lon="1.74432">
        <ele>369</ele>
        <time>2018-08-04T19:22:29+02:00</time>
      </trkpt>
      <trkpt lat="44.47873" lon="1.74428">
        <ele>372</ele>
        <time>2018-08-04T19:22:47+02:00</time>
      </trkpt>
      <trkpt lat="44.47851" lon="1.74436">
        <ele>362</ele>
        <time>2018-08-04T19:23:11+02:00</time>
      </trkpt>
      <trkpt lat="44.47828" lon="1.74432">
        <ele>364</ele>
        <time>2018-08-04T19:23:27+02:00</time>
      </trkpt>
      <trkpt lat="44.47806" lon="1.74438">
        <ele>363</ele>
        <time>2018-08-04T19:23:49+02:00</time>
      </trkpt>
      <trkpt lat="44.47784" lon="1.74448">
        <ele>364</ele>
        <time>2018-08-04T19:24:07+02:00</time>
      </trkpt>
      <trkpt lat="44.47764" lon="1.74465">
        <ele>367</ele>
        <time>2018-08-04T19:24:28+02:00</time>
      </trkpt>
      <trkpt lat="44.47745" lon="1.74483">
        <ele>371</ele>
        <time>2018-08-04T19:24:51+02:00</time>
      </trkpt>
      <trkpt lat="44.47731" lon="1.74507">
        <ele>379</ele>
        <time>2018-08-04T19:25:15+02:00</time>
      </trkpt>
      <trkpt lat="44.47724" lon="1.74537">
        <ele>382</ele>
        <time>2018-08-04T19:25:48+02:00</time>
      </trkpt>
      <trkpt lat="44.47724" lon="1.7457">
        <ele>381</ele>
        <time>2018-08-04T19:26:08+02:00</time>
      </trkpt>
      <trkpt lat="44.47722" lon="1.74602">
        <ele>378</ele>
        <time>2018-08-04T19:26:32+02:00</time>
      </trkpt>
      <trkpt lat="44.47724" lon="1.74637">
        <ele>380</ele>
        <time>2018-08-04T19:26:52+02:00</time>
      </trkpt>
      <trkpt lat="44.4773" lon="1.74667">
        <ele>381</ele>
        <time>2018-08-04T19:26:59+02:00</time>
      </trkpt>
      <trkpt lat="44.47737" lon="1.7471">
        <ele>374</ele>
        <time>2018-08-04T19:27:04+02:00</time>
      </trkpt>
      <trkpt lat="44.47743" lon="1.74743">
        <ele>376</ele>
        <time>2018-08-04T19:27:07+02:00</time>
      </trkpt>
      <trkpt lat="44.47747" lon="1.74774">
        <ele>373</ele>
        <time>2018-08-04T19:27:10+02:00</time>
      </trkpt>
      <trkpt lat="44.47746" lon="1.74812">
        <ele>378</ele>
        <time>2018-08-04T19:27:14+02:00</time>
      </trkpt>
      <trkpt lat="44.47746" lon="1.74845">
        <ele>378</ele>
        <time>2018-08-04T19:27:18+02:00</time>
      </trkpt>
      <trkpt lat="44.47745" lon="1.74878">
        <ele>377</ele>
        <time>2018-08-04T19:27:25+02:00</time>
      </trkpt>
      <trkpt lat="44.47745" lon="1.74912">
        <ele>378</ele>
        <time>2018-08-04T19:27:34+02:00</time>
      </trkpt>
      <trkpt lat="44.47746" lon="1.74947">
        <ele>378</ele>
        <time>2018-08-04T19:27:44+02:00</time>
      </trkpt>
      <trkpt lat="44.47746" lon="1.7498">
        <ele>380</ele>
        <time>2018-08-04T19:27:53+02:00</time>
      </trkpt>
      <trkpt lat="44.4775" lon="1.75012">
        <ele>385</ele>
        <time>2018-08-04T19:28:02+02:00</time>
      </trkpt>
      <trkpt lat="44.47756" lon="1.75046">
        <ele>385</ele>
        <time>2018-08-04T19:28:10+02:00</time>
      </trkpt>
      <trkpt lat="44.47766" lon="1.75078">
        <ele>386</ele>
        <time>2018-08-04T19:28:18+02:00</time>
      </trkpt>
      <trkpt lat="44.47774" lon="1.75108">
        <ele>278</ele>
        <time>2018-08-04T19:28:26+02:00</time>
      </trkpt>
      <trkpt lat="44.47784" lon="1.75139">
        <ele>377</ele>
        <time>2018-08-04T19:28:35+02:00</time>
      </trkpt>
      <trkpt lat="44.47784" lon="1.75171">
        <ele>376</ele>
        <time>2018-08-04T19:28:43+02:00</time>
      </trkpt>
      <trkpt lat="44.47779" lon="1.75205">
        <ele>377</ele>
        <time>2018-08-04T19:28:49+02:00</time>
      </trkpt>
      <trkpt lat="44.4777" lon="1.75237">
        <ele>375</ele>
        <time>2018-08-04T19:28:54+02:00</time>
      </trkpt>
      <trkpt lat="44.47747" lon="1.75265">
        <ele>374</ele>
        <time>2018-08-04T19:28:59+02:00</time>
      </trkpt>
      <trkpt lat="44.47721" lon="1.75284">
        <ele>371</ele>
        <time>2018-08-04T19:29:03+02:00</time>
      </trkpt>
      <trkpt lat="44.47697" lon="1.75299">
        <ele>370</ele>
        <time>2018-08-04T19:29:08+02:00</time>
      </trkpt>
      <trkpt lat="44.47675" lon="1.75315">
        <ele>369</ele>
        <time>2018-08-04T19:29:13+02:00</time>
      </trkpt>
      <trkpt lat="44.47652" lon="1.75321">
        <ele>367</ele>
        <time>2018-08-04T19:29:27+02:00</time>
      </trkpt>
    </trkseg>
  </trk>
</gpx>